[[{"header":{"parameterUnit":"m.s-1","parameterCategory":1,"la1":30.6,"la2":28.766,"lo1":-90.7593,"lo2":-88.6598,"dy":0.0162,"dx":0.0183,"nx":116,"ny":114,"refTime":"2024-07-03T18:00:00:Z","depth":0,"parameterNumber":2,"parameterNumberName":"U-component_of_WINDS"},"data":[0.0,0.0,0.0,0.0,0.0,0.0,0.0,0.0,0.0,0.0,0.0,0.0,0.0,0.0,0.0,0.0,0.0,0.0,0.0,0.0,0.0,0.0,0.0,0.0,0.0,0.0,0.0,0.0,0.0,0.0,0.0,0.0,0.0,0.0,0.0,0.0,0.0,0.0,0.0,0.0,0.0,0.0,0.0,0.0,0.0,0.0,0.0,0.0,0.0,0.0,0.0,0.0,0.0,0.0,0.0,0.0,0.0,0.0,0.0,0.0,0.0,0.0,0.0,0.0,0.0,0.0,0.0,0.0,0.0,0.0,0.0,0.0,0.0,0.0,0.0,0.0,0.0,0.0,0.0,0.0,0.0,0.0,0.0,0.0,0.0,0.0,0.0,0.0,0.0,0.0,0.0,0.0,0.0,0.0,0.0,0.0,0.0,0.0,0.0,0.0,0.0,0.0,0.0,0.0,0.0,0.0,0.0,0.0,0.0,0.0,0.0,0.0,0.0,0.0,0.0,0.0,0.0,0.0,0.0,0.0,0.0,0.0,0.0,0.0,0.0,0.0,0.0,0.0,0.0,0.0,0.0,0.0,0.0,0.0,0.0,0.0,0.0,0.0,0.0,0.0,0.0,0.0,0.0,0.0,0.0,0.0,0.0,0.0,0.0,0.0,0.0,0.0,0.0,0.0,0.0,0.0,0.0,0.0,0.0,0.0,0.0,0.0,0.0,0.0,0.0,0.0,0.0,0.0,0.0,0.0,0.0,0.0,0.0,0.0,0.0,0.0,0.0,0.0,0.0,0.0,0.0,0.0,0.0,0.0,0.0,0.0,0.0,0.0,0.0,0.0,0.0,0.0,0.0,0.0,0.0,0.0,0.0,0.0,0.0,0.0,0.0,0.0,0.0,0.0,0.0,0.0,0.0,0.0,0.0,0.0,0.0,0.0,0.0,0.0,0.0,0.0,0.0,0.0,0.0,0.0,0.0,0.0,0.0,0.0,0.0,0.0,0.0,0.0,0.0,0.0,0.0,0.0,0.0,0.0,0.0,0.0,0.0,0.0,0.0,0.0,0.0,0.0,0.0,0.0,0.0,0.0,0.0,0.0,0.0,0.0,0.0,0.0,0.0,0.0,0.0,0.0,0.0,0.0,0.0,0.0,0.0,0.0,0.0,0.0,0.0,0.0,0.0,0.0,0.0,0.0,0.0,0.0,0.0,0.0,0.0,0.0,0.0,0.0,0.0,0.0,0.0,0.0,0.0,0.0,0.0,0.0,0.0,0.0,0.0,0.0,0.0,0.0,0.0,0.0,0.0,0.0,0.0,0.0,0.0,0.0,0.0,0.0,0.0,0.0,0.0,0.0,0.0,0.0,0.0,0.0,0.0,0.0,0.0,0.0,0.0,0.0,0.0,0.0,0.0,0.0,0.0,0.0,0.0,0.0,0.0,0.0,0.0,0.0,0.0,0.0,0.0,0.0,0.0,0.0,0.0,0.0,0.0,0.0,0.0,0.0,0.0,0.0,0.0,0.0,0.0,0.0,0.0,0.0,0.0,0.0,0.0,0.0,0.0,0.0,0.0,0.0,0.0,0.0,0.0,0.0,0.0,0.0,0.0,0.0,0.0,0.0,0.0,0.0,0.0,0.0,0.0,0.0,0.0,0.0,0.0,0.0,0.0,0.0,0.0,0.0,0.0,0.0,0.0,0.0,0.0,0.0,0.0,0.0,0.0,0.0,0.0,0.0,0.0,0.0,0.0,0.0,0.0,0.0,0.0,0.0,0.0,0.0,0.0,0.0,0.0,0.0,0.0,0.0,0.0,0.0,0.0,0.0,0.0,0.0,0.0,0.0,0.0,0.0,0.0,0.0,0.0,0.0,0.0,0.0,0.0,0.0,0.0,0.0,0.0,0.0,0.0,0.0,0.0,0.0,0.0,0.0,0.0,0.0,0.0,0.0,0.0,0.0,0.0,0.0,0.0,0.0,0.0,0.0,0.0,0.0,0.0,0.0,0.0,0.0,0.0,0.0,0.0,0.0,0.0,0.0,0.0,0.0,0.0,0.0,0.0,0.0,0.0,0.0,0.0,0.0,0.0,0.0,0.0,0.0,0.0,0.0,0.0,0.0,0.0,0.0,0.0,0.0,0.0,0.0,0.0,0.0,0.0,0.0,0.0,0.0,0.0,0.0,0.0,0.0,0.0,0.0,0.0,0.0,0.0,0.0,0.0,0.0,0.0,0.0,0.0,0.0,0.0,0.0,0.0,0.0,0.0,0.0,0.0,0.0,0.0,0.0,0.0,0.0,0.0,0.0,0.0,0.0,0.0,0.0,0.0,0.0,0.0,0.0,0.0,0.0,0.0,0.0,0.0,0.0,0.0,0.0,0.0,0.0,0.0,0.0,0.0,0.0,0.0,0.0,0.0,0.0,0.0,0.0,0.0,0.0,0.0,0.0,0.0,0.0,0.0,0.0,0.0,0.0,0.0,0.0,0.0,0.0,0.0,0.0,0.0,0.0,0.0,0.0,0.0,0.0,0.0,0.0,0.0,0.0,0.0,0.0,0.0,0.0,0.0,0.0,0.0,0.0,0.0,0.0,0.0,0.0,0.0,0.0,0.0,0.0,0.0,0.0,0.0,0.0,0.0,0.0,0.0,0.0,0.0,0.0,0.0,0.0,0.0,0.0,0.0,0.0,0.0,0.0,0.0,0.0,0.0,0.0,0.0,0.0,0.0,0.0,0.0,0.0,0.0,0.0,0.0,0.0,0.0,0.0,0.0,0.0,0.0,0.0,0.0,0.0,0.0,0.0,0.0,0.0,0.0,0.0,0.0,0.0,0.0,0.0,0.0,0.0,0.0,0.0,0.0,0.0,0.0,0.0,0.0,0.0,0.0,0.0,0.0,0.0,0.0,0.0,0.0,0.0,0.0,0.0,0.0,0.0,0.0,0.0,0.0,0.0,0.0,0.0,0.0,0.0,0.0,0.0,0.0,0.0,0.0,0.0,0.0,0.0,0.0,0.0,0.0,0.0,0.0,0.0,0.0,0.0,0.0,0.0,0.0,0.0,0.0,0.0,0.0,0.0,0.0,0.0,0.0,0.0,0.0,0.0,0.0,0.0,0.0,0.0,0.0,0.0,0.0,0.0,0.0,0.0,0.0,0.0,0.0,0.0,0.0,0.0,0.0,0.0,0.0,0.0,0.0,0.0,0.0,0.0,0.0,0.0,0.0,0.0,0.0,0.0,0.0,0.0,0.0,0.0,0.0,0.0,0.0,0.0,0.0,0.0,0.0,0.0,0.0,0.0,0.0,0.0,0.0,0.0,0.0,0.0,0.0,0.0,0.0,0.0,0.0,0.0,0.0,0.0,0.0,0.0,0.0,0.0,0.0,0.0,0.0,0.0,0.0,0.0,0.0,0.0,0.0,0.0,0.0,0.0,0.0,0.0,0.0,0.0,0.0,0.0,0.0,0.0,0.0,0.0,0.0,0.0,0.0,0.0,0.0,0.0,0.0,0.0,0.0,0.0,0.0,0.0,0.0,0.0,0.0,0.0,0.0,0.0,0.0,0.0,0.0,0.0,0.0,0.0,0.0,0.0,0.0,0.0,0.0,0.0,0.0,0.0,0.0,0.0,0.0,0.0,0.0,0.0,0.0,0.0,0.0,0.0,0.0,0.0,0.0,0.0,0.0,0.0,0.0,0.0,0.0,0.0,0.0,0.0,0.0,0.0,0.0,0.0,0.0,0.0,0.0,0.0,0.0,0.0,0.0,0.0,0.0,0.0,0.0,0.0,0.0,0.0,0.0,0.0,0.0,0.0,0.0,0.0,0.0,0.0,0.0,0.0,0.0,0.0,0.0,0.0,0.0,0.0,0.0,0.0,0.0,0.0,0.0,0.0,0.0,0.0,0.0,0.0,0.0,0.0,0.0,0.0,0.0,0.0,0.0,0.0,0.0,0.0,0.0,0.0,0.0,0.0,0.0,0.0,0.0,0.0,0.0,0.0,0.0,0.0,0.0,0.0,0.0,0.0,0.0,0.0,0.0,0.0,0.0,0.0,0.0,0.0,0.0,0.0,0.0,0.0,0.0,0.0,0.0,0.0,0.0,0.0,0.0,0.0,0.0,0.0,0.0,0.0,0.0,0.0,0.0,0.0,0.0,0.0,0.0,0.0,0.0,0.0,0.0,0.0,0.0,0.0,0.0,0.0,0.0,0.0,0.0,0.0,0.0,0.0,0.0,0.0,0.0,0.0,0.0,0.0,0.0,0.0,0.0,0.0,0.0,0.0,0.0,0.0,0.0,0.0,0.0,0.0,0.0,0.0,0.0,0.0,0.0,0.0,0.0,0.0,0.0,0.0,0.0,0.0,0.0,0.0,0.0,0.0,0.0,0.0,0.0,0.0,0.0,0.0,0.0,0.0,0.0,0.0,0.0,0.0,0.0,0.0,0.0,0.0,0.0,0.0,0.0,0.0,0.0,0.0,0.0,0.0,0.0,0.0,0.0,0.0,0.0,0.0,0.0,0.0,0.0,0.0,0.0,0.0,0.0,0.0,0.0,0.0,0.0,0.0,0.0,0.0,0.0,0.0,0.0,0.0,0.0,0.0,0.0,0.0,0.0,0.0,0.0,0.0,0.0,0.0,0.0,0.0,0.0,0.0,0.0,0.0,0.0,0.0,0.0,0.0,0.0,0.0,0.0,0.0,0.0,0.0,0.0,0.0,0.0,0.0,0.0,0.0,0.0,0.0,0.0,0.0,0.0,0.0,0.0,0.0,0.0,0.0,0.0,0.0,0.0,0.0,0.0,0.0,0.0,0.0,0.0,0.0,0.0,0.0,0.0,0.0,0.0,0.0,0.0,0.0,0.0,0.0,0.0,0.0,0.0,0.0,0.0,0.0,0.0,0.0,0.0,0.0,0.0,0.0,0.0,0.0,0.0,0.0,0.0,0.0,0.0,0.0,0.0,0.0,0.0,0.0,0.0,0.0,0.0,0.0,0.0,0.0,0.0,0.0,0.0,0.0,0.0,0.0,0.0,0.0,0.0,0.0,0.0,0.0,0.0,0.0,0.0,0.0,0.0,0.0,0.0,0.0,0.0,0.0,0.0,0.0,0.0,0.0,0.0,0.0,0.0,0.0,0.0,0.0,0.0,0.0,0.0,0.0,0.0,0.0,0.0,0.0,0.0,0.0,0.0,0.0,0.0,0.0,0.0,0.0,0.0,0.0,0.0,0.0,0.0,0.0,0.0,0.0,0.0,0.0,0.0,0.0,0.0,0.0,0.0,0.0,0.0,0.0,0.0,0.0,0.0,0.0,0.0,0.0,0.0,0.0,0.0,0.0,0.0,0.0,0.0,0.0,0.0,0.0,0.0,0.0,0.0,0.0,0.0,0.0,0.0,0.0,0.0,0.0,0.0,0.0,0.0,0.0,0.0,0.0,0.0,0.0,0.0,0.0,0.0,0.0,0.0,0.0,0.0,0.0,0.0,0.0,0.0,0.0,0.0,0.0,0.0,0.0,0.0,0.0,0.0,0.0,0.0,0.0,0.0,0.0,0.0,0.0,0.0,0.0,0.0,0.0,0.0,0.0,0.0,0.0,0.0,0.0,0.0,0.0,0.0,0.0,0.0,0.0,0.0,0.0,0.0,0.0,0.0,0.0,0.0,0.0,0.0,0.0,0.0,0.0,0.0,0.0,0.0,0.0,0.0,0.0,0.0,0.0,0.0,0.0,0.0,0.0,0.0,0.0,0.0,0.0,0.0,0.0,0.0,0.0,0.0,0.0,0.0,0.0,0.0,0.0,0.0,0.0,0.0,0.0,0.0,0.0,0.0,0.0,0.0,0.0,0.0,0.0,0.0,0.0,0.0,0.0,0.0,0.0,0.0,0.0,0.0,0.0,0.0,0.0,0.0,0.0,0.0,0.0,0.0,0.0,0.0,0.0,0.0,0.0,0.0,0.0,0.0,0.0,0.0,0.0,0.0,0.0,0.0,0.0,0.0,0.0,0.0,0.0,0.0,0.0,0.0,0.0,0.0,0.0,0.0,0.0,0.0,0.0,0.0,0.0,0.0,0.0,0.0,0.0,0.0,0.0,0.0,0.0,0.0,0.0,0.0,0.0,-1.3467,-1.3046,0.0,0.0,0.0,0.0,0.0,0.0,0.0,0.0,0.0,0.0,0.0,0.0,0.0,0.0,0.0,0.0,0.0,0.0,0.0,0.0,0.0,0.0,0.0,-0.7795,-0.8478,-0.9151,-0.9073,-0.9011,-0.9011,0.0,0.0,0.0,0.0,0.0,-0.8978,-0.892,-0.8926,-0.9024,-0.9269,-0.9568,-0.99,-0.9386,-0.8938,-0.8562,0.0,0.0,0.0,0.0,0.0,0.0,0.0,0.0,0.0,0.0,0.0,0.0,0.0,0.0,0.0,0.0,0.0,0.0,0.0,0.0,0.0,0.0,0.0,0.0,0.0,0.0,0.0,0.0,0.0,0.0,0.0,0.0,0.0,0.0,0.0,0.0,0.0,0.0,0.0,0.0,0.0,0.0,0.0,0.0,0.0,0.0,0.0,0.0,0.0,0.0,0.0,0.0,0.0,0.0,0.0,0.0,0.0,0.0,0.0,0.0,0.0,0.0,0.0,0.0,0.0,0.0,0.0,0.0,0.0,0.0,-1.5739,-1.4528,0.0,0.0,0.0,0.0,0.0,0.0,0.0,0.0,0.0,0.0,0.0,0.0,0.0,0.0,0.0,0.0,0.0,0.0,0.0,0.0,0.0,-0.6544,-0.7226,-0.7885,-0.8504,-0.9046,-0.8979,-0.8897,-0.8897,-0.9036,0.0,0.0,0.0,-0.9525,-0.9504,-0.9443,-0.9532,-0.9804,-0.9948,-1.0503,-1.1388,-1.1233,-1.0992,-1.0715,-0.9929,0.0,0.0,0.0,0.0,0.0,0.0,0.0,0.0,0.0,0.0,0.0,0.0,0.0,0.0,0.0,0.0,0.0,0.0,0.0,0.0,0.0,0.0,0.0,0.0,0.0,0.0,0.0,0.0,0.0,0.0,0.0,0.0,0.0,0.0,0.0,0.0,0.0,0.0,0.0,0.0,0.0,0.0,0.0,0.0,0.0,0.0,0.0,0.0,0.0,0.0,0.0,0.0,0.0,0.0,0.0,0.0,0.0,0.0,0.0,0.0,0.0,0.0,0.0,-1.9708,-1.9708,-1.9747,-2.1197,-2.1055,-1.9588,-1.7416,-1.5656,-1.4158,-1.1954,0.0,0.0,0.0,0.0,0.0,0.0,0.0,0.0,0.0,0.0,0.0,0.0,0.0,0.0,0.0,0.0,0.0,0.0,0.0,-0.7272,-0.8066,-0.8634,-0.8999,-0.9093,-0.8979,-0.8897,-0.8897,-0.9129,0.0,0.0,-0.9538,-0.9621,-0.9504,-0.9216,-0.9297,-0.9804,-1.0558,-1.1488,-1.258,-1.2557,-1.2816,-1.325,-1.2002,-1.1422,-1.1347,0.0,0.0,0.0,0.0,0.0,0.0,0.0,0.0,0.0,0.0,0.0,0.0,0.0,0.0,0.0,0.0,0.0,0.0,0.0,0.0,0.0,0.0,0.0,0.0,0.0,0.0,0.0,0.0,0.0,0.0,0.0,0.0,0.0,0.0,0.0,0.0,0.0,0.0,0.0,0.0,0.0,-0.9978,-1.2597,0.0,0.0,0.0,0.0,0.0,0.0,0.0,0.0,0.0,0.0,0.0,0.0,0.0,-1.8864,-1.8864,-1.8864,-1.9159,-1.9708,-1.9708,-1.9708,-1.9708,-1.9927,-1.9925,-1.9678,-1.9333,0.0,-1.868,-1.652,0.0,0.0,0.0,0.0,0.0,0.0,0.0,0.0,0.0,0.0,0.0,0.0,0.0,0.0,0.0,0.0,0.0,0.0,0.0,0.0,0.0,-0.9107,-0.9692,-0.9612,-0.9938,-0.9952,-0.954,-0.9629,-0.9583,-0.9316,-0.9345,-0.9372,-0.9385,-0.9426,-0.9995,-1.108,-1.249,-1.3624,-1.4494,-1.4827,-1.5352,-1.5965,-1.5382,-1.4094,-1.228,-1.1027,0.0,0.0,0.0,0.0,0.0,0.0,0.0,0.0,0.0,0.0,0.0,0.0,0.0,0.0,0.0,0.0,0.0,0.0,0.0,0.0,0.0,0.0,0.0,0.0,0.0,0.0,0.0,0.0,0.0,0.0,0.0,0.0,0.0,0.0,0.0,0.0,0.0,0.0,0.0,-0.9982,-1.158,-1.4408,-1.3579,-1.2412,0.0,0.0,0.0,0.0,0.0,0.0,0.0,0.0,0.0,-1.6145,-1.8462,-1.9708,-1.9708,-1.9708,-2.1034,-2.3643,-2.3643,-2.3643,-2.3643,-2.3643,-2.3001,-2.1874,-2.1874,-2.1874,-2.1709,-1.9293,-1.819,-1.7881,0.0,0.0,0.0,0.0,-1.4218,-1.5221,0.0,0.0,0.0,0.0,0.0,0.0,0.0,0.0,0.0,0.0,0.0,0.0,-0.8605,-0.9547,-1.017,-1.0267,-1.0775,-1.0876,-1.0328,-1.014,-0.9893,-0.9547,-0.9279,-0.9274,-0.9522,-1.0326,-1.1431,-1.2788,-1.4474,-1.562,-1.6293,-1.6757,-1.7219,-1.7713,-1.7713,-1.6249,-1.3705,-1.2392,-1.1459,0.0,0.0,0.0,0.0,0.0,0.0,0.0,0.0,0.0,0.0,0.0,0.0,0.0,0.0,0.0,0.0,0.0,0.0,0.0,0.0,0.0,0.0,0.0,0.0,0.0,0.0,0.0,0.0,0.0,0.0,0.0,0.0,0.0,0.0,0.0,0.0,0.0,0.0,-1.0572,-1.2804,-1.5484,-1.5799,-1.5456,0.0,0.0,0.0,0.0,0.0,0.0,-1.3967,-1.561,-1.7063,-1.8278,-1.9877,-2.0711,-2.0711,-2.1239,-2.3244,-2.6691,-2.6691,-2.6691,-2.6691,-2.6691,-2.5857,-2.4353,-2.3837,-2.3595,-2.3445,-2.1505,-2.0307,-1.9639,-1.9114,-1.7907,-1.65,-1.65,-1.6858,-1.7544,0.0,0.0,0.0,0.0,0.0,0.0,0.0,0.0,0.0,0.0,0.0,-0.8618,-0.9945,-1.0049,-1.0284,-1.0978,-1.1086,-1.1079,0.0,0.0,-1.018,-1.0164,-0.9602,-0.956,-1.0146,-1.2221,-1.3763,-1.4659,-1.5979,-1.695,-1.7609,-1.7654,-1.7669,-1.7713,-1.7713,-1.7249,-1.6428,-1.5127,-1.3953,-1.2785,0.0,0.0,0.0,0.0,0.0,0.0,0.0,0.0,0.0,0.0,0.0,0.0,0.0,0.0,0.0,0.0,0.0,0.0,0.0,0.0,0.0,0.0,0.0,0.0,0.0,0.0,0.0,0.0,0.0,0.0,0.0,0.0,0.0,0.0,0.0,0.0,0.0,0.0,0.0,-1.5484,-1.5799,0.0,0.0,0.0,0.0,-1.9109,-1.7355,-1.6212,-1.6325,-1.6437,-1.8561,-2.3102,-2.3357,-2.34,-2.34,-2.5354,-2.6472,-2.6691,-2.6691,-2.6691,-2.6691,-2.6691,-2.6641,-2.6436,-2.4455,-2.3595,-2.3595,-2.346,-2.1934,-1.9497,-1.7463,-1.6595,-1.65,-1.65,-1.7787,-1.9548,0.0,0.0,0.0,-0.5776,-0.6118,-0.6622,-0.7594,-0.7996,-0.8391,-0.8986,-0.9371,-0.9734,-1.0146,-1.0974,-1.1586,-1.184,-1.2305,-1.2372,-1.1891,-1.1195,-1.1025,-1.1596,-1.0867,-1.1273,-1.2994,-1.3962,-1.4969,-1.601,-1.734,-1.8117,-1.8341,-1.8792,-1.8986,-1.8986,-1.8986,-1.8612,-1.7908,-1.6577,-1.5304,-1.4089,-1.2931,-1.1834,0.0,0.0,0.0,0.0,0.0,0.0,0.0,0.0,0.0,0.0,0.0,0.0,0.0,0.0,0.0,0.0,0.0,0.0,0.0,0.0,0.0,0.0,0.0,0.0,0.0,0.0,0.0,0.0,0.0,0.0,0.0,0.0,0.0,0.0,0.0,0.0,0.0,-1.8,-1.6817,0.0,-1.8812,-1.8583,-1.8689,-1.9633,-1.7706,-1.7843,-2.0912,-2.1062,-2.1859,-2.3543,-2.3595,-2.423,-2.5584,-2.6333,-2.6691,-2.6691,-2.6691,-2.6691,-2.6691,-2.6691,-2.6691,-2.6573,-2.45,-2.4567,-2.6042,-2.4313,-2.3056,-2.2127,-2.1376,-2.1062,-2.1062,-2.1062,-2.2393,-2.4192,-0.5104,-0.5106,0.0,-0.6161,-0.6542,-0.7166,-0.8441,-0.8862,-0.9152,-0.9496,-1.0041,-1.044,-1.0561,-1.1605,-1.2398,-1.266,-1.3125,-1.3185,-1.2711,-1.1949,-1.1758,-1.2341,-1.2135,-1.2913,-1.4857,-1.5657,-1.647,-1.7369,-1.8493,-1.9031,-1.9046,-1.9498,-1.9708,-1.9708,-1.9708,-1.9453,-1.8972,-1.8087,-1.6832,-1.5352,-1.4498,-1.356,-1.2561,0.0,0.0,0.0,0.0,0.0,0.0,0.0,0.0,0.0,0.0,0.0,0.0,0.0,0.0,0.0,0.0,0.0,0.0,0.0,0.0,0.0,0.0,0.0,0.0,0.0,0.0,0.0,0.0,0.0,0.0,0.0,0.0,0.0,0.0,-1.5891,-1.7761,-1.9498,-1.8165,-1.7791,-1.9528,-2.0501,-2.1026,-2.1026,-1.9697,-2.0272,-2.344,-2.3595,-2.3595,-2.3595,-2.5273,-2.6816,-2.8213,-2.8213,-2.8213,-2.8213,-2.8213,-2.8213,-2.8213,-2.8213,-2.8213,-2.8143,-2.6756,-2.6717,-2.7465,-2.5683,-2.5435,-2.5984,-2.4271,-2.4032,-2.4641,-2.4641,-2.551,-2.6691,-0.5104,-0.5125,-0.5391,-0.6199,-0.7063,-0.7891,-0.8634,-0.9406,-0.9838,-0.9621,-1.0084,-1.0668,-1.1259,-1.1926,-1.2634,-1.3337,-1.3413,-1.3413,-1.3396,-1.2711,-1.2338,-1.2398,-1.3381,-1.4481,-1.5624,-1.7308,-1.8339,-1.8749,-1.9411,-1.9711,-1.9708,-1.9708,-1.9708,-1.9708,-1.9708,-1.9708,-1.9708,-1.9708,-1.8583,-1.6681,-1.5426,-1.4979,-1.4794,0.0,0.0,0.0,0.0,0.0,0.0,0.0,0.0,0.0,0.0,0.0,0.0,0.0,0.0,0.0,0.0,0.0,0.0,0.0,0.0,0.0,0.0,0.0,0.0,0.0,0.0,0.0,0.0,0.0,0.0,0.0,0.0,0.0,-1.6278,-1.8105,-1.9708,-1.9708,-1.9768,-1.9828,-1.9828,-2.2099,-2.3595,-2.3595,-2.3595,-2.364,-2.3714,-2.3714,-2.3714,-2.3714,-2.8592,-3.119,-3.119,-3.119,-3.119,-3.119,-3.119,-3.119,-3.119,-3.119,-3.119,-3.119,-3.119,-2.9832,-2.7625,-2.7685,-2.9095,-3.0709,-2.5769,-2.5064,-2.6826,-2.6826,-2.6826,-2.6843,-0.5102,-0.5578,-0.6241,-0.7103,-0.7965,-0.879,-0.9522,-0.9792,-0.9838,-0.9621,-1.053,-1.1282,-1.1481,-1.2547,-1.3324,-1.3531,-1.3688,-1.3667,-1.3413,-1.2793,-1.3117,-1.4623,-1.6271,-1.7756,-1.9099,-1.9358,-1.961,-1.9865,-2.0049,-1.9982,-1.9708,-1.9708,-1.9708,-1.9708,-1.9708,-1.9708,-1.9708,-1.9708,-1.9393,-1.8807,-1.7969,-1.7181,-1.6473,0.0,0.0,0.0,0.0,0.0,0.0,0.0,0.0,0.0,0.0,0.0,0.0,0.0,0.0,0.0,0.0,0.0,0.0,0.0,0.0,0.0,0.0,0.0,0.0,0.0,0.0,0.0,0.0,0.0,0.0,0.0,-1.8749,-1.9453,-1.8734,-1.9258,-1.9708,-1.9708,-2.1365,-2.2517,-2.2517,-2.3176,-2.3595,-2.3595,-2.3595,-2.4448,-2.6402,-2.6507,-2.6507,-2.6507,-2.9554,-3.119,-3.119,-3.119,-3.119,-3.119,-3.119,-3.119,-3.119,-3.119,-3.119,-3.119,-3.119,-2.9832,-2.7735,-2.9502,-3.0601,-3.1067,-2.9663,-2.9462,-2.9956,-2.9956,-2.9956,-2.9634,-0.5582,-0.5997,-0.6695,-0.7926,-0.8558,-0.916,-0.9921,-0.9965,-0.986,-0.9744,-1.0823,-1.1635,-1.167,-1.2908,-1.3739,-1.3739,-1.4138,-1.4186,-1.3638,-1.3811,-1.4701,-1.6451,0.0,-1.9358,-2.0477,-2.0453,-2.0384,-2.0297,-2.0297,-2.0089,-1.9708,-1.9708,-1.9708,-1.9708,-1.9708,-1.9708,-1.9708,-1.9708,-1.9708,-1.9678,-1.9271,-1.8847,-1.8439,-1.839,-1.7242,-1.5621,-1.5335,-1.524,-1.4979,-1.3219,0.0,0.0,0.0,0.0,0.0,0.0,0.0,0.0,0.0,0.0,0.0,0.0,0.0,0.0,0.0,0.0,0.0,0.0,0.0,0.0,0.0,0.0,0.0,0.0,-2.0621,-2.1321,-2.1321,-2.1321,-2.1321,-2.1321,-2.2682,-2.3595,-2.3595,-2.4394,-2.5413,-2.6686,-2.5845,-2.5967,-2.751,-2.76,-2.76,-2.76,-2.994,-3.119,-3.119,-3.119,-3.119,-3.119,-3.119,-3.119,-3.119,-3.119,-3.119,-3.119,-3.119,-3.0398,-2.9232,-3.0621,-3.119,-3.119,0.0,0.0,0.0,0.0,-3.119,-3.0954,-0.6372,-0.6573,-0.7078,-0.8631,-0.8977,-0.9285,-0.9998,-0.9996,-0.9904,-0.9893,-1.0939,-1.1672,-1.1695,-1.2972,-1.3793,-1.3793,-1.4649,-1.488,-1.4214,-1.5418,-1.6691,-1.7862,-1.8996,-1.9959,-2.0697,-2.0982,-2.0926,-2.0449,-2.0399,-2.0176,-1.9764,-1.9711,-1.9708,-1.9708,-1.9708,-1.9708,-1.9708,-1.9708,-1.9708,-1.9693,-1.9747,-1.9982,-2.0238,-1.9531,-1.9167,-1.8959,-1.8297,-1.7935,-1.78,-1.78,0.0,0.0,0.0,0.0,0.0,0.0,0.0,0.0,0.0,0.0,0.0,0.0,0.0,0.0,0.0,0.0,0.0,0.0,0.0,0.0,0.0,0.0,0.0,0.0,-2.1889,-2.3595,-2.3595,-2.3595,-2.3595,-2.3595,-2.3595,-2.3714,-2.4014,-2.5712,-2.792,-3.058,-2.8818,-2.76,-2.76,-2.76,0.0,0.0,0.0,-3.119,-3.119,-3.119,-3.119,-3.119,-3.1529,-3.1698,-3.1698,-3.1698,-3.1512,-3.119,-3.119,-3.119,-3.119,-3.119,-3.119,-3.119,-3.119,-3.119,-3.119,-3.119,-3.119,-3.119,-0.7272,-0.7966,-0.8497,-0.8843,-0.944,-0.9921,-1.0075,-1.002,-0.9971,-0.9902,-1.0485,-1.094,-1.1064,-1.2328,-1.3172,-1.3172,-1.4652,-1.5657,0.0,0.0,-1.8027,-1.8652,-2.0081,-2.1201,-2.1945,-2.2025,-2.1825,-2.1337,-2.1023,-2.0616,-2.0193,-1.9856,-1.9708,-1.9708,-1.9708,-1.9708,-1.9708,-1.9708,-1.9708,-1.9744,-2.0037,-2.0229,-2.027,-1.9909,-2.0098,-2.0492,-1.9827,-1.8814,-1.78,-1.78,-1.78,-1.7597,-1.6431,0.0,0.0,0.0,0.0,0.0,0.0,0.0,0.0,0.0,0.0,0.0,0.0,0.0,0.0,0.0,0.0,0.0,0.0,0.0,0.0,-1.9618,-2.1889,-2.3595,-2.3595,-2.3595,-2.3595,-2.3595,-2.3595,-2.4448,-2.6626,-2.7178,-2.7663,-2.8258,-2.787,-2.76,-2.76,-2.76,-2.76,-2.76,-2.994,-3.119,-3.119,-3.119,-3.119,-3.1224,-3.3605,0.0,-3.4737,-3.4737,-3.3457,-3.119,-3.119,-3.119,-3.119,-3.119,-3.119,-3.119,-3.119,-3.119,-3.119,-3.119,-3.119,-3.119,-0.8795,-0.8919,-0.9035,-0.9421,-0.9825,-1.0094,-1.0094,-1.0031,-0.9982,-0.9963,-1.0502,-1.0929,-1.0982,-1.1999,-1.2658,-1.2658,-1.4185,0.0,0.0,-1.834,-1.9238,-2.0018,-2.1126,-2.1921,-2.2279,-2.2296,-2.2077,-2.1597,-2.1399,-2.1086,-2.0649,-2.0431,-2.0345,-2.0345,-2.0104,-2.0,-1.9982,-1.9782,-1.9708,-1.9744,-2.0141,-2.0449,-2.0667,-2.0732,-2.1137,-2.1607,-2.1264,-2.0673,-1.9811,-1.8307,-1.78,-1.78,-1.78,-1.6796,-1.5308,0.0,0.0,0.0,0.0,0.0,0.0,0.0,0.0,0.0,0.0,0.0,0.0,0.0,0.0,-1.815,-1.9468,0.0,-2.1635,-2.1635,-2.3864,-2.5608,-2.5608,-2.5608,-2.5608,-2.5608,-2.5608,-2.6132,-2.7465,-2.76,-2.76,-2.76,-2.76,-2.76,-2.76,-2.76,-2.76,-2.76,-3.1371,-3.3406,-3.3406,-3.3406,-3.3406,-3.3423,-3.489,-3.56,-3.56,-3.56,-3.4788,-3.3406,-3.3406,-3.3406,-3.3406,-3.3406,-3.2527,-3.119,-3.119,-3.119,-3.119,-3.119,-3.119,-3.119,-1.0031,-0.9637,-0.9348,-0.9983,-1.0094,-1.0094,-1.0094,-1.004,-1.0008,-0.9997,-1.0518,-1.0876,-1.0878,-1.158,-1.2241,0.0,0.0,0.0,0.0,-1.9351,-2.0251,-2.1166,-2.1904,-2.2296,-2.2296,-2.2296,-2.2106,-2.1749,-2.1627,-2.143,-2.1102,-2.1039,-2.0991,-2.0975,-2.06,-2.0433,-2.0416,-2.0087,-1.9945,-1.998,-2.0382,-2.0781,-2.115,-2.1583,-2.1957,-2.2296,-2.2296,-2.2296,-2.1924,-1.949,-1.8273,-1.78,-1.78,-1.78,-1.7326,-1.4945,-1.3853,0.0,0.0,0.0,0.0,0.0,0.0,0.0,0.0,0.0,-1.9708,-1.9708,-2.0112,-2.0471,-2.0471,-2.2173,-2.3774,-2.4283,-2.6192,-2.76,-2.76,-2.76,-2.76,-2.76,-2.76,-2.76,-2.76,-2.76,-2.76,-2.76,-2.8027,-2.833,-2.8359,-2.8364,-2.8364,-2.8364,-3.3052,-3.56,-3.56,-3.56,-3.56,-3.56,-3.56,-3.56,-3.56,-3.56,-3.56,-3.56,-3.56,-3.56,-3.56,-3.56,-3.4218,-3.2053,-3.2053,-3.1698,-3.119,-3.119,-3.119,-3.119,-1.0049,-1.0129,-1.0051,-1.0092,-1.0094,-1.0094,-1.0094,-1.009,-1.007,-1.0001,-1.0063,-1.0106,-1.0031,-1.0747,-1.2068,-1.4164,0.0,0.0,-1.8379,-1.9854,-2.0831,-2.1183,-2.1904,-2.2296,-2.2296,-2.2296,-2.2265,-2.2223,-2.1794,-2.1582,-2.1521,-2.1166,-2.0991,-2.0991,-2.0943,-2.0926,-2.091,-2.0862,-2.0845,-2.0878,-2.129,-2.1491,-2.1582,-2.2063,-2.2237,-2.2296,-2.2296,-2.2296,-2.2245,-2.1907,-2.0014,-1.78,-1.78,-1.78,-1.7732,-1.7394,0.0,-1.3963,-1.661,-1.9017,-2.0889,-2.1214,-2.0636,-1.981,0.0,0.0,-1.9708,-1.9708,-2.1565,-2.3161,-2.3161,-2.34,-2.4373,-2.6761,-2.7405,-2.76,-2.76,-2.76,-2.76,-2.76,-2.76,-2.76,-2.76,-2.76,-2.76,-2.76,-2.9591,-3.0885,-3.1069,-3.1062,-3.1062,-3.1062,-3.4023,-3.56,-3.56,-3.56,-3.56,-3.56,-3.56,-3.56,-3.56,-3.56,-3.56,-3.56,-3.56,-3.56,-3.56,-3.56,-3.5414,-3.5109,-3.5109,-3.3508,-3.119,-3.119,-3.119,-3.119,-1.015,-1.0202,-1.0188,-1.0163,-1.0154,-1.0168,-1.0165,-1.0162,-1.0126,-1.0072,-1.0063,-1.0052,-1.0023,-1.0318,-1.1257,-1.3092,-1.4432,-1.5974,-1.7905,-1.977,-2.0964,-2.1349,-2.197,-2.2296,-2.2296,-2.2296,-2.2296,-2.2296,-2.2106,-2.2003,-2.2003,-2.184,-2.1751,-2.1736,-2.1477,-2.1353,-2.1337,-2.1102,-2.0991,-2.1039,-2.143,-2.1597,-2.1657,-2.2289,-2.244,-2.2296,-2.2296,-2.2296,0.0,0.0,-1.971,-1.8672,-1.8672,-1.8275,-1.78,-1.78,-1.6931,0.0,-1.9608,-2.0048,-1.9859,0.0,-2.0243,-2.0112,-2.162,-2.1964,-2.1964,-2.1964,-2.2832,-2.3595,-2.3595,-2.6036,-2.7934,0.0,-2.76,-2.76,-2.76,-2.76,-2.76,-2.76,-2.76,-2.76,-2.76,-2.76,-2.8244,-2.9759,-3.0799,-3.1415,-3.1493,-3.1511,-3.1511,-3.1511,-3.4161,-3.56,-3.56,-3.56,-3.56,-3.56,-3.56,-3.56,-3.56,-3.56,-3.56,-3.56,-3.56,-3.56,-3.56,-3.56,-3.56,-3.56,-3.56,-3.4839,-3.3558,-3.1833,-3.119,-3.119,-1.0231,-1.023,-1.0228,-1.0235,-1.0233,-1.0225,-1.019,-1.0197,-1.018,-1.0124,-1.0104,-1.0094,-1.0094,-1.0094,-1.0615,-1.1882,-1.3449,-1.5221,-1.7263,-1.914,-2.0554,-2.146,-2.1816,0.0,-2.2296,-2.2296,-2.2296,-2.2296,-2.2296,-2.2296,-2.2296,-2.2296,-2.2296,-2.2282,-2.1943,-2.1794,-2.1779,-2.1477,-2.1354,-2.1369,-2.1675,-2.1851,-2.1943,-2.2262,-2.244,-2.2535,-2.2363,-2.2296,0.0,0.0,-1.9297,-1.9297,-1.9297,-1.8607,-1.78,-1.78,-1.8391,-1.9524,-2.1705,0.0,0.0,-2.037,-2.0786,-2.1261,-2.3161,-2.3595,-2.3595,-2.3595,-2.4193,-2.4919,-2.5569,-2.8702,-3.0621,-2.8888,-2.8027,-2.76,-2.76,-2.76,-2.76,-2.76,-2.76,-2.76,-2.76,-2.76,-2.8667,-3.1301,-3.1511,-3.1511,-3.1511,-3.1511,-3.1511,-3.1511,-3.4161,-3.56,-3.56,-3.56,-3.56,-3.56,-3.56,-3.56,-3.56,-3.56,-3.56,-3.56,-3.56,-3.56,-3.56,-3.56,-3.56,-3.56,-3.56,-3.56,-3.5346,-3.3203,-3.2408,-3.2408,-1.0293,-1.0293,-1.0293,-1.0293,-1.0293,-1.0271,-1.0201,-1.0192,-1.019,-1.0209,-1.0149,-1.0094,-1.0094,-1.0094,-1.0406,-1.117,-1.2648,-1.4421,-1.6501,-1.7853,-1.9447,-2.1409,-2.1331,-2.158,-2.2279,-2.2296,-2.2296,-2.2296,-2.2296,-2.2296,-2.2296,-2.2296,-2.2296,-2.2296,-2.2282,-2.2282,-2.2282,-2.2268,-2.2268,-2.2268,-2.2265,-2.2436,-2.2583,-2.1823,-2.2232,-2.3099,-2.2508,0.0,0.0,0.0,-1.9297,-1.9297,-1.9297,-1.8607,0.0,-1.78,-1.9862,0.0,0.0,0.0,-2.0272,-2.2838,-2.3475,-2.3505,-2.358,-2.3595,-2.3595,-2.3595,-2.5683,-2.8205,-3.0546,-3.1103,-3.1171,-3.1095,-2.9141,-2.76,-2.76,-2.76,-2.76,-2.76,-2.76,-2.76,-2.76,-2.76,-2.8667,-3.1301,-3.1511,-3.1511,-3.1511,-3.1511,-3.1511,-3.1511,-3.4161,-3.56,-3.56,-3.56,-3.56,-3.56,-3.56,-3.56,-3.56,-3.56,-3.56,-3.56,-3.56,-3.56,-3.56,-3.56,-3.56,-3.56,-3.56,-3.56,-3.5583,-3.5498,-3.5464,-3.5464,-1.0293,-1.0293,-1.0293,-1.0293,-1.0293,-1.0293,-1.027,-1.0229,-1.0195,-1.0194,-1.0149,0.0,0.0,0.0,0.0,0.0,-1.2162,-1.3488,-1.5158,-1.7015,-1.8565,-1.9712,-2.083,-2.1516,-2.176,-2.2119,-2.2296,-2.2296,-2.2296,-2.2296,-2.2296,-2.2296,-2.2296,-2.2296,-2.2296,-2.2296,-2.2296,-2.2296,-2.2398,-2.2577,-2.2577,-2.2751,-2.301,-2.2882,-2.2316,-2.1781,0.0,0.0,0.0,0.0,-1.7876,-1.65,-1.8636,0.0,0.0,-2.02,0.0,-2.2296,0.0,0.0,-2.2503,-2.337,-2.3595,-2.4059,-2.5848,-2.4889,-2.4557,-2.7956,-2.776,-2.7243,-2.8055,-2.8197,-2.8856,-3.0869,-2.9171,-2.8214,-2.9953,-2.8682,-2.76,-2.76,-2.76,-2.76,-2.76,-2.76,-2.7959,-2.8846,-3.0509,-3.1511,-3.1511,-3.1511,-3.2324,-3.4161,-3.5115,-3.56,-3.56,-3.56,-3.56,-3.56,-3.56,-3.56,-3.56,-3.56,-3.56,-3.56,-3.56,-3.56,-3.56,-3.56,-3.56,-3.56,-3.56,-3.56,-3.56,-3.56,-3.56,-3.56,-1.0293,-1.0293,-1.0293,-1.0293,-1.0293,0.0,0.0,0.0,0.0,0.0,0.0,0.0,0.0,0.0,0.0,0.0,0.0,-1.25,-1.3728,-1.5514,-1.6974,-1.803,-1.9323,-2.0119,-2.0397,-2.0742,-2.1049,-2.1349,-2.1349,-2.1481,-2.1764,-2.1764,-2.1764,-2.1764,-2.1764,-2.1919,-2.2172,-2.1885,-2.2026,-2.2424,-2.2182,-2.211,-2.2153,-2.2386,-2.2371,0.0,0.0,0.0,0.0,0.0,0.0,0.0,0.0,0.0,0.0,0.0,-2.2296,-2.2356,-2.2688,-2.3172,-2.3595,-2.3595,-2.4313,-2.5488,-2.721,-2.6267,-2.5903,-2.8951,-2.8044,-2.6691,-2.6691,-2.6691,-2.7334,-2.9279,-2.8475,-2.8502,-3.1137,-2.925,-2.7944,-2.8876,-2.8184,-2.7974,0.0,-2.8981,-2.8618,-2.766,-3.0928,-3.2528,-3.1553,-3.1511,-3.2756,-3.5515,-3.56,-3.56,-3.56,-3.56,-3.56,-3.56,-3.56,-3.56,-3.56,-3.56,-3.56,-3.56,-3.56,-3.56,-3.56,-3.56,-3.56,-3.56,-3.56,-3.56,-3.56,-3.56,-3.56,-3.56,-1.0293,-1.0293,-1.0293,0.0,0.0,0.0,0.0,0.0,0.0,0.0,0.0,0.0,0.0,0.0,0.0,0.0,0.0,0.0,-1.228,0.0,0.0,-1.6428,-1.699,-1.7618,-1.8352,-1.8403,-1.8773,-1.9552,-1.9552,-1.9942,-2.0678,-2.0678,-2.0689,-2.07,-2.07,-2.1117,-2.1775,-2.1011,-2.1138,-2.1801,-2.1167,-2.0617,-2.0202,-2.0455,0.0,0.0,0.0,0.0,0.0,0.0,0.0,0.0,0.0,0.0,0.0,0.0,0.0,-2.2704,-2.356,-2.3804,-2.3804,-2.3804,-2.5728,-2.76,-2.76,-2.758,-2.7396,-2.6829,-2.6573,-2.6471,-2.6471,0.0,-2.6455,-2.6354,-2.7056,-2.8502,-3.1137,-2.9355,-2.8712,0.0,0.0,0.0,0.0,0.0,0.0,-2.7989,-3.2497,-3.4235,-3.164,-3.1511,-3.2756,-3.5515,-3.56,-3.56,-3.56,-3.56,-3.56,-3.56,-3.56,-3.56,-3.56,-3.56,-3.56,-3.56,-3.56,-3.56,-3.56,-3.56,-3.56,-3.56,-3.56,-3.56,-3.56,-3.56,-3.56,-3.56,0.0,0.0,0.0,0.0,0.0,0.0,0.0,0.0,0.0,0.0,0.0,0.0,0.0,0.0,0.0,0.0,0.0,0.0,0.0,0.0,0.0,0.0,0.0,0.0,-1.794,-1.8342,0.0,0.0,0.0,-1.8911,-1.9019,-1.9019,-1.9064,0.0,-1.9158,-1.9295,-1.9533,-1.9318,-1.9497,-1.9895,0.0,-1.9741,-1.9826,0.0,0.0,0.0,0.0,0.0,0.0,0.0,0.0,0.0,0.0,0.0,-2.1299,0.0,0.0,-2.5711,-2.6397,-2.6581,-2.6581,-2.6581,-2.7091,-2.76,-2.76,-2.7246,-2.6889,-2.6724,-2.4949,-2.3412,-2.3412,-2.3412,0.0,-2.1687,-2.4922,0.0,-3.1137,-3.0928,0.0,-3.1421,0.0,-3.0763,-3.1436,-3.1511,0.0,-3.0554,-3.1775,-3.2256,-3.1539,-3.1511,-3.2756,-3.5515,-3.56,-3.56,-3.56,-3.56,-3.56,-3.56,-3.56,-3.56,-3.56,-3.56,-3.56,-3.56,-3.56,-3.56,-3.56,-3.56,-3.56,-3.56,-3.56,-3.56,-3.56,-3.56,-3.56,-3.56,0.0,0.0,0.0,0.0,0.0,0.0,0.0,0.0,0.0,0.0,0.0,0.0,0.0,0.0,0.0,0.0,0.0,0.0,0.0,0.0,0.0,0.0,0.0,0.0,-1.5386,-1.6061,0.0,0.0,0.0,0.0,0.0,-1.759,-1.7809,-1.7931,-1.7931,-1.8187,-1.8596,0.0,0.0,0.0,0.0,0.0,0.0,0.0,0.0,0.0,0.0,0.0,0.0,0.0,0.0,-2.0065,-2.1772,-2.319,-2.4051,-2.314,0.0,-2.5676,-2.7176,-2.76,-2.76,-2.76,-2.76,-2.7285,-2.6117,-2.6286,-2.6319,-2.5033,-2.3891,0.0,-2.2405,-2.1214,0.0,0.0,0.0,0.0,-3.1137,-3.1511,-3.1511,0.0,-3.0208,0.0,-3.1351,-3.1511,-3.1511,-3.1511,-3.261,-3.3297,-3.3297,-3.3297,-3.4605,-3.7469,-3.6276,-3.6037,-3.6944,-3.6964,-3.6504,-3.56,-3.56,-3.56,-3.56,-3.56,-3.56,-3.56,-3.56,-3.56,-3.56,-3.56,-3.56,-3.56,-3.56,-3.56,-3.56,-3.56,-3.56,-3.56,0.0,0.0,0.0,0.0,0.0,0.0,0.0,0.0,0.0,0.0,0.0,0.0,0.0,0.0,0.0,0.0,0.0,0.0,0.0,0.0,0.0,0.0,0.0,0.0,0.0,0.0,0.0,0.0,0.0,0.0,0.0,0.0,0.0,0.0,0.0,0.0,0.0,0.0,0.0,0.0,0.0,0.0,0.0,0.0,0.0,0.0,0.0,0.0,0.0,0.0,-2.0698,-2.2028,-2.235,-2.423,-2.5929,-2.4122,-2.3849,-2.4627,-2.6971,-2.76,-2.76,-2.76,-2.76,-2.6969,-2.4572,-2.5107,-2.5452,-2.3041,0.0,-2.3169,-2.1922,-1.9558,-1.9744,-2.5727,0.0,-2.8748,-3.0715,-3.1286,-3.1511,-3.1511,-2.8939,-2.8465,-3.1708,-3.2034,-3.2208,-3.2595,-3.4856,-3.6191,-3.6191,-3.6191,-3.7398,-4.0028,-3.7866,-3.7521,-3.9316,-3.8909,-3.7808,-3.6011,-3.5739,-3.56,-3.56,-3.56,-3.56,-3.56,-3.56,-3.56,-3.56,-3.56,-3.56,-3.56,-3.56,-3.56,-3.56,-3.56,-3.56,-3.56,0.0,0.0,0.0,0.0,0.0,0.0,0.0,0.0,0.0,0.0,0.0,0.0,0.0,0.0,0.0,0.0,0.0,0.0,0.0,0.0,0.0,0.0,0.0,0.0,0.0,0.0,0.0,0.0,0.0,0.0,0.0,0.0,0.0,0.0,0.0,0.0,0.0,0.0,0.0,0.0,0.0,0.0,0.0,0.0,0.0,0.0,0.0,0.0,0.0,0.0,-1.9892,-2.0538,-2.2683,-2.3733,-2.4074,-2.3724,-2.5166,-2.7001,-2.7465,-2.76,-2.76,-2.76,-2.76,-2.7335,-2.6384,-2.4542,0.0,0.0,-2.1881,-1.9829,-1.8773,-1.8155,-1.9744,-2.5727,0.0,0.0,0.0,0.0,-3.1511,0.0,0.0,0.0,-3.4528,-3.4816,0.0,-3.8437,-3.9051,-3.9334,-3.9334,-3.9334,-3.9571,-4.0079,-4.1428,-4.2285,-4.2653,-4.0029,-3.8515,-3.8133,-3.6422,-3.56,-3.56,-3.56,-3.56,-3.56,-3.56,-3.56,-3.56,-3.56,-3.56,-3.56,-3.56,-3.56,-3.56,-3.56,-3.56,-3.56,0.0,0.0,0.0,0.0,0.0,0.0,0.0,0.0,0.0,0.0,-1.1019,0.0,0.0,0.0,0.0,0.0,0.0,0.0,0.0,0.0,0.0,0.0,0.0,0.0,0.0,0.0,0.0,0.0,0.0,0.0,0.0,0.0,0.0,0.0,0.0,0.0,0.0,0.0,0.0,0.0,0.0,0.0,0.0,0.0,0.0,0.0,0.0,0.0,0.0,0.0,-1.7869,-2.0172,-2.2772,-2.3595,-2.3595,-2.3595,-2.5503,-2.76,-2.76,-2.76,-2.76,-2.76,-2.7349,-2.6647,-2.4843,0.0,0.0,0.0,-2.0399,-1.9154,-1.8672,0.0,0.0,0.0,0.0,0.0,0.0,0.0,0.0,0.0,0.0,0.0,0.0,-3.5504,-3.6768,-3.9876,-4.0096,-4.0096,-4.0096,-4.1223,-4.1877,-4.1877,-4.2922,-4.3515,-4.3515,-4.1956,-4.0359,-3.8676,-3.8185,-3.7127,-3.56,-3.56,-3.56,-3.56,-3.56,-3.56,-3.56,-3.56,-3.56,-3.56,-3.56,-3.56,-3.56,-3.56,-3.56,-3.56,0.0,0.0,0.0,0.0,0.0,0.0,0.0,0.0,-1.0621,-1.1558,-1.1479,-1.1419,-1.165,-1.0958,0.0,0.0,0.0,0.0,0.0,0.0,0.0,0.0,0.0,0.0,0.0,0.0,0.0,0.0,0.0,0.0,0.0,0.0,0.0,0.0,0.0,0.0,0.0,0.0,0.0,0.0,0.0,0.0,0.0,0.0,0.0,0.0,0.0,0.0,0.0,0.0,-1.6128,-1.8873,-2.1834,-2.2757,-2.2877,-2.343,-2.5076,-2.6866,-2.7435,-2.76,-2.76,-2.76,-2.6802,-2.5377,-2.2868,-2.1789,0.0,0.0,-1.9297,-1.9297,-1.9297,0.0,0.0,0.0,0.0,0.0,0.0,0.0,0.0,0.0,0.0,0.0,-3.5504,-3.5504,0.0,-3.9876,-4.0546,-4.0838,-4.0838,-4.2524,-4.3515,-4.3515,-4.3515,-4.3515,-4.3515,-4.3515,-4.2231,-3.9719,-3.9317,-3.7889,-3.56,-3.56,-3.56,-3.56,-3.56,-3.56,-3.56,-3.56,-3.56,-3.56,-3.56,-3.56,-3.56,-3.56,-3.56,-3.56,0.0,0.0,0.0,0.0,0.0,0.0,0.0,0.0,-1.1582,-1.2476,-1.1883,-1.1692,-1.2487,-1.1816,0.0,0.0,0.0,0.0,0.0,0.0,0.0,0.0,0.0,0.0,0.0,0.0,0.0,0.0,0.0,0.0,0.0,0.0,0.0,0.0,0.0,0.0,0.0,0.0,0.0,0.0,0.0,0.0,0.0,0.0,0.0,0.0,0.0,0.0,0.0,0.0,0.0,-1.4691,-1.8766,-2.0067,-2.0513,-2.2892,0.0,0.0,-2.6941,-2.76,-2.76,-2.76,-2.5741,-2.3617,-2.2551,0.0,0.0,-1.9152,-1.9297,-1.9297,-1.9297,-1.9554,0.0,0.0,0.0,-2.3049,0.0,0.0,0.0,0.0,0.0,0.0,-3.5504,-3.5504,-3.6768,-3.9876,-4.2024,-4.3196,-4.3196,-4.3392,-4.3515,-4.3515,-4.3515,-4.3515,-4.3515,-4.3515,-4.3349,-4.3003,-3.8273,-3.587,-3.56,-3.56,-3.56,-3.56,-3.56,-3.56,-3.56,-3.56,-3.56,-3.56,-3.56,-3.56,-3.56,-3.56,-3.56,-3.56,0.0,0.0,0.0,0.0,0.0,0.0,0.0,-1.0773,-1.0939,-1.1856,-1.1636,-1.1341,-1.1205,-1.1341,0.0,0.0,0.0,0.0,0.0,0.0,0.0,0.0,0.0,0.0,0.0,0.0,0.0,0.0,0.0,0.0,0.0,0.0,0.0,0.0,0.0,0.0,0.0,0.0,0.0,0.0,0.0,0.0,0.0,0.0,0.0,0.0,0.0,0.0,0.0,0.0,0.0,0.0,-1.8039,-1.8559,0.0,0.0,-2.4073,-2.5778,-2.72,-2.76,-2.7944,-2.9397,-2.7595,-2.4906,-2.2778,0.0,-1.8815,-1.9227,-1.9297,-1.9297,-1.9297,-1.9297,-1.9565,-2.0366,-2.1507,-2.2905,-2.4695,0.0,0.0,0.0,0.0,0.0,0.0,0.0,-3.7353,-4.1806,-4.2996,-4.3515,-4.3515,-4.3515,-4.3515,-4.3515,-4.2167,-4.1446,-4.1446,-4.1446,-4.1446,-4.1411,-3.7494,-3.56,-3.56,-3.56,-3.56,-3.56,-3.56,-3.56,-3.56,-3.56,-3.56,-3.56,-3.56,-3.56,-3.56,-3.56,-3.56,-3.56,0.0,0.0,0.0,0.0,0.0,0.0,-1.1016,-1.075,-1.0728,-1.1376,-1.1427,-1.1183,-1.0621,-1.0894,-1.0871,-1.0242,0.0,0.0,0.0,0.0,0.0,0.0,0.0,0.0,0.0,0.0,0.0,0.0,0.0,0.0,0.0,0.0,0.0,0.0,0.0,0.0,0.0,0.0,0.0,0.0,0.0,0.0,0.0,0.0,0.0,0.0,0.0,0.0,0.0,0.0,0.0,0.0,0.0,0.0,0.0,0.0,-2.3782,-2.5681,-2.6977,-2.7324,-2.7734,-2.944,-2.8264,-2.593,0.0,-2.0735,-1.9297,-1.9297,-1.9297,-1.9297,-1.9297,-1.9297,-1.9297,-1.9297,-2.0997,-2.3038,-2.5101,0.0,0.0,0.0,0.0,-3.4637,-3.5429,-3.6337,-3.8708,-4.3177,-4.3515,-4.3515,-4.3515,-4.3515,-4.3515,-4.3515,-4.1291,-4.0096,-4.0096,-4.0767,-4.1105,-4.107,-3.7986,-3.619,-3.56,-3.56,-3.56,-3.56,-3.56,-3.56,-3.56,-3.56,-3.56,-3.56,-3.56,-3.56,-3.56,-3.56,-3.56,-3.56,0.0,0.0,0.0,0.0,0.0,0.0,0.0,-1.0875,-1.1386,-1.1405,-1.1406,-1.1405,-1.1385,-1.0679,-1.0207,-1.0207,0.0,0.0,0.0,0.0,0.0,0.0,0.0,0.0,0.0,0.0,0.0,0.0,0.0,0.0,0.0,0.0,0.0,0.0,0.0,0.0,0.0,0.0,0.0,0.0,0.0,0.0,0.0,0.0,0.0,0.0,0.0,0.0,0.0,0.0,0.0,0.0,0.0,0.0,0.0,0.0,-2.2313,-2.2972,-2.5914,-2.6708,-2.6725,-2.6742,-2.6708,-2.593,0.0,-2.0735,-1.9297,-1.9297,-1.9297,-1.9297,-1.9297,-1.9297,-1.9297,-1.9297,-2.0997,-2.2313,-2.233,-2.0876,0.0,0.0,0.0,-3.2572,-3.525,-3.8246,-4.1013,-4.3339,-4.3515,-4.3515,-4.3515,-4.3515,-4.3515,-4.3515,-4.1291,-4.0096,-4.0096,-4.2346,-4.3462,-4.3425,-4.0198,-3.7578,-3.56,-3.56,-3.56,-3.56,-3.56,-3.56,-3.56,-3.56,-3.56,-3.56,-3.56,-3.56,-3.56,-3.56,-3.56,-3.56,0.0,0.0,0.0,0.0,0.0,0.0,0.0,0.0,-1.0461,-1.0512,-1.0509,-1.0529,-1.0563,-1.0347,-1.0207,-1.0207,0.0,0.0,0.0,0.0,0.0,0.0,0.0,0.0,0.0,0.0,0.0,0.0,0.0,0.0,0.0,0.0,0.0,0.0,0.0,0.0,0.0,0.0,0.0,0.0,0.0,0.0,0.0,0.0,0.0,0.0,0.0,0.0,0.0,0.0,0.0,0.0,0.0,0.0,0.0,-1.6279,-1.9496,-2.2499,-2.3444,-2.5169,-2.6691,-2.6691,-2.5186,-2.3688,-2.3613,-2.1361,-1.9297,-1.9297,-1.9297,-1.9297,-1.9297,-1.9297,-1.9297,-1.9297,-2.0997,0.0,0.0,0.0,0.0,0.0,-2.6692,-3.0582,-3.507,-3.8274,-4.1036,-4.3339,-4.3515,-4.3515,-4.3515,-4.3515,-4.3515,-4.3515,-4.1291,-4.0096,-4.0096,-4.2366,-4.3515,-4.346,-4.023,-3.7596,-3.56,-3.56,-3.56,-3.56,-3.56,-3.56,-3.56,-3.56,-3.56,-3.56,-3.56,-3.56,-3.56,-3.56,-3.56,-3.56,0.0,0.0,0.0,0.0,0.0,0.0,0.0,0.0,-0.9984,-1.0025,-1.0011,-1.004,-1.0089,-1.009,-1.0081,-1.0081,0.0,0.0,0.0,0.0,0.0,0.0,0.0,0.0,0.0,0.0,0.0,0.0,0.0,0.0,0.0,0.0,0.0,0.0,0.0,0.0,0.0,0.0,0.0,0.0,0.0,0.0,-1.4493,0.0,0.0,0.0,0.0,0.0,0.0,0.0,0.0,0.0,0.0,0.0,0.0,0.0,-1.6801,-1.9892,0.0,-2.3454,-2.3915,-2.3915,-2.2531,-2.1701,-2.3732,-2.1666,-1.9297,-1.9297,-1.9297,-1.9297,-1.9297,-1.9297,-1.9297,-1.9297,-2.1919,0.0,0.0,0.0,0.0,-2.6324,0.0,0.0,-3.519,-3.8274,-4.1036,-4.3339,-4.3515,-4.3515,-4.3515,-4.3515,-4.2945,-4.1717,-4.0319,-3.9195,-3.842,-3.9796,-4.0515,-4.0497,-3.849,-3.6847,-3.56,-3.56,-3.56,-3.56,-3.56,-3.56,0.0,-3.56,-3.56,-3.56,-3.56,-3.56,-3.56,-3.56,-3.56,-3.56,0.0,0.0,0.0,0.0,0.0,0.0,0.0,0.0,0.0,0.0,0.0,-0.9887,-0.9893,-0.9903,0.0,0.0,0.0,0.0,0.0,0.0,0.0,0.0,0.0,0.0,0.0,0.0,0.0,-1.3074,-1.3295,-1.3447,-1.3566,0.0,0.0,0.0,0.0,0.0,0.0,0.0,0.0,0.0,-1.3558,-1.4698,0.0,0.0,0.0,0.0,0.0,0.0,0.0,0.0,0.0,0.0,0.0,0.0,0.0,0.0,0.0,0.0,0.0,-2.1445,-1.9297,-1.9297,-1.9297,-2.0105,-2.3162,-2.15,0.0,-1.9297,-1.9297,-1.9297,-1.9297,-1.9297,-1.9282,-1.9201,-2.3236,0.0,0.0,0.0,0.0,0.0,-3.3678,-3.5269,-3.5478,-3.8237,-4.0974,-4.332,-4.3294,-4.3166,-4.3166,-4.3166,-4.1791,-3.8799,-3.8707,-3.7703,-3.5622,-3.56,-3.56,-3.56,-3.56,-3.56,-3.56,-3.56,-3.56,-3.56,-3.56,-3.56,-3.56,-3.56,-3.56,-3.56,-3.56,-3.56,-3.56,-3.56,-3.56,-3.56,0.0,0.0,0.0,0.0,0.0,0.0,0.0,0.0,0.0,0.0,0.0,-0.9847,-0.9887,-0.9891,0.0,0.0,0.0,0.0,0.0,0.0,0.0,0.0,0.0,0.0,0.0,0.0,0.0,-0.9964,-1.2262,-1.398,-1.5063,-1.4109,0.0,0.0,0.0,0.0,0.0,0.0,0.0,0.0,-1.0981,-1.2576,0.0,0.0,0.0,0.0,-1.0833,-1.2049,0.0,0.0,0.0,0.0,0.0,0.0,0.0,0.0,-1.4493,-1.4824,-1.6365,0.0,-1.9297,-1.9297,-1.9297,-1.9499,0.0,-1.9848,-1.9297,0.0,0.0,-1.9297,-1.9297,-1.9297,-1.9046,-1.8285,0.0,0.0,0.0,0.0,0.0,-3.1346,-3.2064,-3.3264,-3.5364,-3.7668,-4.0273,-4.3278,-4.1222,-3.9827,-3.9827,-3.9827,-3.9478,-3.8726,-3.8707,-3.7703,-3.5622,-3.56,-3.56,-3.56,-3.56,-3.56,-3.56,-3.56,-3.56,-3.56,-3.56,-3.56,-3.56,-3.56,-3.56,-3.56,-3.56,-3.56,-3.56,-3.56,-3.56,-3.56,0.0,0.0,0.0,0.0,0.0,0.0,0.0,0.0,0.0,0.0,0.0,0.0,0.0,0.0,0.0,0.0,0.0,0.0,0.0,0.0,0.0,0.0,0.0,0.0,0.0,0.0,0.0,0.0,0.0,-1.4505,0.0,0.0,0.0,0.0,0.0,0.0,0.0,0.0,0.0,0.0,-1.0094,0.0,0.0,0.0,0.0,0.0,-0.9417,-1.1089,0.0,-1.3396,-1.3396,-1.3396,0.0,0.0,0.0,0.0,-1.4493,-1.4493,-1.4493,-1.5759,-1.7105,-1.7105,-1.7105,-1.7105,-1.7105,0.0,0.0,0.0,0.0,0.0,-1.9297,0.0,0.0,0.0,-2.1231,0.0,0.0,0.0,0.0,-3.1511,-3.261,-3.3962,-3.5447,-3.7488,-3.9423,-4.1167,-3.968,-3.8707,-3.8707,-3.8707,-3.8707,-3.8707,-3.8707,-3.7703,-3.5622,-3.56,-3.56,-3.56,-3.56,-3.56,-3.56,-3.56,-3.56,-3.56,-3.56,-3.56,-3.56,-3.56,-3.56,-3.56,-3.56,-3.56,-3.56,-3.56,-3.56,-3.56,0.0,0.0,0.0,0.0,0.0,0.0,0.0,0.0,0.0,0.0,0.0,0.0,0.0,0.0,0.0,0.0,0.0,0.0,0.0,0.0,0.0,0.0,0.0,0.0,0.0,0.0,0.0,0.0,0.0,0.0,0.0,0.0,-1.8064,0.0,0.0,0.0,0.0,0.0,0.0,0.0,-1.0094,0.0,0.0,0.0,0.0,0.0,0.0,0.0,0.0,-1.3244,-1.3396,-1.3396,-1.3396,0.0,0.0,0.0,0.0,0.0,-1.4493,-1.4493,-1.4732,-1.5723,-1.5979,-1.5851,-1.5356,0.0,0.0,0.0,0.0,0.0,0.0,0.0,0.0,0.0,0.0,0.0,-2.7149,-2.9864,-3.1668,-3.2076,-3.4186,-3.56,-3.56,-3.7488,-3.8707,-3.8707,-3.8707,-3.8707,-3.8707,-3.8707,-3.8707,-3.8707,-3.8707,-3.7843,-3.6079,-3.5761,-3.56,-3.56,-3.56,-3.56,-3.56,-3.56,-3.56,-3.56,-3.56,-3.56,-3.56,-3.56,-3.56,-3.56,-3.56,-3.56,-3.56,-3.56,-3.56,-3.5532,0.0,0.0,0.0,0.0,0.0,0.0,0.0,0.0,0.0,0.0,0.0,0.0,0.0,0.0,0.0,0.0,0.0,0.0,0.0,0.0,0.0,0.0,0.0,0.0,0.0,0.0,0.0,0.0,0.0,0.0,-1.4133,-1.6627,-1.688,0.0,0.0,0.0,0.0,0.0,0.0,-1.0094,-1.0094,0.0,0.0,0.0,0.0,0.0,0.0,0.0,0.0,-1.2532,-1.3396,-1.3396,-1.3396,0.0,0.0,0.0,0.0,0.0,-1.4493,-1.4493,-1.5814,-2.1345,-2.2703,-2.1987,-1.9205,0.0,0.0,0.0,0.0,0.0,0.0,0.0,0.0,0.0,0.0,-2.6401,0.0,0.0,-3.2351,-3.4688,-3.5339,-3.56,-3.56,-3.7488,-3.8707,-3.8707,-3.8707,-3.8707,-3.8707,-3.8707,-3.8707,-3.8707,-3.8707,-3.8546,-3.8218,-3.6484,-3.56,-3.56,-3.56,-3.56,-3.56,-3.56,-3.56,-3.56,-3.56,-3.56,-3.56,-3.56,-3.56,-3.56,-3.56,-3.56,-3.56,-3.56,-3.56,-3.5245,0.0,0.0,0.0,0.0,0.0,0.0,0.0,0.0,0.0,0.0,0.0,0.0,0.0,0.0,0.0,0.0,0.0,0.0,0.0,0.0,0.0,0.0,0.0,0.0,0.0,0.0,0.0,0.0,0.0,-1.2609,-1.5774,-1.5941,-1.5479,-1.4364,0.0,0.0,0.0,0.0,0.0,-1.0094,0.0,0.0,0.0,0.0,0.0,0.0,0.0,0.0,0.0,0.0,-1.2041,-1.3396,-1.3396,0.0,0.0,0.0,0.0,0.0,-1.4493,-1.7062,-2.0464,-2.3456,-2.2868,-2.1629,-2.1886,0.0,0.0,0.0,0.0,0.0,0.0,0.0,-2.4038,-2.6689,0.0,-2.9797,-3.1646,-3.2965,-3.4186,-3.5447,-3.6586,-3.7285,-3.7285,-3.8152,-3.8707,-3.8707,-3.8707,-3.8707,-3.8707,-3.8707,-3.8707,-3.8707,-3.8707,-3.8707,-3.8707,-3.7755,-3.6709,-3.56,-3.56,-3.56,-3.56,-3.56,-3.56,-3.56,-3.56,-3.56,-3.56,-3.56,-3.56,-3.56,-3.56,-3.56,-3.5414,-3.3812,-3.3822,-3.4429,0.0,0.0,0.0,0.0,0.0,0.0,0.0,0.0,0.0,0.0,0.0,0.0,0.0,0.0,0.0,0.0,0.0,0.0,0.0,0.0,0.0,0.0,0.0,0.0,0.0,0.0,-0.9253,-0.9964,-1.0653,-1.3069,-1.6984,-1.5293,-1.4567,0.0,0.0,0.0,0.0,0.0,-1.0094,-1.009,0.0,0.0,0.0,0.0,0.0,0.0,0.0,0.0,0.0,0.0,0.0,0.0,0.0,0.0,0.0,-1.4288,-1.4493,-1.4493,-1.4493,-1.8151,-2.2116,-2.285,-2.1516,-2.0651,-2.319,0.0,0.0,0.0,0.0,0.0,0.0,-2.2854,0.0,-3.0345,-3.1782,-3.3186,-3.5946,-3.6336,-3.6336,-3.6336,-3.7738,-3.8707,-3.8707,-3.8707,-3.8707,-3.8707,-3.8707,-3.8707,-3.8707,-3.8707,-3.8707,-3.8707,-3.8707,-3.8707,-3.8707,-3.8707,-3.7667,-3.56,-3.56,-3.56,-3.56,-3.56,-3.56,-3.56,-3.56,-3.56,-3.56,-3.56,-3.56,-3.56,-3.56,-3.5177,-3.4346,-3.2481,-3.2663,-3.3807,0.0,0.0,0.0,0.0,0.0,0.0,0.0,0.0,0.0,0.0,0.0,0.0,0.0,0.0,0.0,0.0,0.0,0.0,0.0,0.0,0.0,0.0,0.0,0.0,0.0,-0.9159,-1.0263,-1.3074,-1.5815,-1.6338,-1.4733,-1.4574,-1.4738,-1.5005,0.0,0.0,0.0,0.0,0.0,-1.0078,-0.9822,0.0,0.0,0.0,0.0,0.0,0.0,0.0,0.0,0.0,0.0,0.0,0.0,0.0,-1.3544,-1.4288,-1.4493,-1.4493,-1.4493,-1.4842,-1.5924,-1.8911,-2.0873,0.0,-2.2381,-2.2446,0.0,-2.2446,0.0,0.0,0.0,-2.4543,-2.7435,-3.0666,-3.3508,-3.6015,-3.8183,-3.8483,-3.8483,-3.8483,-3.8611,-3.8707,-3.8707,-3.8707,-3.8707,-3.8707,-3.8707,-3.8707,-3.8707,-3.8707,-3.8707,-3.8707,-3.8707,-3.8707,-3.8707,-3.8707,-3.7667,-3.56,-3.56,-3.56,-3.56,-3.56,-3.56,-3.56,-3.56,-3.56,-3.56,-3.56,-3.56,-3.56,-3.56,-3.3931,-3.1679,-3.3099,-3.3694,-3.3807,0.0,0.0,0.0,0.0,0.0,0.0,0.0,0.0,0.0,0.0,0.0,0.0,0.0,0.0,0.0,0.0,0.0,0.0,0.0,0.0,0.0,0.0,0.0,-0.9964,-0.971,-1.1016,-1.2262,-1.3396,-1.4985,-1.5461,-1.4937,-1.4645,0.0,0.0,0.0,0.0,0.0,0.0,0.0,-1.0076,-0.9811,-0.9504,0.0,0.0,0.0,0.0,0.0,0.0,0.0,0.0,-1.0151,-1.1906,-1.3041,-1.3396,-1.3446,-1.3721,-1.3811,-1.392,-1.4387,-1.4493,-1.512,-1.7726,0.0,0.0,0.0,-2.2378,-2.5033,-2.5033,-2.5033,0.0,0.0,0.0,-2.7689,-3.07,-3.3052,-3.5457,-3.8303,-3.8707,-3.8707,-3.8707,-3.8707,-3.8707,-3.8707,-3.8707,-3.8707,-3.8707,-3.8707,-3.8707,-3.8707,-3.8707,-3.8707,-3.8707,-3.8707,-3.8707,-3.8707,-3.8707,-3.7667,-3.56,-3.56,-3.56,-3.56,-3.56,-3.4585,-3.2966,-3.4788,-3.56,-3.56,-3.56,-3.56,-3.5414,-3.3592,-3.2188,-3.1408,-3.3163,-3.3807,-3.3648,0.0,0.0,0.0,0.0,0.0,0.0,0.0,0.0,0.0,0.0,0.0,0.0,0.0,0.0,0.0,0.0,0.0,0.0,0.0,0.0,0.0,0.0,0.0,-0.989,-0.9706,-1.1365,-1.2614,-1.3396,-1.4296,-1.4896,-1.5186,0.0,0.0,0.0,0.0,0.0,0.0,0.0,0.0,0.0,-0.9767,-0.9381,0.0,0.0,0.0,0.0,0.0,0.0,0.0,0.0,-1.0263,-1.2143,-1.3108,-1.2753,-1.216,-1.3125,-1.3396,-1.3568,-1.4301,-1.4493,-1.5257,0.0,0.0,0.0,0.0,-2.3105,-2.6962,-2.7909,-2.8112,0.0,-2.8112,0.0,0.0,-3.1446,-3.3027,-3.4945,-3.8248,-3.8707,-3.8707,-3.8707,-3.8707,-3.8707,-3.8707,-3.8707,-3.8707,-3.8707,-3.8707,-3.8707,-3.8707,-3.8707,-3.8707,-3.8707,-3.8707,-3.8212,-3.7165,-3.7147,-3.6161,-3.4197,-3.4197,-3.4197,-3.4197,-3.4197,-3.3119,-3.1309,-3.3339,-3.4197,-3.4197,-3.4197,-3.4197,-3.4015,-3.1985,-3.119,-3.1332,-3.2549,-3.2978,-3.2807,0.0,0.0,0.0,0.0,0.0,0.0,0.0,0.0,0.0,0.0,0.0,0.0,0.0,0.0,0.0,0.0,0.0,0.0,0.0,0.0,0.0,0.0,0.0,-0.9706,-0.9706,-0.9746,-1.0961,-1.3421,-1.4607,-1.5192,-1.5192,-1.5173,0.0,0.0,0.0,0.0,0.0,0.0,0.0,0.0,-0.9702,-0.9381,-0.8829,0.0,0.0,0.0,0.0,0.0,0.0,0.0,-0.8897,-0.9422,-1.2414,-1.1337,-0.9536,-1.2531,-1.3405,-1.3576,-1.4379,-1.4585,-1.5825,0.0,0.0,0.0,0.0,-2.4611,-2.7571,-3.0581,0.0,-3.119,-3.1157,-2.8738,-2.8291,-3.3035,-3.3807,-3.4945,-3.8193,-3.8652,-3.8652,-3.8652,-3.8652,-3.8652,-3.8652,-3.8652,-3.8652,-3.8652,-3.8689,-3.8689,-3.8652,-3.8652,-3.8652,-3.8652,-3.8652,-3.7077,-3.3798,-3.3793,-3.2901,-3.119,-3.119,-3.119,-3.119,-3.119,-3.119,-3.119,-3.119,-3.119,-3.119,-3.119,-3.119,-3.119,-3.119,-3.119,-3.119,-3.119,-3.119,-3.119,0.0,0.0,0.0,0.0,0.0,0.0,0.0,0.0,0.0,0.0,0.0,0.0,0.0,0.0,0.0,0.0,0.0,0.0,0.0,0.0,0.0,0.0,0.0,0.0,0.0,0.0,-1.394,-1.4668,-1.5016,-1.5192,0.0,0.0,0.0,-1.3193,0.0,0.0,0.0,0.0,0.0,0.0,-0.9702,-0.9381,-0.8829,0.0,0.0,0.0,0.0,0.0,0.0,0.0,0.0,0.0,-0.9948,-1.1428,-1.301,-1.391,-1.4167,-1.5225,-2.003,-2.1327,0.0,0.0,0.0,0.0,0.0,-2.6065,0.0,0.0,-3.119,-3.0548,-2.8416,-2.9025,-3.0715,-3.3372,-3.3807,-3.4137,-3.511,-3.5257,-3.5257,-3.5257,-3.5257,-3.5257,-3.5257,-3.5257,-3.5257,-3.5257,-3.7386,-3.7698,-3.5385,-3.5257,-3.5257,-3.5257,-3.5257,-3.4199,-3.1986,-3.1986,-3.1714,-3.119,-3.119,-3.119,-3.119,-3.119,-3.119,-3.119,-3.119,-3.119,-3.119,-3.119,-3.119,-3.119,-3.119,-3.119,-3.119,-3.119,-3.119,-3.119,0.0,0.0,0.0,0.0,0.0,0.0,0.0,0.0,0.0,0.0,0.0,-0.9805,0.0,0.0,0.0,0.0,0.0,0.0,0.0,0.0,0.0,0.0,0.0,0.0,0.0,-1.2115,-1.3173,0.0,0.0,0.0,0.0,0.0,0.0,-1.4493,0.0,-1.4493,0.0,0.0,0.0,0.0,-0.9381,-0.9184,-0.8858,0.0,0.0,0.0,0.0,0.0,0.0,0.0,0.0,0.0,-0.9213,0.0,0.0,-1.6041,-1.5502,-1.5631,-2.0831,0.0,0.0,0.0,0.0,0.0,0.0,0.0,0.0,0.0,-3.175,-3.1685,-2.9851,-3.0999,-3.2582,-3.3634,-3.3807,-3.3807,-3.3807,-3.3807,-3.3807,-3.3807,-3.3807,-3.3807,-3.3807,-3.3807,-3.3807,-3.3807,-3.5624,-3.5899,-3.3917,-3.3807,-3.3807,-3.3807,-3.3807,-3.2963,-3.121,-3.119,-3.119,-3.119,-3.119,-3.119,-3.119,-3.119,-3.119,-3.119,-3.119,-3.1582,-3.223,-3.223,-3.1824,-3.119,-3.119,-3.119,-3.119,-3.119,-3.119,-3.119,0.0,0.0,-0.5085,-0.5095,0.0,0.0,0.0,0.0,0.0,0.0,0.0,-0.9822,0.0,0.0,0.0,-1.0292,0.0,0.0,0.0,0.0,0.0,0.0,0.0,0.0,0.0,0.0,0.0,0.0,0.0,0.0,0.0,0.0,-1.142,-1.4493,0.0,-1.4493,0.0,0.0,0.0,0.0,-0.8897,-0.8998,-0.9152,-0.8965,0.0,0.0,0.0,0.0,0.0,0.0,0.0,0.0,-0.9702,-1.1714,-1.464,-1.7571,-1.6775,-1.5576,-1.8507,0.0,0.0,0.0,0.0,0.0,0.0,0.0,-3.1249,-3.1408,0.0,-3.3807,-3.3807,-3.3807,-3.3807,-3.3807,-3.3807,-3.3807,-3.3807,-3.3807,-3.3807,-3.3807,-3.3807,-3.3807,-3.3807,-3.3807,-3.3807,-3.3807,-3.3807,-3.3807,-3.3807,-3.3807,-3.3807,-3.3807,-3.3807,-3.2963,-3.121,-3.119,-3.119,-3.119,-3.119,-3.119,-3.119,-3.119,-3.119,-3.121,-3.137,-3.2332,-3.3807,-3.3807,-3.287,-3.1428,-3.1252,-3.119,-3.119,-3.119,-3.119,-3.119,0.0,0.0,-0.4906,-0.5082,0.0,0.0,0.0,0.0,-1.0004,-1.0004,-1.0004,-1.0041,-1.009,-1.0094,0.0,-1.0292,-1.0175,0.0,0.0,0.0,0.0,0.0,0.0,0.0,0.0,0.0,0.0,0.0,0.0,0.0,0.0,0.0,0.0,-1.4493,0.0,-1.4493,0.0,0.0,0.0,-0.8897,-0.8897,-0.9812,-1.1014,-0.9475,-0.8897,0.0,0.0,0.0,0.0,0.0,0.0,0.0,-0.9702,-1.0176,-1.0874,-1.1553,-1.4854,-1.8416,0.0,-2.1188,0.0,0.0,0.0,0.0,0.0,0.0,-3.1582,-3.2947,-3.3532,-3.3807,-3.3807,-3.3807,-3.3807,-3.3807,-3.3807,-3.3807,-3.3807,-3.3807,-3.3807,-3.3807,-3.3807,-3.3807,-3.3807,-3.3807,-3.3807,-3.3807,-3.3807,-3.3807,-3.3807,-3.3807,-3.3807,-3.3807,-3.3807,-3.2963,-3.121,-3.119,-3.119,-3.119,-3.119,-3.119,-3.119,-3.119,-3.119,-3.1271,-3.2647,-3.3462,-3.3807,-3.3807,-3.3592,-3.3103,-3.1732,-3.119,-3.119,-3.119,-3.119,-3.119,0.0,0.0,0.0,0.0,0.0,0.0,0.0,0.0,-1.0094,-1.0094,-1.0094,-1.0094,-1.0094,-1.0154,0.0,0.0,-1.0175,-1.0094,0.0,0.0,0.0,0.0,0.0,0.0,0.0,0.0,0.0,0.0,0.0,0.0,0.0,0.0,0.0,-1.4493,0.0,-1.3631,0.0,0.0,0.0,-0.8897,-0.8897,-0.9501,-1.0303,-0.929,-0.8897,-0.8897,-0.8897,0.0,0.0,0.0,0.0,0.0,0.0,0.0,-0.9896,-0.9896,-1.343,-1.7616,0.0,0.0,0.0,0.0,0.0,0.0,0.0,-3.0377,-3.1677,-3.3447,-3.3807,-3.3807,-3.3807,-3.3807,-3.3807,-3.3807,-3.3807,-3.3807,-3.3807,-3.3807,-3.3807,-3.3807,-3.3807,-3.3807,-3.3807,-3.3807,-3.3807,-3.3807,-3.3807,-3.3807,-3.3807,-3.3807,-3.3807,-3.3807,-3.2978,-3.2127,-3.121,-3.119,-3.119,-3.119,-3.119,-3.119,-3.119,-3.119,-3.119,-3.1291,-3.3039,-3.3807,-3.3807,-3.3807,-3.3807,-3.362,-3.1878,-3.119,-3.119,-3.119,-3.119,-3.119,0.0,0.0,0.0,0.0,0.0,0.0,0.0,0.0,0.0,-1.0125,-1.0125,-1.0125,-1.0125,-1.0236,-1.0293,0.0,0.0,0.0,-1.0094,0.0,0.0,0.0,0.0,0.0,0.0,0.0,0.0,0.0,0.0,0.0,0.0,0.0,0.0,-1.5337,0.0,0.0,0.0,0.0,-0.8897,-0.8897,-0.8897,-0.8897,-0.8897,-0.8897,-0.8897,-0.8897,-0.8897,-0.8897,-0.8984,-0.9521,0.0,0.0,0.0,0.0,-1.0094,-1.0094,-1.2519,-1.5807,0.0,0.0,0.0,0.0,0.0,0.0,0.0,-2.8979,-3.1058,-3.332,-3.3807,-3.3807,-3.3807,-3.3807,-3.3807,-3.3807,-3.3807,-3.3807,-3.3807,-3.3807,-3.3807,-3.3807,-3.3807,-3.3807,-3.3807,-3.3807,-3.3807,-3.3807,-3.3807,-3.3807,-3.3807,-3.3807,-3.3807,-3.3807,-3.2109,-3.119,-3.119,-3.119,-3.119,-3.119,-3.119,-3.119,-3.119,-3.119,-3.119,-3.1291,-3.3039,-3.3807,-3.3807,-3.3807,-3.3807,-3.3648,-3.2196,-3.1657,-3.1601,-3.131,-3.1389,-3.1657,0.0,0.0,0.0,0.0,0.0,0.0,0.0,0.0,0.0,0.0,-1.0271,-1.0271,-1.0271,-1.0292,-1.0293,-1.0293,-1.0175,-1.0094,0.0,0.0,0.0,0.0,0.0,0.0,0.0,0.0,0.0,0.0,0.0,0.0,0.0,0.0,0.0,-1.8654,0.0,0.0,0.0,0.0,-0.8897,-0.8897,-0.8897,-0.8897,-0.8897,-0.8897,-0.8897,-0.8897,-0.8897,-0.8897,-0.8984,-0.9521,-0.9702,0.0,0.0,0.0,-1.0094,-1.0094,-1.2519,-1.5807,0.0,0.0,0.0,0.0,0.0,0.0,0.0,0.0,-2.8539,0.0,-3.3807,-3.3807,-3.3807,-3.3807,-3.3807,-3.3807,-3.3807,-3.3807,-3.3807,-3.3807,-3.3807,-3.3807,-3.3807,-3.3807,-3.3807,-3.3807,-3.3807,-3.3807,-3.3807,-3.3807,-3.3807,-3.3807,-3.3807,-3.3807,-3.2109,-3.119,-3.119,-3.119,-3.119,-3.119,-3.119,-3.119,-3.119,-3.119,-3.119,-3.1291,-3.3039,-3.3807,-3.3807,-3.3807,-3.3807,-3.3793,-3.3532,-3.3462,-3.3284,-3.175,-3.2161,-3.3462,0.0,0.0,0.0,0.0,0.0,0.0,0.0,0.0,0.0,0.0,0.0,-1.0293,-1.0293,-1.0236,-1.0185,-1.0185,-1.0125,0.0,0.0,0.0,0.0,0.0,0.0,0.0,0.0,0.0,0.0,0.0,0.0,0.0,0.0,-1.4267,-1.6435,0.0,0.0,0.0,0.0,0.0,0.0,-0.9326,-0.9027,-0.8897,-0.8897,-0.8897,-0.8897,-0.8897,-0.8897,-0.8897,-0.8936,-0.9164,-1.065,-1.2672,-1.4307,0.0,0.0,0.0,0.0,0.0,0.0,0.0,0.0,0.0,0.0,0.0,0.0,0.0,-2.8573,-3.0673,-3.1115,-3.1659,-3.3476,-3.3807,-3.3807,-3.3807,-3.3807,-3.3807,-3.3807,-3.3807,-3.3807,-3.3807,-3.3807,-3.3807,-3.3807,-3.3807,-3.3807,-3.3807,-3.3807,-3.3807,-3.3807,-3.3807,-3.3807,-3.3807,-3.3057,-3.2196,-3.121,-3.119,-3.119,-3.1173,-2.9482,-2.955,-3.123,-3.2196,-3.2663,-3.2695,-3.3476,-3.3807,-3.3807,-3.3807,-3.3807,-3.3807,-3.3807,-3.3807,-3.3707,-3.2932,-3.3148,-3.3807,0.0,0.0,0.0,0.0,0.0,0.0,0.0,0.0,0.0,0.0,0.0,-1.0244,-1.0244,0.0,0.0,0.0,-1.0094,0.0,0.0,0.0,0.0,0.0,0.0,0.0,0.0,0.0,0.0,0.0,0.0,0.0,-0.9613,-1.519,-1.7341,0.0,-1.5953,0.0,0.0,0.0,0.0,-0.9645,-0.9109,-0.8897,-0.9151,-1.1449,-1.089,-0.8897,-0.8897,-0.8897,-0.8919,-0.9047,-1.0962,-1.3411,-1.4237,-1.2476,0.0,0.0,0.0,0.0,0.0,0.0,0.0,0.0,0.0,0.0,0.0,0.0,-2.8425,-2.8425,-2.8725,-2.9739,-3.2137,-3.2577,-3.2577,-3.2577,-3.3275,-3.3807,-3.3807,-3.3807,-3.3807,-3.3807,-3.3807,-3.3807,-3.3807,-3.3807,-3.3807,-3.3807,-3.3807,-3.3807,-3.3807,-3.3807,-3.344,-3.2614,-3.2577,-3.1763,-3.0059,-3.0057,-3.0057,-3.0023,-2.7774,-2.8084,-3.0681,-3.1986,-3.3036,-3.3807,-3.3807,-3.3807,-3.3807,-3.3807,-3.3807,-3.3807,-3.3807,-3.3807,-3.3807,-3.3807,-3.3807,-3.3807,0.0,0.0,0.0,0.0,0.0,0.0,0.0,0.0,0.0,0.0,0.0,-1.0111,-1.0111,-1.0102,-1.0094,-1.0094,-1.0094,0.0,0.0,0.0,0.0,0.0,0.0,0.0,0.0,0.0,0.0,0.0,0.0,0.0,-0.9077,-1.5013,-1.9261,-2.181,-1.991,-1.733,-1.4428,0.0,0.0,-0.9645,-0.9109,-0.8897,-0.9823,-1.8369,-1.6323,-0.8897,-0.8897,-0.8897,0.0,0.0,-0.9793,-1.0488,-1.3539,-1.2476,-1.0094,0.0,0.0,0.0,0.0,0.0,0.0,0.0,0.0,0.0,0.0,0.0,-2.6824,-2.6824,-2.7988,-2.906,-2.9225,-2.9244,-2.9244,-2.9244,-3.1812,-3.3807,-3.3807,-3.3807,-3.3807,-3.3807,-3.3807,-3.3807,-3.3807,-3.3807,-3.3807,-3.3807,-3.3807,-3.3807,-3.3807,-3.3807,-3.2394,-2.9354,-2.9244,-2.8497,-2.6962,-2.6928,-2.6928,-2.6928,-2.6759,-2.7554,-2.9107,-2.9208,-3.0913,-3.3807,-3.3807,-3.3807,-3.3807,-3.3807,-3.3807,-3.3807,-3.3807,-3.3807,-3.3807,-3.3807,-3.3807,-3.3807,0.0,0.0,0.0,0.0,0.0,0.0,0.0,0.0,0.0,0.0,0.0,0.0,0.0,-1.0094,-1.0094,-1.0094,-0.9952,0.0,0.0,0.0,0.0,0.0,0.0,0.0,0.0,0.0,0.0,0.0,0.0,-0.9421,-0.9032,-1.5003,-1.8374,-1.921,-1.466,-1.4465,-1.7582,-1.7582,0.0,-0.9687,-0.9496,-1.2665,-1.7845,-2.1062,-2.0302,-1.7507,-1.7507,0.0,0.0,0.0,-1.2774,-1.2653,-1.1911,-1.0954,-1.0094,-1.0094,0.0,0.0,0.0,0.0,0.0,0.0,0.0,-2.5075,-2.5761,-2.4868,-2.4408,-2.6302,-2.7145,-2.7833,-2.8815,-2.9005,-2.9005,-2.9005,-2.9977,-3.0711,-3.0711,-3.0711,-3.0711,-3.0711,-3.0711,-3.0711,-3.0711,-3.0711,-3.0711,-3.0711,-3.0711,-3.0711,-3.0711,-3.0711,-3.0179,-2.9042,-2.9005,-2.8264,-2.6708,-2.6691,-2.6691,-2.6708,-2.7686,-2.8464,-2.9005,-2.9005,-2.9629,-3.0711,-3.0711,-3.1898,-3.3642,-3.1568,-3.1953,-3.3807,-3.3807,-3.3807,-3.3807,-3.3807,-3.3807,-3.3495,0.0,0.0,0.0,-0.9828,0.0,-1.0159,-1.0272,-1.0183,-1.007,-0.9986,0.0,0.0,0.0,0.0,-1.0065,-0.9964,-0.9805,0.0,0.0,0.0,0.0,0.0,0.0,0.0,0.0,0.0,0.0,0.0,0.0,0.0,0.0,-1.3036,-1.5358,-1.6164,-1.2436,-1.3352,0.0,0.0,0.0,-1.131,0.0,-1.572,-2.2296,-2.2296,-2.2296,-2.2296,-2.2296,0.0,0.0,0.0,-1.6267,-1.5899,-1.2793,-1.1017,-1.0094,-1.0094,-1.0094,0.0,-1.15,0.0,0.0,0.0,0.0,-2.3714,-2.4107,-2.3224,-2.2854,-2.4814,-2.522,-2.6001,-2.8524,-2.9005,-2.9005,-2.9005,-2.9005,-2.9005,-2.9005,-2.9005,-2.9005,-2.9005,-2.9005,-2.9005,-2.9005,-2.9005,-2.9005,-2.9005,-2.9005,-2.9005,-2.9005,-2.9005,-2.9005,-2.9005,-2.9005,-2.8264,-2.6708,-2.6691,-2.6954,-2.7482,-2.8502,-2.9005,-2.9005,-2.9005,-2.9005,-2.9005,-2.9005,-3.0216,-3.2027,-2.9886,-3.0253,-3.2302,-3.3385,-3.3807,-3.366,-3.2596,-3.2192,-3.188,-1.0094,-1.0094,-1.0094,-1.0094,-1.0094,-1.0141,-1.0273,-1.0181,-0.9994,-0.9732,0.0,0.0,0.0,0.0,0.0,-0.9714,-0.971,-0.9831,-1.0082,0.0,0.0,0.0,0.0,0.0,0.0,0.0,0.0,0.0,0.0,0.0,0.0,0.0,-1.0499,-1.3318,-1.4048,-1.4365,-1.4567,0.0,-1.7399,-1.4634,0.0,-1.7699,-2.2296,0.0,-2.2296,-2.2296,-2.2296,-2.2296,0.0,-2.0047,-1.9857,-1.9807,-1.6301,-1.2846,-1.0094,-1.0094,-1.01,0.0,0.0,0.0,0.0,0.0,0.0,0.0,-2.3351,0.0,-2.2296,-2.2296,-2.2338,-2.3682,-2.805,-2.8858,-2.8895,-2.8987,-2.9005,-2.9005,-2.9005,-2.9005,-2.9005,-2.9005,-2.9005,-2.9005,-2.9005,-2.9005,-2.9005,-2.9005,-2.9005,-2.9005,-2.9005,-2.9005,-2.9005,-2.9005,-2.9005,-2.8277,-2.6774,-2.6775,-2.7527,-2.9005,-2.9005,-2.9005,-2.9005,-2.9005,-2.9005,-2.9005,-2.9005,-2.9005,-2.9005,-2.9005,-2.9005,-2.9317,-3.2449,-3.366,-3.3275,-3.0143,-2.9005,-2.9005,-1.0094,-1.0094,-1.0094,-1.0094,-1.0094,-1.0116,-1.0147,-1.0112,-0.9994,0.0,0.0,0.0,-0.9702,-0.9757,-0.9777,-0.971,-0.9878,-1.0027,-1.009,-1.0094,-1.0094,-1.0094,0.0,0.0,0.0,0.0,0.0,0.0,0.0,0.0,0.0,0.0,0.0,0.0,-1.094,-1.1035,-1.1237,-1.4462,0.0,-1.7917,-1.7179,-1.907,0.0,0.0,0.0,0.0,0.0,-2.2296,-2.2217,-2.1661,-2.2208,-2.22,-1.6868,0.0,-1.0094,-1.0094,-1.0166,-1.0983,-1.4416,0.0,0.0,0.0,0.0,0.0,-1.7408,-1.9459,-2.2296,-2.2296,-2.303,-2.4053,-2.5295,-2.5529,-2.63,-2.862,-2.9005,-2.9005,-2.9005,-2.9005,-2.9005,-2.9005,-2.9005,-2.9005,-2.9005,-2.9005,-2.9005,-2.9005,-2.9005,-2.9005,-2.9005,-2.9005,-2.9005,-2.9005,-2.9005,-2.8803,-2.8373,-2.8355,-2.8583,-2.9005,-2.9005,-2.9005,-2.9005,-2.9005,-2.9005,-2.9005,-2.9005,-2.9005,-2.9005,-2.9005,-2.9005,-2.9097,-2.9977,-3.0326,-3.0216,-2.9335,-2.9005,-2.9005,-1.0181,-1.0181,-1.0181,-1.0181,-1.0181,-1.0167,-1.0103,-1.0013,-0.9878,0.0,0.0,0.0,-0.9702,-0.9702,-0.9747,-0.9857,-1.0018,-1.0094,-1.0094,-1.0094,-1.0094,-1.0094,-1.0094,-1.0148,0.0,0.0,0.0,0.0,0.0,0.0,0.0,0.0,0.0,0.0,-0.9702,-0.9702,-0.9827,-1.1696,0.0,0.0,-1.8979,0.0,0.0,-2.1823,-2.2296,-2.2296,-2.2296,-2.2296,-2.2296,-2.2296,-2.3152,-2.339,-1.8774,-1.4981,-1.2231,-1.2231,-1.2289,0.0,0.0,0.0,0.0,0.0,0.0,0.0,-1.4825,-1.726,-2.0161,-1.9247,-2.18,-2.419,-2.419,-2.4442,-2.5176,-2.6749,-2.726,-2.7958,-2.9373,-2.9259,-2.9005,-2.9005,-2.9005,-2.9005,-2.9005,-2.9005,-2.9005,-2.9005,-2.9005,-2.9005,-2.9005,-2.9005,-2.9005,-2.9005,-2.9005,-2.9005,-2.9005,-2.9005,-2.9005,-2.9005,-2.9005,-2.9005,-2.9005,-2.9005,-2.9005,-2.9005,-2.9005,-2.9005,-2.9005,-2.9005,-2.9005,-2.9005,-2.9005,-2.9005,-2.9005,-2.9005,-2.9005,-2.9005,0.0,-1.0293,-1.0293,-1.0293,-1.0292,-1.0351,-1.0558,-1.0381,-1.0102,0.0,-0.9936,-1.0284,-1.0723,-1.0493,-1.0417,-1.0656,-1.0325,-1.0094,-1.0094,-1.0094,-1.0094,-1.0094,-1.0094,-1.0094,-1.0094,0.0,0.0,0.0,0.0,0.0,0.0,0.0,0.0,0.0,-0.9702,-0.9702,-0.9702,-0.9702,-0.9421,-0.9817,-1.9312,-2.1275,0.0,0.0,-2.2296,-2.2296,-2.2296,-2.2296,-2.2296,-2.2296,-2.3152,-2.3786,-2.1479,-1.8452,-1.5846,-1.6212,-1.6058,0.0,-1.9689,-1.8213,0.0,-1.5769,-1.5404,0.0,-1.4585,-1.6296,-1.7418,-1.544,-1.9638,-2.3768,-2.4135,-2.4802,-2.5084,-2.4435,-2.4871,-2.6365,-2.9404,-2.9044,-2.8601,-2.8968,-2.9005,-2.9005,-2.9005,-2.9005,-2.9005,-2.9005,-2.9005,-2.884,-2.8491,-2.8822,-2.9005,-2.9005,-2.9005,-2.9005,-2.9005,-2.9005,-2.9005,-2.9005,-2.9005,-2.9005,-2.9005,-2.9005,-2.9005,-2.9005,-2.9005,-2.9005,-2.9005,-2.9005,-2.9005,-2.9005,-2.9005,-2.9005,-2.9005,-2.9005,-2.9005,-2.9005,-1.0293,-1.0293,-1.0293,-1.0293,-1.0203,-1.0921,-1.3286,-1.3611,-1.2627,-1.0047,-1.1435,-1.3883,-1.7076,-1.5442,-1.4146,-1.4206,-1.1692,-1.0094,-1.0094,-1.0094,-1.0094,-1.0094,-1.0094,-1.0094,-1.0094,-1.0094,0.0,0.0,0.0,0.0,0.0,0.0,0.0,0.0,-0.9702,-0.9702,-0.9702,-0.9702,-0.9637,-0.995,-1.4538,-1.9024,-2.2903,-2.2483,-2.2296,-2.2296,-2.2296,-2.2296,-2.2296,-2.2296,-2.3152,-2.4108,-2.3599,-2.1545,-1.9827,-2.2538,-2.1423,-1.9461,-2.017,-1.9847,-1.9308,-1.9308,-1.8822,0.0,-1.508,-1.6852,-1.8873,-1.8452,-1.937,-2.106,-2.3712,-2.4802,-2.5253,-2.5101,-2.5217,-2.5538,-2.6192,-2.5632,-2.6098,-2.8693,-2.9005,-2.9005,-2.9005,-2.9005,-2.9005,-2.9005,-2.9005,-2.7868,-2.5273,-2.7592,-2.9005,-2.9005,-2.9005,-2.9005,-2.9005,-2.9005,-2.9005,-2.9005,-2.9005,-2.9005,-2.9005,-2.9005,-2.9005,-2.9005,-2.9005,-2.9005,-2.9005,-2.9005,-2.9005,-2.9005,-2.9005,-2.9005,-2.9005,-2.9005,-2.9005,-2.9005,-1.0195,-1.0246,-1.0293,-1.0293,-1.1594,-1.3052,-1.4314,-1.418,-1.3362,-1.1769,-1.3912,-1.6539,0.0,0.0,-1.7058,-1.5346,-1.3635,-1.1923,-1.021,-1.0094,-1.0094,-1.0094,-0.9962,-0.9954,-1.0092,-1.0094,0.0,0.0,0.0,0.0,0.0,0.0,0.0,0.0,-0.9702,-0.9702,-0.9702,-0.9702,-1.1553,-1.4633,-1.6243,0.0,-2.4064,-2.2782,-2.2296,-2.2296,-2.2296,-2.2296,-2.2296,-2.2296,-2.3152,-2.419,-2.419,-2.3542,-2.3115,-2.4808,-2.4115,-2.271,-2.2344,-2.2505,-2.2788,-2.2788,-2.1285,0.0,0.0,-1.8078,-1.6903,-1.6903,-1.6903,-1.7417,-1.9069,-2.0977,-2.241,-2.2752,-2.2808,-2.3385,-2.5058,-2.4674,-2.4795,-2.64,-2.6602,-2.6602,-2.6602,-2.6602,-2.6602,-2.6602,-2.6602,-2.5897,-2.4281,-2.5731,-2.6602,-2.6602,-2.6602,-2.6602,-2.6602,-2.6602,-2.7409,-2.9005,-2.9005,-2.9005,-2.9005,-2.9005,-2.9005,-2.9005,-2.9005,-2.9005,-2.9005,-2.9005,-2.9005,-2.9005,-2.9005,-2.9005,-2.9005,-2.9005,-2.9005,-2.9005,-1.0094,-1.0201,-1.0507,-1.1123,-1.3365,-1.4898,-1.4374,-1.4265,-1.4454,0.0,0.0,0.0,0.0,0.0,0.0,0.0,0.0,-1.4038,-1.1267,-1.0479,-1.0094,-1.0094,-0.9838,-0.9805,-1.0025,-1.0074,0.0,0.0,0.0,0.0,0.0,-1.0094,-0.9946,-0.9757,0.0,0.0,0.0,0.0,0.0,-1.8434,0.0,-2.128,-2.4064,-2.2782,-2.2296,-2.2296,-2.2296,-2.2296,-2.2338,-2.2575,-2.3353,-2.419,-2.419,-2.47,-2.5308,-2.5308,-2.5308,-2.5171,-2.4572,-2.4737,-2.5113,-2.5259,-2.3269,-2.1607,0.0,0.0,0.0,-1.5411,-1.5924,-1.5998,-1.4732,-1.7124,-1.9687,-2.0866,-2.1162,-2.2212,-2.4923,-2.4226,-2.3646,-2.4135,-2.419,-2.419,-2.419,-2.419,-2.419,-2.419,-2.419,-2.419,-2.419,-2.419,-2.419,-2.419,-2.419,-2.419,-2.419,-2.419,-2.5511,-2.8069,-2.8069,-2.84,-2.9005,-2.9005,-2.9005,-2.9005,-2.9005,-2.9005,-2.9005,-2.9005,-2.9005,-2.9005,-2.9005,-2.9005,-2.9005,-2.9005,-2.9005,-2.9005,-1.0094,-1.0201,-1.1219,-1.414,-1.46,-1.4332,-1.3638,-1.568,-1.8256,0.0,0.0,0.0,0.0,0.0,0.0,0.0,0.0,-1.5038,-1.4654,-1.1788,-1.0094,-1.0094,-0.9838,-0.9721,-0.9747,0.0,0.0,0.0,0.0,0.0,0.0,0.0,-0.9946,-0.9955,-1.5662,0.0,0.0,0.0,-1.4383,0.0,-1.8159,-2.128,-2.4064,-2.2782,-2.2296,-2.2296,-2.2296,-2.2296,-2.247,-2.3602,-2.4074,-2.419,-2.419,-2.47,-2.5308,-2.5308,-2.5308,-2.5274,-2.5192,-2.4759,-2.4485,-2.5143,-2.5019,-2.388,-2.0597,0.0,-1.8746,-1.8746,0.0,-2.1345,-1.5557,0.0,0.0,-2.3269,-2.4314,-2.4865,-2.525,-2.2676,-2.1597,-2.3925,-2.419,-2.419,-2.419,-2.419,-2.419,-2.419,-2.419,-2.419,-2.419,-2.419,-2.419,-2.419,-2.419,-2.419,-2.419,-2.419,-2.4373,-2.474,-2.474,-2.6245,-2.9005,-2.9005,-2.9005,-2.9005,-2.9005,-2.9005,-2.9005,-2.9005,-2.9005,-2.9005,-2.9005,-2.9005,-2.9005,-2.9005,-2.9005,-2.9005,-1.0094,-1.0159,-1.1242,-1.461,-1.4803,-1.4405,-1.4087,-1.4735,-1.6323,0.0,0.0,0.0,0.0,0.0,0.0,0.0,0.0,-2.0231,-1.8288,-1.4703,0.0,-0.9941,-1.1541,-1.1604,-0.9739,-0.9815,0.0,0.0,-1.0094,0.0,0.0,0.0,-0.9946,-0.99,-1.4481,0.0,-1.5349,0.0,-1.5954,0.0,-1.9921,-2.296,-2.3922,-2.1486,-2.1277,-2.2296,-2.2296,-2.2296,-2.2497,-2.3771,-2.419,-2.4275,-2.47,-2.5055,-2.5308,-2.5308,-2.5308,-2.5308,-2.5308,-2.4759,-2.4374,-2.5126,-2.3846,-2.1842,-1.9766,-1.9297,-1.9297,-1.9297,0.0,0.0,0.0,0.0,0.0,0.0,-2.0285,-2.0135,-2.2115,-2.1192,-2.1435,-2.4491,-2.2789,-2.2269,-2.4613,-2.4442,-2.263,-1.8867,-2.2061,-2.419,-2.419,-2.419,-2.419,-2.419,-2.419,-2.419,-2.419,-2.419,-2.419,-2.419,-2.419,-2.4905,-2.6198,-2.6198,-2.6198,-2.6198,-2.6198,-2.6198,-2.6374,-2.8235,-2.9005,-2.9005,-2.9005,-2.9005,-2.9005,-2.9005,-2.9005,-2.9005,-1.0094,0.0,0.0,-1.4428,-1.4733,-1.4805,-1.5686,-1.5119,-1.5663,-1.8628,-2.205,0.0,-2.419,-2.419,0.0,0.0,-2.4685,-2.4041,-2.1818,-1.7995,-1.4774,-1.2435,-1.4573,-1.4316,-1.109,-1.0157,-0.9822,0.0,-1.0094,0.0,0.0,0.0,-0.989,-0.9845,-1.3068,-1.6298,-1.9352,0.0,-1.8473,-1.5405,-1.9788,-2.2611,-2.3904,-2.1168,-2.1027,-2.2296,-2.2296,-2.2525,-2.2955,-2.3894,-2.419,-2.433,-2.5066,-2.5308,-2.5308,-2.5308,-2.5308,-2.5308,-2.5308,-2.4904,-2.4636,-2.5165,-2.2788,-2.0112,-1.9455,-1.9297,-1.9297,-1.9297,-1.9297,0.0,0.0,0.0,-2.1827,-1.868,0.0,-1.6077,-1.8558,-1.8904,-1.9808,-2.225,-2.0778,-2.1073,-2.4932,-2.4816,-2.1719,-1.5007,-2.0519,-2.419,-2.419,-2.419,-2.419,-2.419,-2.419,-2.419,-2.419,-2.419,-2.419,-2.419,-2.419,-2.419,-2.419,-2.419,-2.419,-2.419,-2.419,-2.419,-2.4373,-2.6712,-2.7684,-2.7684,-2.7684,-2.8216,-2.9005,-2.9005,-2.9005,-2.9005,-1.0094,-1.0094,0.0,0.0,0.0,-1.5539,-1.8673,-1.8305,-1.8729,-2.1755,-2.3351,0.0,0.0,0.0,0.0,0.0,0.0,-2.4495,-2.51,-2.1373,-1.9095,-1.9003,-1.9095,-1.7638,-1.442,-1.1292,-0.9822,-1.0094,-1.0094,0.0,0.0,0.0,0.0,0.0,-1.3068,-1.6298,-1.9517,-2.2685,-2.2125,-1.8863,-1.5973,-1.8592,-2.4046,-2.2712,-2.2254,-2.2296,-2.2296,-2.3091,-2.4151,-2.418,-2.419,-2.433,-2.5066,-2.5308,-2.5308,-2.5308,-2.5308,-2.5308,-2.5308,-2.5274,-2.5264,-2.5284,-2.2788,-2.0112,-1.9455,-1.9297,-1.9297,-1.9297,-1.9297,-1.9297,-1.9297,-1.9389,-1.8542,-1.5772,-1.526,0.0,0.0,-1.5365,-1.5404,-1.5519,-1.8335,-2.1579,-2.4976,-2.5274,-2.2279,-1.5041,-2.0519,-2.419,-2.419,-2.419,-2.419,-2.419,-2.419,-2.419,-2.419,-2.419,-2.419,-2.419,-2.419,-2.419,-2.419,-2.419,-2.419,-2.419,-2.419,-2.419,-2.4208,-2.43,-2.4355,-2.4355,-2.4355,-2.6264,-2.9005,-2.9005,-2.9005,-2.9005,0.0,0.0,0.0,0.0,0.0,-1.5363,-1.7922,-1.9709,-2.113,-2.2161,-2.2681,-2.2943,-2.2943,-2.4687,-2.626,-2.7288,-2.5438,-2.4312,-2.4548,-2.3293,-2.1574,-1.9389,-2.139,-2.1023,-1.7748,-1.4517,-1.1888,-0.9828,-1.0001,0.0,0.0,0.0,0.0,0.0,0.0,-1.4285,0.0,0.0,0.0,0.0,-2.1363,-2.2244,-2.4151,-2.3728,-2.3558,-2.3457,-2.2602,-2.3128,-2.419,-2.419,-2.4516,-2.4962,-2.5228,-2.5308,-2.5308,-2.5308,-2.5308,-2.5308,-2.5308,-2.5308,-2.5308,-2.5308,-2.2788,-2.0233,-2.0011,-1.9952,-2.0584,-2.2818,-2.2881,-2.2538,-2.2538,-2.2538,-2.224,-2.1313,-1.7809,-1.5192,0.0,-1.5192,-1.5224,-1.5315,-1.8266,-2.075,-2.1885,-2.1981,-1.9912,-1.4887,-1.85,-2.0968,-2.0968,-2.3015,-2.419,-2.419,-2.419,-2.419,-2.419,-2.419,-2.419,-2.419,-2.419,-2.419,-2.419,-2.419,-2.419,-2.419,-2.419,-2.419,-2.419,-2.419,-2.419,-2.419,-2.419,-2.4869,-2.608,-2.8216,-2.9005,-2.9005,-1.6042,0.0,0.0,0.0,0.0,-1.6931,-1.9069,-2.1045,-2.2296,-2.2296,-2.3209,-2.3866,-2.3866,-2.5558,-2.7315,-2.8881,-2.7097,-2.5915,-2.5915,-2.4832,-2.3254,-2.1133,-2.307,-2.3199,-2.1096,-1.7876,-1.4628,-1.1402,-1.1581,-1.166,0.0,0.0,0.0,0.0,0.0,-1.4358,-1.9517,-2.2822,-2.419,0.0,-2.419,-2.419,-2.419,-2.419,-2.3925,-2.3479,-2.3116,-2.3502,-2.419,-2.419,-2.4685,-2.5308,-2.5308,-2.5308,-2.5308,-2.5308,-2.5308,-2.5308,-2.5308,-2.5308,-2.5308,-2.5308,-2.3673,-2.1769,-2.0577,-2.0308,-2.125,-2.4615,-2.4917,-2.4588,-2.4588,-2.4374,-2.419,-2.419,-1.997,-1.6326,0.0,-1.5192,-1.5257,-1.5389,-1.7269,0.0,0.0,-1.9192,-1.7854,-1.6312,-1.814,-1.9811,-2.0986,-2.3052,-2.419,-2.419,-2.419,-2.419,-2.419,-2.419,-2.419,-2.419,-2.419,-2.419,-2.419,-2.419,-2.419,-2.4209,-2.4476,-2.4434,-2.419,-2.419,-2.419,-2.419,-2.419,-2.419,-2.4593,-2.7813,-2.9005,-2.9044,-1.8489,-1.9187,0.0,-1.5264,-1.7236,-1.992,-2.1983,-2.2296,-2.2347,-2.2499,-2.4966,-2.6691,-2.6691,-2.6691,-2.7315,-2.8881,-2.9005,-2.9005,-2.9005,-2.5988,-2.417,-2.4122,-2.4161,-2.419,-2.419,-2.1151,-1.8041,-1.4989,-1.4658,0.0,0.0,0.0,0.0,0.0,-1.3136,0.0,-1.9517,-2.2822,-2.419,-2.419,-2.419,-2.419,-2.419,-2.419,-2.3457,-2.2548,-2.3771,-2.419,-2.4218,-2.4228,-2.4715,-2.5308,-2.5308,-2.5308,-2.5308,-2.5308,-2.5308,-2.5308,-2.5308,-2.5308,-2.5308,-2.5308,-2.5308,-2.4481,-2.1269,-2.0558,-2.1442,-2.4635,-2.5308,-2.5308,-2.5308,-2.4693,-2.4153,-2.3969,-2.1232,-1.8192,-1.5577,-1.5192,-1.531,-1.5601,0.0,0.0,0.0,-1.7269,-1.6383,-1.8661,-1.9113,-2.0656,-2.3786,-2.4116,-2.419,-2.419,-2.419,-2.419,-2.419,-2.419,-2.4218,-2.4247,-2.4247,-2.4237,-2.419,-2.419,-2.419,-2.4247,-2.4936,-2.4843,-2.419,-2.419,-2.419,-2.419,-2.419,-2.419,-2.4593,-2.7813,-2.9005,-2.9138,-1.6041,-1.7656,-1.904,-1.8214,-1.8128,-1.912,-2.1878,-2.2296,-2.3091,-2.5287,-2.6218,-2.6691,-2.6691,-2.6691,-2.7315,-2.8881,-2.9005,-2.9005,-2.9005,-2.5988,-2.3782,-2.2833,-2.3678,-2.419,-2.419,-2.3364,-2.2538,-2.1712,-1.686,0.0,-1.4493,0.0,0.0,0.0,0.0,0.0,-1.9517,-2.2822,-2.419,-2.419,-2.419,-2.419,-2.419,-2.419,-2.4004,-2.3761,-2.4074,-2.419,-2.4284,-2.483,-2.5149,-2.5308,-2.5308,-2.5308,-2.5308,-2.5308,-2.5308,-2.5308,-2.5308,-2.5308,-2.5308,-2.5308,-2.5308,-2.5077,-2.4212,-2.4019,-2.4269,-2.5115,-2.5308,-2.5308,-2.5308,-2.4693,-2.34,-2.0949,-1.814,-1.6017,-1.5293,0.0,0.0,-1.8736,0.0,-1.5582,-1.6429,-1.8019,-1.7094,-1.2507,-1.6598,-1.9664,-2.0509,-2.2868,-2.419,-2.419,-2.419,-2.419,-2.419,-2.419,-2.4476,-2.5024,-2.5024,-2.473,-2.419,-2.419,-2.419,-2.4209,-2.44,-2.4365,-2.419,-2.419,-2.419,-2.419,-2.419,-2.419,-2.4593,-2.7813,-2.9005,-2.9138,-1.6958,-1.9216,-2.1445,-2.1445,-2.0974,-2.053,-2.0352,-2.1451,-2.3359,-2.6302,-2.6691,-2.6691,-2.6691,-2.6691,-2.7315,-2.8881,-2.9005,-2.9005,-2.9005,-2.7299,-2.5691,-2.4265,-2.3667,-2.3376,-2.3376,-2.3915,-2.3492,-2.2069,-1.839,0.0,-1.4493,0.0,0.0,0.0,0.0,-1.6298,-1.9517,-2.2822,-2.419,-2.419,-2.419,-2.419,0.0,-2.419,-2.419,-2.4228,-2.4564,-2.467,-2.4745,-2.5165,-2.5308,-2.5327,-2.5434,-2.5395,-2.5308,-2.5308,-2.5308,-2.5308,-2.5308,-2.5308,-2.5308,-2.5308,-2.5308,-2.5308,-2.5308,-2.5308,-2.5308,-2.5308,-2.5308,-2.5308,-2.5308,-2.4956,-2.3606,-2.0277,-1.8445,-1.7423,0.0,0.0,0.0,0.0,-1.9885,-1.8922,-1.715,-1.6183,-1.5175,-1.3992,-1.7241,-1.8691,-1.727,-2.028,-2.273,-2.4153,-2.419,-2.419,-2.419,-2.419,-2.4564,-2.5308,-2.5308,-2.5078,-2.4663,-2.4348,-2.419,-2.4218,-2.4532,-2.4501,-2.419,-2.419,-2.419,-2.419,-2.419,-2.419,-2.441,-2.6227,-2.7794,-2.9138,-1.994,-2.2253,-2.4337,-2.4759,-2.4483,-2.3222,-2.0332,-2.2121,-2.4422,-2.6149,-2.623,-2.6268,-2.6657,-2.6691,-2.7315,-2.8881,-2.9005,-2.9005,-2.9005,-2.9005,-2.8412,-2.705,-2.436,-2.2969,-2.3175,-2.3851,-2.2795,-1.994,-1.9517,-1.7656,-1.4493,0.0,0.0,0.0,0.0,0.0,0.0,-2.2978,-2.419,-2.419,-2.419,-2.419,-2.419,-2.419,-2.4257,-2.4435,-2.5072,-2.5308,-2.5308,-2.5308,-2.5312,-2.5391,-2.5631,-2.5522,-2.5308,-2.5308,-2.5308,-2.5308,-2.5308,-2.5308,-2.5308,-2.5308,-2.5308,-2.5308,-2.5308,-2.5308,-2.5308,-2.5308,-2.5308,-2.5308,-2.5308,-2.5308,-2.4346,-2.1423,-2.0596,-2.0308,-2.0308,0.0,0.0,0.0,0.0,0.0,-1.9727,-1.3521,-1.2196,-1.8214,-1.8287,-1.7186,-1.5227,-1.7784,-2.0803,-2.4098,-2.419,-2.419,-2.419,-2.419,-2.4564,-2.5308,-2.5308,-2.5308,-2.5274,-2.4643,-2.4294,-2.4247,-2.4974,-2.493,-2.4348,-2.4348,-2.4294,-2.419,-2.419,-2.419,-2.4209,-2.4303,-2.6105,-2.8623,-2.3345,-2.3804,0.0,-2.7703,-2.597,-2.5735,-3.0305,-3.145,-3.007,-2.5273,-2.3715,-2.4002,-2.642,-2.6691,-2.7315,-2.8881,-2.9005,-2.9005,-2.9005,-2.9005,-2.8893,-2.8608,-2.6887,-2.6519,-2.7804,-2.5437,-2.3914,-2.3345,-2.0637,-1.7656,-1.4493,0.0,0.0,0.0,0.0,0.0,-2.3382,-2.3951,-2.419,-2.419,-2.419,-2.419,-2.419,-2.419,-2.458,-2.5113,-2.5253,-2.5308,-2.5308,-2.5308,-2.5447,-2.5635,-2.5683,-2.5522,-2.5308,-2.5308,-2.5308,-2.5308,-2.5308,-2.5308,-2.5308,-2.5308,-2.5308,-2.5308,-2.5308,-2.5308,-2.5308,-2.5308,-2.5308,-2.5308,-2.5308,-2.5308,-2.5115,-2.4519,-2.2096,-2.0308,-2.0308,0.0,0.0,0.0,0.0,-1.7799,-1.991,-1.3808,-1.1273,-1.5062,-1.2889,-1.344,-1.8214,-1.8985,-2.0803,-2.4098,-2.419,-2.419,-2.419,-2.419,-2.4564,-2.5308,-2.5308,-2.5308,-2.5303,-2.5165,-2.4773,-2.4247,-2.4974,-2.5233,-2.5101,-2.5101,-2.4745,-2.419,-2.419,-2.419,-2.4275,-2.4884,-2.5453,-2.5969,-2.6363,0.0,0.0,0.0,-2.5236,-2.6374,-3.2816,-3.3807,-3.2687,-2.9586,-2.8657,-2.8806,-3.0226,-3.0371,-3.0668,-3.1413,-2.9959,-2.9005,-2.9005,-2.9005,-2.9005,-2.9005,-2.829,-2.8237,-2.8975,-2.586,-2.419,-2.419,-2.0913,-1.7656,-1.4493,-1.4493,-1.4493,-1.4567,0.0,-1.9675,0.0,-2.419,-2.419,-2.419,-2.419,-2.419,-2.4247,-2.4609,-2.4981,-2.5308,-2.5308,-2.5308,-2.5308,-2.5308,-2.5485,-2.5703,-2.5703,-2.5522,-2.5308,-2.5308,-2.5308,-2.5308,-2.5308,-2.5308,-2.5308,-2.5308,-2.5308,-2.5308,-2.5308,-2.5308,-2.5308,-2.5308,-2.5308,-2.5308,-2.5308,-2.5308,-2.5308,-2.5308,-2.3942,-2.2288,-2.0538,-2.1808,-2.2885,0.0,0.0,0.0,-1.9962,-1.538,-1.2829,-1.4383,-1.1512,-1.1769,-1.6555,-1.8397,-2.0013,-2.161,-2.3309,-2.419,-2.419,-2.419,-2.4374,-2.473,-2.5126,-2.5308,-2.5308,-2.5308,-2.5121,-2.4788,-2.5154,-2.5308,-2.5308,-2.5308,-2.4864,-2.419,-2.419,-2.4425,-2.4809,-2.5171,-2.5308,-2.5308,-2.8638,-2.695,-2.4997,-2.4318,-2.5328,-2.7952,-3.3036,-3.3807,-3.3807,-3.3807,-3.3807,-3.3807,-3.3807,-3.3807,-3.3807,-3.3807,-3.1482,-3.0014,-3.0014,-2.9372,-2.9005,-2.9005,-2.9005,-2.9005,-2.9005,-2.651,-2.4887,-2.419,-2.161,-1.8753,-1.5703,-1.4886,-1.486,-1.5649,-1.8904,-2.1776,-2.419,-2.419,-2.419,-2.419,-2.419,-2.419,-2.4284,-2.5024,-2.5308,-2.5308,-2.5308,-2.5308,-2.5404,-2.6135,-2.6082,-2.5703,-2.5703,-2.6004,-2.625,-2.5519,-2.5308,-2.5462,-2.6192,-2.5846,-2.5308,-2.5308,-2.5308,-2.5308,-2.5308,-2.5308,-2.5308,-2.5308,-2.5308,-2.5308,-2.5308,-2.5308,-2.5308,-2.5308,-2.5308,-2.4385,-2.1731,-2.3635,-2.5308,0.0,0.0,0.0,-2.0038,-1.6774,-1.4493,-1.4493,-1.2247,-1.1657,-1.3465,-1.7208,-1.9297,-1.9297,-2.2492,-2.419,-2.419,-2.419,-2.419,-2.4199,-2.4788,-2.5154,-2.5308,-2.5308,-2.5308,-2.5308,-2.5308,-2.5308,-2.5308,-2.5308,-2.4949,-2.4425,-2.4425,-2.4788,-2.5308,-2.5308,-2.5308,-2.5308,-2.9519,-2.8767,-2.7629,-2.4704,-2.9017,-3.3109,-3.3715,-3.3807,-3.3807,-3.3807,-3.3807,-3.3807,-3.3807,-3.3807,-3.3807,-3.3807,-3.3513,-3.3348,-3.3348,-3.062,-2.9005,-2.9005,-2.9005,-2.9005,-2.9005,-2.8712,-2.7115,-2.419,-2.3896,-2.2357,-1.9679,-1.6151,-1.6059,-1.8985,-2.2281,-2.3914,-2.419,-2.419,-2.419,-2.419,-2.419,-2.419,-2.4284,-2.5024,-2.5308,-2.5308,-2.5308,-2.5308,-2.5769,-2.8885,-2.8049,-2.5703,-2.5703,-2.7646,-2.9308,-2.6212,-2.5308,-2.5981,-2.9077,-2.7654,-2.5308,-2.5308,-2.5308,-2.5308,-2.5308,-2.5308,-2.5308,-2.5308,-2.5308,-2.5308,-2.5308,-2.5308,-2.5308,-2.5308,-2.5308,-2.5192,-2.4885,-2.5096,-2.5308,-2.5308,0.0,0.0,-2.0269,-1.6774,-1.4493,-1.4493,-1.461,-1.3465,-1.0663,-1.6105,-1.9297,-1.9297,-2.2492,-2.419,-2.419,-2.419,-2.419,-2.419,-2.4266,-2.464,-2.5308,-2.5308,-2.5308,-2.5308,-2.5308,-2.5308,-2.5308,-2.5308,-2.5259,-2.5192,-2.5192,-2.5243,-2.5308,-2.5308,-2.5308,-2.5308,-3.2137,-3.188,-3.1476,-3.0191,-3.2082,-3.3807,-3.3807,-3.3807,-3.3807,-3.3807,-3.3807,-3.3807,-3.3807,-3.3807,-3.3807,-3.3807,-3.3807,-3.3807,-3.3807,-3.2596,-3.1023,-2.9078,-2.9005,-2.9005,-2.9005,-2.9005,-2.8363,-2.7079,-2.5144,-2.3674,-2.2559,-1.9038,-1.9124,-2.2308,-2.3602,-2.419,-2.4318,-2.6264,-2.7079,-2.7079,-2.7079,-2.7429,-2.7951,-2.8241,-2.8365,-2.8365,-2.8365,-2.8365,-2.8577,-2.9942,-2.9694,-2.8457,-2.6367,-2.7857,-3.0135,-2.8769,-2.8365,-2.8654,-3.0038,-2.9404,-2.7865,-2.5808,-2.5308,-2.5308,-2.5308,-2.5308,-2.5308,-2.5308,-2.5308,-2.5308,-2.5308,-2.5308,-2.5308,-2.5308,-2.3615,-2.3,-2.5019,-2.5308,-2.4558,-2.2538,0.0,-1.9481,-1.7442,-1.7682,-1.6278,-1.2168,-1.2036,-1.2442,-1.3115,-1.934,-2.1795,-1.9375,-2.0564,-2.1848,-2.3049,-2.3067,-2.3445,-2.419,-2.419,-2.4588,-2.5308,-2.5308,-2.5308,-2.5308,-2.5308,-2.5308,-2.5308,-2.5308,-2.5308,-2.5308,-2.5308,-2.5308,-2.5308,-2.5308,-2.5308,-2.5308,-3.5238,-3.5238,-3.5238,-3.5238,-3.4449,-3.3807,-3.3807,-3.3807,-3.3807,-3.3807,-3.3807,-3.3807,-3.3807,-3.3807,-3.3807,-3.3807,-3.3807,-3.3807,-3.3807,-3.3807,-3.2797,-3.0509,-3.0399,-2.9977,-2.9023,-2.9005,-2.9005,-2.9005,-2.6712,-2.5126,-2.4153,-2.1831,-2.1978,-2.4245,-2.5199,-2.5621,-2.5768,-2.8033,-2.9005,-2.9005,-2.9005,-2.9561,-3.0404,-3.0404,-3.0404,-3.0404,-3.0404,-3.0404,-3.0404,-3.0404,-3.0617,-3.0469,-2.8008,-2.8755,-3.0537,-3.0436,-3.0404,-3.0404,-3.0404,-3.0404,-2.9827,-2.7404,-2.6038,-2.5308,-2.5308,-2.5308,-2.5308,-2.5308,-2.5308,-2.5308,-2.5308,-2.5308,-2.5308,-2.5308,-2.3308,-2.2596,-2.4981,-2.5308,-2.4058,-2.0692,-2.0308,-1.9346,-1.6923,-1.8885,-1.7885,-1.2038,-1.2538,-1.3712,-1.5115,-1.9731,-2.1842,-2.0772,-1.9793,-2.0444,-2.2837,-2.2484,-2.293,-2.419,-2.419,-2.4588,-2.5308,-2.5308,-2.5308,-2.5308,-2.5308,-2.5308,-2.5308,-2.5308,-2.5308,-2.5308,-2.5308,-2.5308,-2.5308,-2.5308,-2.5308,-2.5308,-3.8652,-3.8652,-3.8652,-3.8652,-3.5954,-3.3807,-3.3807,-3.3807,-3.3807,-3.3807,-3.3807,-3.3807,-3.3807,-3.3807,-3.3807,-3.3807,-3.3807,-3.3807,-3.3807,-3.3807,-3.377,-3.3733,-3.3733,-3.2247,-2.9078,-2.9005,-2.9005,-2.9005,-2.8968,-2.7317,-2.419,-2.4153,-2.4153,-2.4337,-2.7519,-2.895,-2.895,-2.8987,-2.9005,-2.9005,-2.9005,-2.9561,-3.0404,-3.0404,-3.0404,-3.0404,-3.0404,-3.0404,-3.0404,-3.0404,-3.0617,-3.0898,-3.0859,-3.0859,-3.083,-3.0492,-3.0404,-3.0404,-3.0404,-3.0404,-3.0385,-3.0346,-2.7808,-2.5308,-2.5308,-2.5308,-2.5308,-2.5308,-2.5308,-2.5308,-2.5308,-2.5308,-2.5308,-2.5308,-2.5269,-2.525,-2.5288,-2.5308,-2.4058,-2.0692,-2.0308,-2.0288,-2.0231,-2.0288,-1.8865,-1.5404,-1.8269,-1.8712,-1.5385,-1.5288,-1.8022,-2.3952,-2.0986,-2.0868,-2.4152,-2.293,-2.293,-2.419,-2.419,-2.4588,-2.5308,-2.5308,-2.5308,-2.5308,-2.5308,-2.5308,-2.5308,-2.5308,-2.5308,-2.5308,-2.5308,-2.5308,-2.5308,-2.5308,-2.5308,-2.5308,-3.8707,-3.8707,-3.8707,-3.8707,-3.852,-3.8083,-3.727,-3.7147,-3.7147,-3.7147,-3.5183,-3.3807,-3.3807,-3.3807,-3.3807,-3.3807,-3.3807,-3.3807,-3.3807,-3.3807,-3.3807,-3.3807,-3.3807,-3.333,-3.2302,-3.2284,-3.1188,-2.9005,-2.9005,-2.8473,-2.7464,-2.7464,-2.7464,-2.7519,-2.8546,-2.9005,-2.9005,-2.9005,-2.9005,-2.9005,-2.9005,-2.9561,-3.0404,-3.0404,-3.0404,-3.0404,-3.0404,-3.0404,-3.0404,-3.0404,-3.0472,-3.0609,-3.083,-3.0898,-3.0832,-3.0492,-3.0404,-3.0404,-3.0404,-3.0404,-3.0404,-3.0404,-2.9577,-2.8173,-2.5827,-2.5308,-2.5308,-2.5308,-2.5308,-2.5308,-2.5308,-2.5308,-2.5308,-2.5308,-2.5308,-2.5308,-2.5308,-2.5308,-2.4058,-2.0692,-2.0308,-2.0308,-2.0308,-2.0308,-1.9846,-1.8769,-2.1808,-2.1212,-1.55,-1.7404,-2.037,-2.409,-2.318,-2.3144,-2.419,-2.2947,-2.293,-2.419,-2.419,-2.4588,-2.5308,-2.5308,-2.5308,-2.5308,-2.5308,-2.5308,-2.5308,-2.5308,-2.5308,-2.5308,-2.5308,-2.5308,-2.5308,-2.5308,-2.5308,-2.5308,-3.8707,-3.8707,-3.8707,-3.8707,-3.9701,-4.0248,-3.9493,-3.8998,-3.8707,-3.8707,-3.6909,-3.5642,-3.5642,-3.4541,-3.3807,-3.3807,-3.3807,-3.3807,-3.3807,-3.3807,-3.3807,-3.3807,-3.3807,-3.3807,-3.3807,-3.3807,-3.2816,-3.0803,-2.9592,-2.9005,-2.9005,-2.9005,-2.9005,-2.9005,-2.9005,-2.9005,-2.9005,-2.9005,-2.9005,-2.9021,-2.9387,-2.9872,-3.0404,-3.0404,-3.0404,-3.0404,-3.0404,-3.0404,-3.0404,-3.0404,-3.0404,-3.0433,-3.0658,-3.0715,-3.0661,-3.0456,-3.0404,-3.0404,-3.0404,-3.0404,-3.0404,-3.0404,-3.0404,-2.95,-2.6077,-2.5308,-2.5308,-2.5308,-2.5308,-2.5308,-2.5308,-2.5308,-2.5308,-2.5308,-2.5308,-2.5308,-2.5308,-2.4231,-2.2654,-2.0558,-2.0308,-2.0788,-2.2058,-2.1038,-2.0827,-2.2077,-2.1769,-2.0212,-1.7269,-1.9135,-2.1512,-2.4126,-2.419,-2.3966,-2.3491,-2.2708,-2.293,-2.4199,-2.4485,-2.485,-2.5308,-2.5308,-2.5308,-2.5308,-2.5308,-2.5308,-2.5308,-2.5308,-2.5308,-2.5308,-2.5308,-2.5308,-2.5308,-2.5308,-2.5308,-2.5308,-3.8707,-3.8707,-3.8707,-3.8707,-3.9701,-4.0473,-4.0397,-3.9408,-3.8707,-3.8707,-3.8707,-3.8707,-3.8707,-3.5973,-3.4137,-3.4137,-3.3935,-3.3807,-3.3807,-3.3807,-3.3807,-3.3807,-3.3807,-3.3807,-3.3807,-3.3807,-3.3807,-3.3807,-3.0583,-2.9005,-2.9005,-2.9005,-2.9005,-2.9005,-2.9005,-2.9005,-2.9005,-2.9078,-2.9093,-2.9163,-3.0044,-3.0404,-3.0398,-3.0336,-3.0343,-3.0404,-3.0404,-3.0404,-3.0404,-3.0404,-3.0404,-3.0404,-3.0404,-3.0404,-3.0404,-3.0404,-3.0404,-3.0404,-3.0404,-3.0404,-3.0404,-3.0404,-3.0212,-2.9212,-2.6038,-2.5308,-2.5308,-2.5308,-2.5308,-2.5308,-2.5308,-2.5308,-2.5308,-2.5308,-2.5308,-2.5308,-2.5308,-2.2404,-2.0308,-2.0308,-2.05,-2.1865,-2.5,-2.2481,-2.1942,-2.5077,-1.9462,-1.7288,-2.0481,-2.0654,-2.174,-2.4126,-2.419,-2.358,-2.231,-2.2391,-2.3049,-2.4284,-2.4962,-2.5308,-2.5308,-2.5308,-2.5308,-2.5308,-2.5308,-2.5308,-2.5308,-2.5308,-2.5308,-2.5308,-2.5308,-2.5308,-2.5308,-2.5308,-2.5308,-2.5308,-3.8707,-3.8707,-3.8707,-3.8707,-3.9701,-4.0184,-3.9268,-3.8873,-3.8707,-3.8707,-3.8707,-3.8707,-3.8707,-3.801,-3.7551,-3.7551,-3.5257,-3.3807,-3.3807,-3.3807,-3.3807,-3.3807,-3.3807,-3.3807,-3.3807,-3.3807,-3.3807,-3.3807,-3.0583,-2.9005,-2.9005,-2.9005,-2.9005,-2.9005,-2.9005,-2.9005,-2.9044,-2.9765,-3.0078,-3.0092,-3.0305,-3.0404,-3.0311,-2.9607,-2.9782,-3.0404,-3.0404,-3.0404,-3.0404,-3.0404,-3.0404,-3.0404,-3.0404,-3.0404,-3.0404,-3.0404,-3.0404,-3.0404,-3.0404,-3.0404,-3.0404,-3.0404,-2.8442,-2.6308,-2.5481,-2.5308,-2.5308,-2.5308,-2.5308,-2.5308,-2.5308,-2.5308,-2.5308,-2.5308,-2.5308,-2.5308,-2.5308,-2.2404,-2.0308,-2.0308,-2.2558,-2.4423,-2.5231,-2.4577,-2.4442,-2.525,-2.3808,-2.3269,-2.4077,-2.4115,-2.4144,-2.42,-2.419,-2.358,-2.231,-2.3254,-2.4192,-2.5043,-2.5228,-2.5308,-2.5308,-2.5308,-2.5308,-2.5308,-2.5308,-2.5308,-2.5308,-2.5308,-2.5308,-2.5308,-2.5308,-2.5308,-2.5308,-2.5308,-2.5308,-2.5308,-3.8707,-3.9141,-3.9517,-3.9517,-3.9611,-3.9463,-3.8807,-3.8707,-3.8707,-3.8707,-3.8707,-3.8707,-3.8707,-3.8707,-3.8707,-3.8707,-3.5697,-3.3807,-3.3807,-3.3807,-3.3807,-3.3807,-3.3807,-3.3807,-3.3807,-3.3807,-3.3807,-3.3807,-3.2063,-3.1188,-3.1188,-3.1188,-3.1188,-3.1115,-2.9666,-2.9249,-2.9678,-3.0188,-3.0404,-3.0404,-3.0404,-3.0404,-3.0343,-2.9832,-2.9962,-3.0404,-3.0404,-3.0404,-3.0404,-3.0404,-3.0404,-3.0404,-3.0404,-3.0404,-3.0404,-3.0404,-3.0404,-3.0404,-3.0404,-3.0404,-3.0404,-3.0404,-2.9,-2.7231,-2.5654,-2.5308,-2.5308,-2.5308,-2.5308,-2.5308,-2.5308,-2.5308,-2.5308,-2.5308,-2.5308,-2.5308,-2.5308,-2.3731,-2.2596,-2.2596,-2.4192,-2.5308,-2.5308,-2.5308,-2.5308,-2.5308,-2.5308,-2.5308,-2.5308,-2.5308,-2.4956,-2.4228,-2.419,-2.3873,-2.3176,-2.4182,-2.4904,-2.5308,-2.5308,-2.5308,-2.5308,-2.5308,-2.5308,-2.5308,-2.5308,-2.5308,-2.5308,-2.5308,-2.5308,-2.5308,-2.5308,-2.5308,-2.5308,-2.5308,-2.5308,-2.5308,-3.8946,-3.98,-4.0496,-4.0496,-3.9493,-3.8707,-3.8707,-3.8707,-3.8707,-3.8707,-3.8707,-3.8707,-3.8707,-3.8707,-3.8707,-3.8707,-3.6156,-3.4541,-3.4541,-3.4082,-3.3807,-3.3807,-3.3807,-3.3807,-3.3807,-3.3807,-3.3807,-3.3807,-3.3807,-3.3807,-3.3788,-3.3979,-3.4062,-3.3932,-3.1214,-3.0432,-3.1173,-3.1173,-3.0865,-3.0442,-3.0962,-3.1173,-3.1115,-3.0596,-3.0404,-3.0404,-3.0404,-3.0404,-3.0404,-3.0404,-3.0404,-3.0404,-3.0404,-3.0404,-3.0404,-3.0404,-3.0404,-3.0404,-3.0404,-3.0404,-3.0404,-3.0404,-3.0404,-2.95,-2.6077,-2.5308,-2.5308,-2.5308,-2.5308,-2.5308,-2.5308,-2.5308,-2.5308,-2.5308,-2.5308,-2.5308,-2.5308,-2.5308,-2.5308,-2.5308,-2.5308,-2.5308,-2.5308,-2.5335,-2.5348,-2.5293,-2.5308,-2.5308,-2.5308,-2.5308,-2.4999,-2.4383,-2.4257,-2.4247,-2.4356,-2.5,-2.5308,-2.5308,-2.5308,-2.5308,-2.5308,-2.5308,-2.5308,-2.5308,-2.5308,-2.5308,-2.5308,-2.5308,-2.5308,-2.5308,-2.5308,-2.5308,-2.5308,-2.5308,-2.5308,-2.5308,-4.0024,-4.0362,-4.0496,-4.0496,-3.9493,-3.8707,-3.8707,-3.8707,-3.8707,-3.8707,-3.8707,-3.8707,-3.8707,-3.8707,-3.8707,-3.8707,-3.823,-3.7936,-3.7936,-3.5349,-3.3807,-3.3807,-3.3807,-3.3807,-3.3807,-3.3807,-3.3807,-3.3807,-3.3807,-3.3807,-3.3815,-3.4794,-3.5239,-3.52,-3.4699,-3.4575,-3.4712,-3.4712,-3.3038,-3.0654,-3.3558,-3.4712,-3.4385,-3.15,-3.0404,-3.0404,-3.0404,-3.0404,-3.0404,-3.0404,-3.0404,-3.0404,-3.0404,-3.0404,-3.0404,-3.0404,-3.0404,-3.0404,-3.0404,-3.0404,-3.0404,-3.0404,-3.0404,-2.95,-2.6077,-2.5308,-2.5308,-2.5308,-2.5308,-2.5308,-2.5308,-2.5308,-2.5308,-2.5308,-2.5308,-2.5308,-2.5308,-2.5308,-2.5308,-2.5308,-2.5308,-2.5308,-2.5308,-2.5491,-2.5545,-2.5322,-2.5308,-2.5308,-2.5308,-2.5308,-2.5248,-2.5124,-2.4516,-2.4501,-2.5113,-2.5243,-2.5308,-2.5308,-2.5308,-2.5308,-2.5308,-2.5308,-2.5308,-2.5308,-2.5308,-2.5308,-2.5308,-2.5308,-2.5308,-2.5308,-2.5308,-2.5308,-2.5308,-2.5308,-2.5308,-2.5308,-4.0397,-4.0496,-4.0496,-4.0496,-4.0043,-3.9445,-3.8807,-3.8707,-3.8707,-3.8707,-3.8707,-3.8707,-3.8707,-3.8707,-3.8707,-3.8707,-3.8707,-3.897,-3.9634,-3.6,-3.4068,-3.4686,-3.4129,-3.3807,-3.3807,-3.3807,-3.3807,-3.3807,-3.3807,-3.3807,-3.3815,-3.4971,-3.55,-3.55,-3.55,-3.55,-3.55,-3.55,-3.4596,-3.3288,-3.4865,-3.55,-3.5327,-3.375,-3.3154,-3.3154,-3.3154,-3.1962,-3.0404,-3.0404,-3.0404,-3.0404,-3.0404,-3.0404,-3.0404,-3.0404,-3.0404,-3.0404,-3.0404,-3.0404,-3.0404,-3.0404,-3.0404,-2.95,-2.6077,-2.5308,-2.5308,-2.5308,-2.5308,-2.5308,-2.5308,-2.5308,-2.5308,-2.5308,-2.5308,-2.5308,-2.5308,-2.5308,-2.5308,-2.5308,-2.5308,-2.5308,-2.5308,-2.5545,-2.5657,-2.5529,-2.5372,-2.5308,-2.5308,-2.5308,-2.5308,-2.5308,-2.4962,-2.4968,-2.5303,-2.5308,-2.5308,-2.5308,-2.5308,-2.5308,-2.5308,-2.5308,-2.5308,-2.5308,-2.5308,-2.5308,-2.5308,-2.5308,-2.5308,-2.5308,-2.5308,-2.5308,-2.5308,-2.5308,-2.5308,-2.5308,-4.0496,-4.0496,-4.0496,-4.0496,-4.0496,-4.0082,-3.8873,-3.8707,-3.8707,-3.8707,-3.8707,-3.8707,-3.8707,-3.8707,-3.8822,-3.9087,-3.9114,-3.9505,-4.043,-3.728,-3.527,-3.5105,-3.4265,-3.3807,-3.3807,-3.3807,-3.3807,-3.3807,-3.3807,-3.3807,-3.3815,-3.4971,-3.55,-3.55,-3.55,-3.55,-3.55,-3.55,-3.55,-3.5486,-3.5203,-3.5262,-3.55,-3.55,-3.55,-3.5501,-3.5579,-3.3935,-3.1704,-3.1704,-3.1109,-3.0404,-3.0404,-3.0404,-3.0404,-3.0404,-3.0404,-3.0404,-3.0404,-3.0404,-3.0404,-3.0404,-3.0404,-2.9712,-2.7077,-2.5865,-2.5308,-2.5308,-2.5308,-2.5308,-2.5308,-2.5308,-2.5308,-2.5308,-2.5308,-2.5308,-2.5308,-2.5308,-2.5308,-2.5308,-2.5308,-2.5308,-2.5308,-2.5545,-2.5662,-2.5605,-2.5427,-2.5308,-2.5308,-2.5308,-2.5321,-2.5387,-2.533,-2.5326,-2.5391,-2.5391,-2.5359,-2.5308,-2.5308,-2.5308,-2.5308,-2.5308,-2.5308,-2.5308,-2.5308,-2.5308,-2.5308,-2.5308,-2.5308,-2.5308,-2.5308,-2.5308,-2.5308,-2.5308,-2.5308,-2.5308,-4.0496,-4.0496,-4.0496,-4.0496,-4.0496,-4.0082,-3.8873,-3.8707,-3.8707,-3.8707,-3.8707,-3.8707,-3.8707,-3.8707,-3.9154,-4.0266,-4.0362,-4.0406,-4.0489,-4.0191,-3.8185,-3.409,-3.3842,-3.3807,-3.3807,-3.3807,-3.3807,-3.3807,-3.3807,-3.3807,-3.3815,-3.4971,-3.55,-3.55,-3.55,-3.55,-3.55,-3.55,-3.55,-3.5398,-3.4345,-3.4563,-3.55,-3.55,-3.55,-3.5547,-3.5849,-3.5798,-3.5584,-3.5584,-3.3276,-3.0404,-3.0404,-3.0404,-3.0404,-3.0404,-3.0404,-3.0404,-3.0404,-3.0404,-3.0404,-3.0404,-3.0404,-3.0327,-3.0077,-2.7577,-2.5308,-2.5308,-2.5308,-2.5308,-2.5308,-2.5308,-2.5308,-2.5308,-2.5308,-2.5308,-2.5308,-2.5308,-2.5308,-2.5308,-2.5308,-2.5308,-2.5308,-2.5545,-2.5599,-2.5357,-2.5308,-2.5308,-2.5308,-2.5308,-2.5401,-2.5661,-2.5425,-2.5431,-2.5661,-2.5662,-2.5547,-2.5308,-2.5308,-2.5308,-2.5308,-2.5308,-2.5308,-2.5308,-2.5308,-2.5308,-2.5308,-2.5308,-2.5308,-2.5308,-2.5308,-2.5308,-2.5308,-2.5308,-2.5308,-2.5308,-4.0496,-4.0496,-4.0496,-4.0496,-4.0496,-4.0082,-3.8873,-3.8707,-3.8707,-3.8707,-3.8707,-3.8707,-3.8707,-3.8707,-3.9195,-4.0378,-4.0496,-4.0496,-4.0496,-4.0496,-3.849,-3.4002,-3.3807,-3.3807,-3.3807,-3.3807,-3.3807,-3.3807,-3.3807,-3.3807,-3.3815,-3.4971,-3.55,-3.55,-3.55,-3.55,-3.55,-3.55,-3.5094,-3.4412,-3.3961,-3.4062,-3.4532,-3.5239,-3.55,-3.5534,-3.5885,-3.5996,-3.5996,-3.5996,-3.4917,-3.3192,-3.1077,-3.0404,-3.0404,-3.0404,-3.0404,-3.0404,-3.0404,-3.0404,-3.0404,-3.0404,-3.0404,-3.0404,-3.0404,-2.775,-2.5308,-2.5308,-2.493,-2.4752,-2.5228,-2.5308,-2.5308,-2.5308,-2.5308,-2.5308,-2.5308,-2.5308,-2.5308,-2.5308,-2.5308,-2.5308,-2.5308,-2.5391,-2.5417,-2.5303,-2.5308,-2.5308,-2.5308,-2.5459,-2.5598,-2.5703,-2.5601,-2.5599,-2.5703,-2.5703,-2.5561,-2.5308,-2.5308,-2.5308,-2.5308,-2.5308,-2.5308,-2.5308,-2.5308,-2.5308,-2.5308,-2.5308,-2.5398,-2.5549,-2.5549,-2.5549,-2.5549,-2.5549,-2.5441,-2.5308,-4.0496,-4.0496,-4.0496,-4.0496,-4.0496,-4.0211,-3.9402,-3.8927,-3.8707,-3.8707,-3.8707,-3.8707,-3.8707,-3.9036,-3.9599,-4.0422,-4.0496,-4.0496,-4.0496,-4.0496,-3.8956,-3.5492,-3.4357,-3.3807,-3.3807,-3.3807,-3.3807,-3.3807,-3.3807,-3.3974,-3.4345,-3.5127,-3.55,-3.55,-3.55,-3.55,-3.55,-3.55,-3.4851,-3.3807,-3.3807,-3.3807,-3.3928,-3.5077,-3.55,-3.5534,-3.5885,-3.5996,-3.5996,-3.5996,-3.5847,-3.5224,-3.276,-3.1269,-3.0404,-3.0404,-3.0404,-3.0404,-3.0404,-3.0404,-3.0404,-3.0404,-3.0404,-3.0404,-3.0404,-2.8596,-2.6529,-2.5222,-2.4548,-2.4338,-2.4857,-2.513,-2.5308,-2.5308,-2.5308,-2.5308,-2.5308,-2.5308,-2.5308,-2.5308,-2.5308,-2.5308,-2.5308,-2.5308,-2.5308,-2.5308,-2.5387,-2.5437,-2.5437,-2.5601,-2.5703,-2.5703,-2.5703,-2.5703,-2.5703,-2.5703,-2.5604,-2.5418,-2.5344,-2.5308,-2.5308,-2.5308,-2.5308,-2.5308,-2.5308,-2.5308,-2.5308,-2.5308,-2.5459,-2.5703,-2.5703,-2.5703,-2.5703,-2.5703,-2.5572,-2.5437,-4.0496,-4.0496,-4.0496,-4.0496,-4.0496,-4.0496,-4.0489,-3.9457,-3.8707,-3.8707,-3.8707,-3.8707,-3.8707,-3.9778,-4.0496,-4.0496,-4.0496,-4.0496,-4.0496,-4.0496,-3.9974,-3.878,-3.5564,-3.3807,-3.3807,-3.3807,-3.3807,-3.3807,-3.382,-3.439,-3.55,-3.55,-3.55,-3.55,-3.55,-3.55,-3.55,-3.55,-3.4851,-3.3807,-3.3807,-3.3807,-3.3928,-3.5077,-3.55,-3.5534,-3.5885,-3.5996,-3.5996,-3.5996,-3.5996,-3.5949,-3.5574,-3.3135,-3.0404,-3.0404,-3.0404,-3.0404,-3.0404,-3.0404,-3.0404,-3.0404,-3.0404,-3.0404,-3.0404,-3.0404,-2.9225,-2.506,-2.419,-2.4199,-2.4199,-2.4809,-2.5308,-2.5308,-2.5308,-2.5308,-2.5308,-2.5308,-2.5308,-2.5308,-2.5308,-2.5308,-2.5308,-2.5308,-2.5308,-2.5308,-2.5549,-2.5703,-2.5703,-2.5703,-2.5703,-2.5703,-2.5703,-2.5703,-2.5703,-2.5703,-2.5703,-2.5703,-2.5425,-2.5288,-2.5308,-2.5308,-2.5308,-2.5308,-2.5308,-2.5308,-2.5308,-2.5308,-2.5459,-2.5703,-2.5703,-2.5703,-2.5703,-2.5703,-2.5703,-2.5703,-4.0496,-4.0496,-4.0496,-4.0496,-4.0496,-4.0202,-3.9364,-3.8931,-3.8707,-3.8707,-3.8707,-3.8707,-3.8707,-3.9778,-4.0496,-4.0496,-4.0496,-4.0496,-4.0496,-4.0496,-4.0345,-3.9984,-3.6,-3.3807,-3.3807,-3.3807,-3.3807,-3.3807,-3.4605,-3.5171,-3.55,-3.55,-3.55,-3.55,-3.55,-3.55,-3.55,-3.55,-3.4851,-3.3807,-3.3807,-3.3807,-3.3928,-3.5077,-3.55,-3.5534,-3.5885,-3.5996,-3.5996,-3.5996,-3.5996,-3.5521,-3.2784,-3.1212,-3.0404,-3.0404,-3.0404,-3.0404,-3.0404,-3.0404,-3.0404,-3.0404,-3.0404,-3.0404,-3.0404,-3.0404,-2.9225,-2.506,-2.419,-2.4366,-2.4877,-2.5154,-2.5308,-2.5308,-2.5308,-2.5308,-2.5308,-2.5308,-2.5308,-2.5308,-2.5308,-2.5308,-2.5308,-2.5308,-2.5308,-2.5308,-2.5549,-2.5703,-2.5703,-2.5703,-2.5703,-2.5703,-2.5703,-2.5703,-2.5703,-2.5703,-2.5703,-2.5703,-2.5628,-2.5488,-2.5308,-2.5308,-2.5308,-2.5308,-2.5308,-2.5308,-2.5308,-2.5308,-2.5357,-2.5434,-2.5631,-2.5703,-2.5703,-2.5703,-2.5703,-2.5703,-4.0414,-4.0496,-4.0496,-4.0496,-4.0496,-4.0082,-3.8873,-3.8707,-3.8707,-3.8707,-3.8707,-3.8873,-3.9364,-4.0063,-4.0496,-4.0496,-4.0496,-4.0496,-4.0496,-4.0496,-4.0496,-4.0496,-3.7907,-3.5619,-3.3839,-3.3807,-3.3807,-3.3807,-3.4934,-3.55,-3.55,-3.55,-3.55,-3.55,-3.55,-3.55,-3.546,-3.5015,-3.4434,-3.3807,-3.3807,-3.3807,-3.3928,-3.5077,-3.55,-3.5534,-3.5885,-3.5996,-3.5996,-3.5996,-3.5901,-3.5412,-3.3131,-3.2423,-3.2154,-3.0808,-3.0404,-3.0404,-3.0404,-3.0404,-3.0404,-3.0404,-3.0404,-3.0404,-3.0404,-3.0404,-2.9692,-2.7171,-2.5336,-2.4435,-2.5165,-2.5308,-2.5308,-2.5308,-2.5308,-2.5308,-2.5308,-2.5308,-2.5308,-2.5308,-2.5308,-2.5308,-2.5308,-2.5395,-2.5459,-2.5459,-2.5604,-2.5703,-2.5703,-2.5703,-2.5703,-2.5703,-2.5703,-2.5703,-2.5703,-2.5703,-2.5703,-2.5703,-2.5703,-2.5556,-2.5308,-2.5308,-2.5308,-2.5308,-2.5308,-2.5308,-2.5308,-2.5308,-2.5308,-2.5336,-2.5598,-2.5703,-2.5703,-2.5703,-2.5703,-2.5703,-4.0266,-4.0496,-4.0496,-4.0496,-4.0414,-3.9974,-3.8877,-3.8707,-3.8707,-3.8707,-3.8707,-3.9168,-4.0362,-4.0496,-4.0496,-4.0496,-4.0496,-4.0496,-4.0496,-4.0496,-4.0496,-4.0496,-4.0496,-3.8395,-3.3902,-3.3807,-3.3807,-3.3807,-3.4841,-3.5398,-3.55,-3.55,-3.55,-3.55,-3.55,-3.55,-3.5439,-3.439,-3.3889,-3.3807,-3.3807,-3.3868,-3.4074,-3.5102,-3.55,-3.5534,-3.5885,-3.5996,-3.5996,-3.5996,-3.5788,-3.55,-3.55,-3.55,-3.4885,-3.1769,-3.0635,-3.0416,-3.0433,-3.0444,-3.0444,-3.0444,-3.0425,-3.0404,-3.0404,-3.0404,-3.0404,-3.0404,-2.7388,-2.4881,-2.5234,-2.5308,-2.5308,-2.5308,-2.5308,-2.5308,-2.5308,-2.5308,-2.5308,-2.5308,-2.5308,-2.5308,-2.5308,-2.5545,-2.5703,-2.5703,-2.5703,-2.5703,-2.5703,-2.5703,-2.5703,-2.5703,-2.5703,-2.5703,-2.5703,-2.5703,-2.5703,-2.5703,-2.5703,-2.5556,-2.5308,-2.5308,-2.5308,-2.5308,-2.5308,-2.5308,-2.5308,-2.5308,-2.5313,-2.5359,-2.5603,-2.5703,-2.5703,-2.5703,-2.5703,-2.5703,-4.0266,-4.0496,-4.0496,-4.0496,-3.9724,-3.9013,-3.8735,-3.8707,-3.8707,-3.8707,-3.8707,-3.9168,-4.0362,-4.0496,-4.0496,-4.0496,-4.0496,-4.0496,-4.0496,-4.0496,-4.0496,-4.0496,-4.0496,-3.8395,-3.3902,-3.3807,-3.3807,-3.3807,-3.4049,-3.4626,-3.55,-3.55,-3.55,-3.55,-3.55,-3.55,-3.5486,-3.5239,-3.4615,-3.3807,-3.3807,-3.4334,-3.5163,-3.5417,-3.55,-3.5534,-3.5885,-3.5996,-3.5996,-3.5996,-3.5788,-3.55,-3.55,-3.55,-3.5346,-3.4615,-3.25,-3.0465,-3.072,-3.0798,-3.0798,-3.0798,-3.0582,-3.0404,-3.0404,-3.0404,-3.0404,-3.0404,-2.9673,-2.83,-2.5763,-2.5308,-2.5308,-2.5308,-2.5308,-2.5308,-2.5308,-2.5308,-2.5308,-2.5308,-2.5308,-2.5308,-2.5308,-2.5545,-2.5703,-2.5703,-2.5703,-2.5703,-2.5703,-2.5703,-2.5703,-2.5703,-2.5703,-2.5703,-2.5703,-2.5703,-2.5703,-2.5703,-2.5703,-2.5556,-2.5308,-2.5308,-2.5308,-2.5308,-2.5308,-2.5308,-2.5308,-2.5308,-2.5415,-2.5628,-2.5682,-2.5703,-2.5703,-2.5703,-2.5703,-2.5703,-4.0266,-4.0496,-4.0328,-3.9746,-3.9114,-3.8707,-3.8707,-3.8707,-3.8707,-3.8707,-3.8707,-3.9168,-4.0362,-4.0496,-4.0496,-4.0496,-4.0496,-4.0496,-4.0496,-4.0496,-4.0496,-4.0496,-4.0496,-3.9397,-3.7047,-3.4903,-3.4074,-3.4615,-3.4615,-3.4916,-3.55,-3.55,-3.55,-3.55,-3.55,-3.55,-3.55,-3.55,-3.5163,-3.4615,-3.4615,-3.4971,-3.55,-3.55,-3.55,-3.5534,-3.5885,-3.5996,-3.5996,-3.5996,-3.5889,-3.5714,-3.5547,-3.55,-3.55,-3.55,-3.4231,-3.2552,-3.1252,-3.0898,-3.0898,-3.0898,-3.0768,-3.0605,-3.0433,-3.0404,-3.0404,-3.0404,-3.0404,-2.9846,-2.8058,-2.6404,-2.5308,-2.5308,-2.5308,-2.5308,-2.5308,-2.5308,-2.5308,-2.5308,-2.5308,-2.5342,-2.5485,-2.5628,-2.5703,-2.5703,-2.5703,-2.5703,-2.5703,-2.5703,-2.5703,-2.5703,-2.5703,-2.5703,-2.5703,-2.5703,-2.5703,-2.5703,-2.5703,-2.5556,-2.5308,-2.5308,-2.5308,-2.5308,-2.5308,-2.5308,-2.5308,-2.5308,-2.5459,-2.5703,-2.5703,-2.5703,-2.5703,-2.5703,-2.5703,-2.5703,-4.0266,-4.0496,-4.0129,-3.8902,-3.8707,-3.8707,-3.8707,-3.8707,-3.8707,-3.8707,-3.8707,-3.9168,-4.0362,-4.0496,-4.0496,-4.0496,-4.0496,-4.0496,-4.0496,-4.0496,-4.0496,-4.0496,-4.0496,-4.0227,-3.9669,-3.5991,-3.4467,-3.5203,-3.5203,-3.5312,-3.55,-3.55,-3.55,-3.55,-3.55,-3.55,-3.55,-3.55,-3.55,-3.55,-3.55,-3.55,-3.55,-3.55,-3.55,-3.5541,-3.5802,-3.5951,-3.5996,-3.5996,-3.5996,-3.5949,-3.5612,-3.55,-3.55,-3.55,-3.5547,-3.4894,-3.1744,-3.0898,-3.0898,-3.0898,-3.0898,-3.0806,-3.0477,-3.0404,-3.0404,-3.0404,-3.0404,-3.0404,-3.0404,-2.7615,-2.5308,-2.5308,-2.5308,-2.5308,-2.5308,-2.5308,-2.5308,-2.5308,-2.5308,-2.5409,-2.5662,-2.5703,-2.5703,-2.5703,-2.5703,-2.5703,-2.5703,-2.5703,-2.5703,-2.5703,-2.5703,-2.5703,-2.5703,-2.5703,-2.5703,-2.5703,-2.5658,-2.552,-2.5308,-2.5308,-2.5308,-2.5308,-2.5308,-2.5308,-2.5293,-2.5361,-2.5506,-2.5703,-2.5703,-2.5703,-2.5703,-2.5703,-2.5703,-2.5703,-4.0266,-4.0496,-4.0129,-3.8902,-3.8707,-3.8707,-3.8707,-3.8707,-3.8707,-3.8707,-3.8707,-3.9168,-4.0362,-4.0496,-4.0496,-4.0496,-4.0496,-4.0496,-4.0496,-4.0496,-4.0496,-4.0496,-4.0496,-3.9142,-3.6231,-3.5572,-3.487,-3.4024,-3.4024,-3.4524,-3.55,-3.55,-3.55,-3.55,-3.55,-3.55,-3.55,-3.55,-3.55,-3.55,-3.55,-3.55,-3.55,-3.55,-3.55,-3.5514,-3.5547,-3.5746,-3.5996,-3.5996,-3.5996,-3.5949,-3.5612,-3.55,-3.55,-3.55,-3.5706,-3.5207,-3.1816,-3.0898,-3.0898,-3.0898,-3.0898,-3.0806,-3.0477,-3.0404,-3.0404,-3.0404,-3.0404,-3.0404,-3.0404,-2.7615,-2.5308,-2.5308,-2.5308,-2.5308,-2.5308,-2.5308,-2.5308,-2.5308,-2.5308,-2.5409,-2.5662,-2.5703,-2.5703,-2.5703,-2.5703,-2.5703,-2.5703,-2.5703,-2.5703,-2.5703,-2.5703,-2.5703,-2.5703,-2.5703,-2.5703,-2.5703,-2.5468,-2.5335,-2.5308,-2.5308,-2.5308,-2.5308,-2.5308,-2.5308,-2.5322,-2.5551,-2.5661,-2.5703,-2.5703,-2.5703,-2.5703,-2.5703,-2.5703,-2.5703,-4.0266,-4.0496,-4.0129,-3.8902,-3.8707,-3.8707,-3.8707,-3.8707,-3.8707,-3.8707,-3.8707,-3.9168,-4.0362,-4.0496,-4.0496,-4.0496,-4.0496,-4.0496,-4.0496,-4.0496,-4.0496,-4.0496,-4.0496,-3.8931,-3.5577,-3.55,-3.4934,-3.3807,-3.3807,-3.439,-3.55,-3.55,-3.55,-3.55,-3.55,-3.55,-3.55,-3.55,-3.55,-3.55,-3.55,-3.55,-3.55,-3.55,-3.55,-3.55,-3.55,-3.5596,-3.5725,-3.5725,-3.5725,-3.5693,-3.556,-3.55,-3.55,-3.55,-3.5744,-3.5254,-3.1836,-3.0898,-3.0898,-3.0898,-3.0898,-3.0806,-3.0477,-3.0404,-3.0404,-3.0404,-3.0404,-3.0404,-3.0404,-2.9173,-2.7519,-2.5615,-2.5308,-2.5308,-2.5308,-2.5308,-2.5308,-2.5308,-2.5428,-2.5564,-2.5683,-2.5703,-2.5703,-2.5703,-2.5703,-2.5703,-2.5703,-2.5703,-2.5703,-2.5703,-2.5703,-2.5703,-2.5703,-2.5703,-2.5703,-2.5703,-2.559,-2.5444,-2.5308,-2.5308,-2.5308,-2.5308,-2.5308,-2.5399,-2.5537,-2.5658,-2.5703,-2.5703,-2.5703,-2.5703,-2.5703,-2.5703,-2.5703,-2.5703]},{"header":{"parameterUnit":"m.s-1","parameterCategory":1,"la1":30.6,"la2":28.766,"lo1":-90.7593,"lo2":-88.6598,"dy":0.0162,"dx":0.0183,"nx":116,"ny":114,"refTime":"2024-07-03T18:00:00:Z","depth":0,"parameterNumber":3,"parameterNumberName":"V-component_of_WINDS"},"data":[0.0,0.0,0.0,0.0,0.0,0.0,0.0,0.0,0.0,0.0,0.0,0.0,0.0,0.0,0.0,0.0,0.0,0.0,0.0,0.0,0.0,0.0,0.0,0.0,0.0,0.0,0.0,0.0,0.0,0.0,0.0,0.0,0.0,0.0,0.0,0.0,0.0,0.0,0.0,0.0,0.0,0.0,0.0,0.0,0.0,0.0,0.0,0.0,0.0,0.0,0.0,0.0,0.0,0.0,0.0,0.0,0.0,0.0,0.0,0.0,0.0,0.0,0.0,0.0,0.0,0.0,0.0,0.0,0.0,0.0,0.0,0.0,0.0,0.0,0.0,0.0,0.0,0.0,0.0,0.0,0.0,0.0,0.0,0.0,0.0,0.0,0.0,0.0,0.0,0.0,0.0,0.0,0.0,0.0,0.0,0.0,0.0,0.0,0.0,0.0,0.0,0.0,0.0,0.0,0.0,0.0,0.0,0.0,0.0,0.0,0.0,0.0,0.0,0.0,0.0,0.0,0.0,0.0,0.0,0.0,0.0,0.0,0.0,0.0,0.0,0.0,0.0,0.0,0.0,0.0,0.0,0.0,0.0,0.0,0.0,0.0,0.0,0.0,0.0,0.0,0.0,0.0,0.0,0.0,0.0,0.0,0.0,0.0,0.0,0.0,0.0,0.0,0.0,0.0,0.0,0.0,0.0,0.0,0.0,0.0,0.0,0.0,0.0,0.0,0.0,0.0,0.0,0.0,0.0,0.0,0.0,0.0,0.0,0.0,0.0,0.0,0.0,0.0,0.0,0.0,0.0,0.0,0.0,0.0,0.0,0.0,0.0,0.0,0.0,0.0,0.0,0.0,0.0,0.0,0.0,0.0,0.0,0.0,0.0,0.0,0.0,0.0,0.0,0.0,0.0,0.0,0.0,0.0,0.0,0.0,0.0,0.0,0.0,0.0,0.0,0.0,0.0,0.0,0.0,0.0,0.0,0.0,0.0,0.0,0.0,0.0,0.0,0.0,0.0,0.0,0.0,0.0,0.0,0.0,0.0,0.0,0.0,0.0,0.0,0.0,0.0,0.0,0.0,0.0,0.0,0.0,0.0,0.0,0.0,0.0,0.0,0.0,0.0,0.0,0.0,0.0,0.0,0.0,0.0,0.0,0.0,0.0,0.0,0.0,0.0,0.0,0.0,0.0,0.0,0.0,0.0,0.0,0.0,0.0,0.0,0.0,0.0,0.0,0.0,0.0,0.0,0.0,0.0,0.0,0.0,0.0,0.0,0.0,0.0,0.0,0.0,0.0,0.0,0.0,0.0,0.0,0.0,0.0,0.0,0.0,0.0,0.0,0.0,0.0,0.0,0.0,0.0,0.0,0.0,0.0,0.0,0.0,0.0,0.0,0.0,0.0,0.0,0.0,0.0,0.0,0.0,0.0,0.0,0.0,0.0,0.0,0.0,0.0,0.0,0.0,0.0,0.0,0.0,0.0,0.0,0.0,0.0,0.0,0.0,0.0,0.0,0.0,0.0,0.0,0.0,0.0,0.0,0.0,0.0,0.0,0.0,0.0,0.0,0.0,0.0,0.0,0.0,0.0,0.0,0.0,0.0,0.0,0.0,0.0,0.0,0.0,0.0,0.0,0.0,0.0,0.0,0.0,0.0,0.0,0.0,0.0,0.0,0.0,0.0,0.0,0.0,0.0,0.0,0.0,0.0,0.0,0.0,0.0,0.0,0.0,0.0,0.0,0.0,0.0,0.0,0.0,0.0,0.0,0.0,0.0,0.0,0.0,0.0,0.0,0.0,0.0,0.0,0.0,0.0,0.0,0.0,0.0,0.0,0.0,0.0,0.0,0.0,0.0,0.0,0.0,0.0,0.0,0.0,0.0,0.0,0.0,0.0,0.0,0.0,0.0,0.0,0.0,0.0,0.0,0.0,0.0,0.0,0.0,0.0,0.0,0.0,0.0,0.0,0.0,0.0,0.0,0.0,0.0,0.0,0.0,0.0,0.0,0.0,0.0,0.0,0.0,0.0,0.0,0.0,0.0,0.0,0.0,0.0,0.0,0.0,0.0,0.0,0.0,0.0,0.0,0.0,0.0,0.0,0.0,0.0,0.0,0.0,0.0,0.0,0.0,0.0,0.0,0.0,0.0,0.0,0.0,0.0,0.0,0.0,0.0,0.0,0.0,0.0,0.0,0.0,0.0,0.0,0.0,0.0,0.0,0.0,0.0,0.0,0.0,0.0,0.0,0.0,0.0,0.0,0.0,0.0,0.0,0.0,0.0,0.0,0.0,0.0,0.0,0.0,0.0,0.0,0.0,0.0,0.0,0.0,0.0,0.0,0.0,0.0,0.0,0.0,0.0,0.0,0.0,0.0,0.0,0.0,0.0,0.0,0.0,0.0,0.0,0.0,0.0,0.0,0.0,0.0,0.0,0.0,0.0,0.0,0.0,0.0,0.0,0.0,0.0,0.0,0.0,0.0,0.0,0.0,0.0,0.0,0.0,0.0,0.0,0.0,0.0,0.0,0.0,0.0,0.0,0.0,0.0,0.0,0.0,0.0,0.0,0.0,0.0,0.0,0.0,0.0,0.0,0.0,0.0,0.0,0.0,0.0,0.0,0.0,0.0,0.0,0.0,0.0,0.0,0.0,0.0,0.0,0.0,0.0,0.0,0.0,0.0,0.0,0.0,0.0,0.0,0.0,0.0,0.0,0.0,0.0,0.0,0.0,0.0,0.0,0.0,0.0,0.0,0.0,0.0,0.0,0.0,0.0,0.0,0.0,0.0,0.0,0.0,0.0,0.0,0.0,0.0,0.0,0.0,0.0,0.0,0.0,0.0,0.0,0.0,0.0,0.0,0.0,0.0,0.0,0.0,0.0,0.0,0.0,0.0,0.0,0.0,0.0,0.0,0.0,0.0,0.0,0.0,0.0,0.0,0.0,0.0,0.0,0.0,0.0,0.0,0.0,0.0,0.0,0.0,0.0,0.0,0.0,0.0,0.0,0.0,0.0,0.0,0.0,0.0,0.0,0.0,0.0,0.0,0.0,0.0,0.0,0.0,0.0,0.0,0.0,0.0,0.0,0.0,0.0,0.0,0.0,0.0,0.0,0.0,0.0,0.0,0.0,0.0,0.0,0.0,0.0,0.0,0.0,0.0,0.0,0.0,0.0,0.0,0.0,0.0,0.0,0.0,0.0,0.0,0.0,0.0,0.0,0.0,0.0,0.0,0.0,0.0,0.0,0.0,0.0,0.0,0.0,0.0,0.0,0.0,0.0,0.0,0.0,0.0,0.0,0.0,0.0,0.0,0.0,0.0,0.0,0.0,0.0,0.0,0.0,0.0,0.0,0.0,0.0,0.0,0.0,0.0,0.0,0.0,0.0,0.0,0.0,0.0,0.0,0.0,0.0,0.0,0.0,0.0,0.0,0.0,0.0,0.0,0.0,0.0,0.0,0.0,0.0,0.0,0.0,0.0,0.0,0.0,0.0,0.0,0.0,0.0,0.0,0.0,0.0,0.0,0.0,0.0,0.0,0.0,0.0,0.0,0.0,0.0,0.0,0.0,0.0,0.0,0.0,0.0,0.0,0.0,0.0,0.0,0.0,0.0,0.0,0.0,0.0,0.0,0.0,0.0,0.0,0.0,0.0,0.0,0.0,0.0,0.0,0.0,0.0,0.0,0.0,0.0,0.0,0.0,0.0,0.0,0.0,0.0,0.0,0.0,0.0,0.0,0.0,0.0,0.0,0.0,0.0,0.0,0.0,0.0,0.0,0.0,0.0,0.0,0.0,0.0,0.0,0.0,0.0,0.0,0.0,0.0,0.0,0.0,0.0,0.0,0.0,0.0,0.0,0.0,0.0,0.0,0.0,0.0,0.0,0.0,0.0,0.0,0.0,0.0,0.0,0.0,0.0,0.0,0.0,0.0,0.0,0.0,0.0,0.0,0.0,0.0,0.0,0.0,0.0,0.0,0.0,0.0,0.0,0.0,0.0,0.0,0.0,0.0,0.0,0.0,0.0,0.0,0.0,0.0,0.0,0.0,0.0,0.0,0.0,0.0,0.0,0.0,0.0,0.0,0.0,0.0,0.0,0.0,0.0,0.0,0.0,0.0,0.0,0.0,0.0,0.0,0.0,0.0,0.0,0.0,0.0,0.0,0.0,0.0,0.0,0.0,0.0,0.0,0.0,0.0,0.0,0.0,0.0,0.0,0.0,0.0,0.0,0.0,0.0,0.0,0.0,0.0,0.0,0.0,0.0,0.0,0.0,0.0,0.0,0.0,0.0,0.0,0.0,0.0,0.0,0.0,0.0,0.0,0.0,0.0,0.0,0.0,0.0,0.0,0.0,0.0,0.0,0.0,0.0,0.0,0.0,0.0,0.0,0.0,0.0,0.0,0.0,0.0,0.0,0.0,0.0,0.0,0.0,0.0,0.0,0.0,0.0,0.0,0.0,0.0,0.0,0.0,0.0,0.0,0.0,0.0,0.0,0.0,0.0,0.0,0.0,0.0,0.0,0.0,0.0,0.0,0.0,0.0,0.0,0.0,0.0,0.0,0.0,0.0,0.0,0.0,0.0,0.0,0.0,0.0,0.0,0.0,0.0,0.0,0.0,0.0,0.0,0.0,0.0,0.0,0.0,0.0,0.0,0.0,0.0,0.0,0.0,0.0,0.0,0.0,0.0,0.0,0.0,0.0,0.0,0.0,0.0,0.0,0.0,0.0,0.0,0.0,0.0,0.0,0.0,0.0,0.0,0.0,0.0,0.0,0.0,0.0,0.0,0.0,0.0,0.0,0.0,0.0,0.0,0.0,0.0,0.0,0.0,0.0,0.0,0.0,0.0,0.0,0.0,0.0,0.0,0.0,0.0,0.0,0.0,0.0,0.0,0.0,0.0,0.0,0.0,0.0,0.0,0.0,0.0,0.0,0.0,0.0,0.0,0.0,0.0,0.0,0.0,0.0,0.0,0.0,0.0,0.0,0.0,0.0,0.0,0.0,0.0,0.0,0.0,0.0,0.0,0.0,0.0,0.0,0.0,0.0,0.0,0.0,0.0,0.0,0.0,0.0,0.0,0.0,0.0,0.0,0.0,0.0,0.0,0.0,0.0,0.0,0.0,0.0,0.0,0.0,0.0,0.0,0.0,0.0,0.0,0.0,0.0,0.0,0.0,0.0,0.0,0.0,0.0,0.0,0.0,0.0,0.0,0.0,0.0,0.0,0.0,0.0,0.0,0.0,0.0,0.0,0.0,0.0,0.0,0.0,0.0,0.0,0.0,0.0,0.0,0.0,0.0,0.0,0.0,0.0,0.0,0.0,0.0,0.0,0.0,0.0,0.0,0.0,0.0,0.0,0.0,0.0,0.0,0.0,0.0,0.0,0.0,0.0,0.0,0.0,0.0,0.0,0.0,0.0,0.0,0.0,0.0,0.0,0.0,0.0,0.0,0.0,0.0,0.0,0.0,0.0,0.0,0.0,0.0,0.0,0.0,0.0,0.0,0.0,0.0,0.0,0.0,0.0,0.0,0.0,0.0,0.0,0.0,0.0,0.0,0.0,0.0,0.0,0.0,0.0,0.0,0.0,0.0,0.0,0.0,0.0,0.0,0.0,0.0,0.0,0.0,0.0,0.0,0.0,0.0,0.0,0.0,0.0,0.0,0.0,0.0,0.0,0.0,0.0,0.0,0.0,0.0,0.0,0.0,0.0,0.0,0.0,0.0,0.0,0.0,0.0,0.0,0.0,0.0,0.0,0.0,0.0,0.0,0.0,0.0,0.0,0.0,0.0,0.0,0.0,0.0,0.0,0.0,0.0,0.0,0.0,0.0,0.0,0.0,0.0,0.0,0.0,0.0,0.0,0.0,0.0,0.0,0.0,0.0,0.0,0.0,0.0,0.0,0.0,0.0,0.0,0.0,0.0,0.0,0.0,0.0,0.0,0.0,0.0,0.0,0.0,0.0,0.0,0.0,0.0,0.0,0.0,0.0,0.0,0.0,0.0,0.0,0.0,0.0,0.0,0.0,0.0,0.0,0.0,0.0,0.0,0.0,0.0,0.0,0.0,0.0,0.0,0.0,0.0,0.0,0.0,0.0,0.0,0.0,0.0,0.0,0.0,-1.0616,-1.0611,0.0,0.0,0.0,0.0,0.0,0.0,0.0,0.0,0.0,0.0,0.0,0.0,0.0,0.0,0.0,0.0,0.0,0.0,0.0,0.0,0.0,0.0,0.0,-0.3329,-0.3909,-0.4451,-0.4736,-0.4893,-0.4893,0.0,0.0,0.0,0.0,0.0,-0.348,-0.3627,-0.4009,-0.466,-0.5072,-0.5806,-0.6836,-0.6819,-0.6735,-0.6584,0.0,0.0,0.0,0.0,0.0,0.0,0.0,0.0,0.0,0.0,0.0,0.0,0.0,0.0,0.0,0.0,0.0,0.0,0.0,0.0,0.0,0.0,0.0,0.0,0.0,0.0,0.0,0.0,0.0,0.0,0.0,0.0,0.0,0.0,0.0,0.0,0.0,0.0,0.0,0.0,0.0,0.0,0.0,0.0,0.0,0.0,0.0,0.0,0.0,0.0,0.0,0.0,0.0,0.0,0.0,0.0,0.0,0.0,0.0,0.0,0.0,0.0,0.0,0.0,0.0,0.0,0.0,0.0,0.0,0.0,-1.3148,-1.3024,0.0,0.0,0.0,0.0,0.0,0.0,0.0,0.0,0.0,0.0,0.0,0.0,0.0,0.0,0.0,0.0,0.0,0.0,0.0,0.0,0.0,-0.2406,-0.3021,-0.3656,-0.4217,-0.4659,-0.4952,-0.5098,-0.5098,-0.4805,0.0,0.0,0.0,-0.3848,-0.39,-0.3996,-0.4649,-0.5905,-0.6231,-0.7303,-0.9058,-0.928,-0.9081,-0.8523,-0.788,0.0,0.0,0.0,0.0,0.0,0.0,0.0,0.0,0.0,0.0,0.0,0.0,0.0,0.0,0.0,0.0,0.0,0.0,0.0,0.0,0.0,0.0,0.0,0.0,0.0,0.0,0.0,0.0,0.0,0.0,0.0,0.0,0.0,0.0,0.0,0.0,0.0,0.0,0.0,0.0,0.0,0.0,0.0,0.0,0.0,0.0,0.0,0.0,0.0,0.0,0.0,0.0,0.0,0.0,0.0,0.0,0.0,0.0,0.0,0.0,0.0,0.0,0.0,-1.65,-1.65,-1.6423,-1.4433,-1.4606,-1.64,-1.4582,-1.4599,-1.5794,-1.3934,0.0,0.0,0.0,0.0,0.0,0.0,0.0,0.0,0.0,0.0,0.0,0.0,0.0,0.0,0.0,0.0,0.0,0.0,0.0,-0.3012,-0.3393,-0.413,-0.4623,-0.4696,-0.4952,-0.5098,-0.5098,-0.4626,0.0,0.0,-0.3817,-0.3657,-0.39,-0.4359,-0.5022,-0.5905,-0.7531,-0.9057,-1.044,-1.0467,-1.0706,-1.1069,-1.0004,-0.9542,-0.9479,0.0,0.0,0.0,0.0,0.0,0.0,0.0,0.0,0.0,0.0,0.0,0.0,0.0,0.0,0.0,0.0,0.0,0.0,0.0,0.0,0.0,0.0,0.0,0.0,0.0,0.0,0.0,0.0,0.0,0.0,0.0,0.0,0.0,0.0,0.0,0.0,0.0,0.0,0.0,0.0,0.0,-0.5446,-0.6965,0.0,0.0,0.0,0.0,0.0,0.0,0.0,0.0,0.0,0.0,0.0,0.0,0.0,-1.5344,-1.5344,-1.5344,-1.5723,-1.65,-1.65,-1.65,-1.65,-1.6173,-1.6207,-1.6475,-1.6187,0.0,-1.6527,-1.8029,0.0,0.0,0.0,0.0,0.0,0.0,0.0,0.0,0.0,0.0,0.0,0.0,0.0,0.0,0.0,0.0,0.0,0.0,0.0,0.0,0.0,-0.454,-0.5153,-0.5301,-0.5637,-0.5731,-0.5508,-0.5269,-0.4896,-0.4332,-0.4222,-0.416,-0.413,-0.4946,-0.623,-0.7976,-0.9868,-1.1231,-1.2109,-1.2441,-1.291,-1.3426,-1.2935,-1.1826,-1.0281,-0.9069,0.0,0.0,0.0,0.0,0.0,0.0,0.0,0.0,0.0,0.0,0.0,0.0,0.0,0.0,0.0,0.0,0.0,0.0,0.0,0.0,0.0,0.0,0.0,0.0,0.0,0.0,0.0,0.0,0.0,0.0,0.0,0.0,0.0,0.0,0.0,0.0,0.0,0.0,0.0,-0.6359,-0.855,-1.054,-1.0117,-0.8833,0.0,0.0,0.0,0.0,0.0,0.0,0.0,0.0,0.0,-1.6828,-1.6624,-1.65,-1.65,-1.65,-1.6286,-1.5872,-1.5872,-1.5872,-1.5872,-1.5872,-1.6788,-1.8355,-1.8355,-1.8355,-1.8338,-1.803,-1.6778,-1.497,0.0,0.0,0.0,0.0,-1.6982,-1.7822,0.0,0.0,0.0,0.0,0.0,0.0,0.0,0.0,0.0,0.0,0.0,0.0,-0.4232,-0.5009,-0.5623,-0.5928,-0.6221,-0.6279,-0.5978,-0.5796,-0.5357,-0.4618,-0.4588,-0.4599,-0.458,-0.6098,-0.8022,-1.0309,-1.2011,-1.3107,-1.3641,-1.4092,-1.4513,-1.4896,-1.4896,-1.3664,-1.15,-1.0421,-0.9404,0.0,0.0,0.0,0.0,0.0,0.0,0.0,0.0,0.0,0.0,0.0,0.0,0.0,0.0,0.0,0.0,0.0,0.0,0.0,0.0,0.0,0.0,0.0,0.0,0.0,0.0,0.0,0.0,0.0,0.0,0.0,0.0,0.0,0.0,0.0,0.0,0.0,0.0,-0.7877,-1.072,-1.2935,-1.3198,-1.194,0.0,0.0,0.0,0.0,0.0,0.0,-1.6683,-1.8644,-1.9716,-1.9729,-1.8174,-1.734,-1.734,-1.6594,-1.5938,-1.541,-1.541,-1.541,-1.541,-1.541,-1.6592,-1.8729,-1.9475,-1.9798,-1.9673,-1.8005,-1.7002,-1.6552,-1.7097,-1.8302,-1.9708,-1.9708,-1.935,-1.865,0.0,0.0,0.0,0.0,0.0,0.0,0.0,0.0,0.0,0.0,0.0,-0.425,-0.5218,-0.5599,-0.5937,-0.6338,-0.6384,-0.6396,0.0,0.0,-0.5399,-0.5347,-0.4683,-0.4637,-0.5338,-0.8147,-1.0489,-1.2246,-1.3438,-1.4286,-1.4808,-1.4846,-1.4859,-1.4896,-1.4896,-1.4538,-1.3846,-1.2722,-1.1476,-1.0124,0.0,0.0,0.0,0.0,0.0,0.0,0.0,0.0,0.0,0.0,0.0,0.0,0.0,0.0,0.0,0.0,0.0,0.0,0.0,0.0,0.0,0.0,0.0,0.0,0.0,0.0,0.0,0.0,0.0,0.0,0.0,0.0,0.0,0.0,0.0,0.0,0.0,0.0,0.0,-1.2935,-1.3198,0.0,0.0,0.0,0.0,-1.5999,-1.813,-1.9363,-1.9498,-1.9633,-1.9731,-1.9775,-1.9686,-1.9635,-1.9635,-1.6861,-1.5438,-1.541,-1.541,-1.541,-1.541,-1.541,-1.5497,-1.5767,-1.8596,-1.9798,-1.9798,-1.9685,-1.8405,-1.6689,-1.8727,-1.9603,-1.9708,-1.9708,-1.8419,-1.6659,0.0,0.0,0.0,-0.0986,-0.1072,-0.1347,-0.207,-0.2227,-0.2615,-0.3619,-0.4258,-0.4814,-0.5338,-0.6146,-0.6689,-0.6836,-0.7086,-0.7125,-0.6865,-0.635,-0.6095,-0.6231,-0.5854,-0.6607,-0.8642,-1.0355,-1.196,-1.3493,-1.4582,-1.5236,-1.5424,-1.5768,-1.5932,-1.5932,-1.5932,-1.5618,-1.506,-1.3972,-1.2785,-1.1588,-1.0659,-0.9122,0.0,0.0,0.0,0.0,0.0,0.0,0.0,0.0,0.0,0.0,0.0,0.0,0.0,0.0,0.0,0.0,0.0,0.0,0.0,0.0,0.0,0.0,0.0,0.0,0.0,0.0,0.0,0.0,0.0,0.0,0.0,0.0,0.0,0.0,0.0,0.0,0.0,-1.5071,-1.408,0.0,-1.4208,-1.4915,-1.5648,-1.6437,-1.8496,-1.973,-1.9758,-1.977,-1.9769,-1.9799,-1.9798,-1.8888,-1.6974,-1.594,-1.541,-1.541,-1.541,-1.541,-1.541,-1.541,-1.541,-1.5575,-1.8504,-2.0614,-2.1804,-2.0401,-1.9346,-1.8691,-1.9459,-1.977,-1.977,-1.977,-1.8093,-1.5786,-0.0374,-0.0565,0.0,-0.1052,-0.1139,-0.1417,-0.2153,-0.2395,-0.2798,-0.3657,-0.4483,-0.5149,-0.5556,-0.6499,-0.7158,-0.7291,-0.754,-0.7593,-0.732,-0.6881,-0.6704,-0.6823,-0.7184,-0.8446,-1.072,-1.2096,-1.3397,-1.4639,-1.5517,-1.5969,-1.5982,-1.6325,-1.65,-1.65,-1.65,-1.6287,-1.5919,-1.5211,-1.4155,-1.291,-1.2165,-1.0907,-0.9358,0.0,0.0,0.0,0.0,0.0,0.0,0.0,0.0,0.0,0.0,0.0,0.0,0.0,0.0,0.0,0.0,0.0,0.0,0.0,0.0,0.0,0.0,0.0,0.0,0.0,0.0,0.0,0.0,0.0,0.0,0.0,0.0,0.0,0.0,-1.2304,-1.487,-1.6325,-1.5209,-1.4895,-1.635,-1.7165,-1.7603,-1.7603,-1.8938,-1.9748,-1.98,-1.9798,-1.9798,-1.9798,-1.9392,-1.8258,-1.6289,-1.6289,-1.6289,-1.6289,-1.6289,-1.6289,-1.6289,-1.6289,-1.6289,-1.6371,-1.8346,-2.0686,-2.2995,-2.1503,-2.0232,-1.9227,-1.9654,-1.9202,-1.8317,-1.8317,-1.7086,-1.541,-0.0374,-0.0567,-0.0794,-0.1058,-0.1222,-0.1471,-0.1934,-0.24,-0.2891,-0.3431,-0.4385,-0.5261,-0.5908,-0.6645,-0.7258,-0.7642,-0.7666,-0.7666,-0.7695,-0.732,-0.7106,-0.7158,-0.8586,-0.9999,-1.1325,-1.3281,-1.4751,-1.5698,-1.6216,-1.6466,-1.65,-1.65,-1.65,-1.65,-1.65,-1.65,-1.65,-1.65,-1.5593,-1.4091,-1.2944,-1.232,-1.1741,0.0,0.0,0.0,0.0,0.0,0.0,0.0,0.0,0.0,0.0,0.0,0.0,0.0,0.0,0.0,0.0,0.0,0.0,0.0,0.0,0.0,0.0,0.0,0.0,0.0,0.0,0.0,0.0,0.0,0.0,0.0,0.0,0.0,-1.3599,-1.5159,-1.65,-1.65,-1.655,-1.66,-1.66,-1.8543,-1.9798,-1.9798,-1.9798,-1.9836,-1.9899,-1.9899,-1.9899,-1.9899,-1.8657,-1.8008,-1.8008,-1.8008,-1.8008,-1.8008,-1.8008,-1.8008,-1.8008,-1.8008,-1.8008,-1.8008,-1.8008,-1.9933,-2.3078,-2.2975,-2.0994,-1.8134,-1.9287,-1.8002,-1.5488,-1.5488,-1.5488,-1.5459,-0.039,-0.0722,-0.1044,-0.1221,-0.1395,-0.1659,-0.2078,-0.2464,-0.2891,-0.3431,-0.4633,-0.5472,-0.5553,-0.6479,-0.7141,-0.7251,-0.6993,-0.7077,-0.7666,-0.7055,-0.7196,-0.8422,-1.0118,-1.1531,-1.2582,-1.3523,-1.4543,-1.5625,-1.577,-1.6073,-1.65,-1.65,-1.65,-1.65,-1.65,-1.65,-1.65,-1.65,-1.6237,-1.5781,-1.5078,-1.41,-1.2986,0.0,0.0,0.0,0.0,0.0,0.0,0.0,0.0,0.0,0.0,0.0,0.0,0.0,0.0,0.0,0.0,0.0,0.0,0.0,0.0,0.0,0.0,0.0,0.0,0.0,0.0,0.0,0.0,0.0,0.0,0.0,-1.5698,-1.6287,-1.5685,-1.6124,-1.65,-1.65,-1.7928,-1.8894,-1.8894,-1.9447,-1.9798,-1.9798,-1.9798,-2.0514,-2.2105,-2.2192,-2.2192,-2.2192,-1.9469,-1.8008,-1.8008,-1.8008,-1.8008,-1.8008,-1.8008,-1.8008,-1.8008,-1.8008,-1.8008,-1.8008,-1.8008,-1.9933,-2.2914,-2.0419,-1.8844,-1.8027,-1.8356,-1.801,-1.7295,-1.7295,-1.7295,-1.7109,-0.0513,-0.0836,-0.1173,-0.1389,-0.1519,-0.1698,-0.1985,-0.2415,-0.2816,-0.3131,-0.4442,-0.5318,-0.5242,-0.6192,-0.685,-0.685,-0.6744,-0.6824,-0.7175,-0.7266,-0.7961,-0.9474,0.0,-1.2362,-1.3077,-1.3861,-1.4675,-1.561,-1.561,-1.5908,-1.65,-1.65,-1.65,-1.65,-1.65,-1.65,-1.65,-1.65,-1.65,-1.6475,-1.617,-1.5365,-1.4341,-1.3858,-1.2185,-0.9976,-0.9101,-0.8799,-0.8626,-0.7613,0.0,0.0,0.0,0.0,0.0,0.0,0.0,0.0,0.0,0.0,0.0,0.0,0.0,0.0,0.0,0.0,0.0,0.0,0.0,0.0,0.0,0.0,0.0,0.0,-1.7265,-1.789,-1.789,-1.789,-1.789,-1.789,-1.9032,-1.9798,-1.9798,-1.8676,-1.8253,-1.8991,-2.0374,-2.1741,-2.3032,-2.3108,-2.3108,-2.3108,-1.977,-1.8008,-1.8008,-1.8008,-1.8008,-1.8008,-1.8008,-1.8008,-1.8008,-1.8008,-1.8008,-1.8008,-1.8008,-1.9133,-2.0803,-1.8811,-1.8008,-1.8008,0.0,0.0,0.0,0.0,-1.8008,-1.7871,-0.0663,-0.0946,-0.1248,-0.1551,-0.1613,-0.1669,-0.1785,-0.2285,-0.2654,-0.2697,-0.3981,-0.4894,-0.4889,-0.5775,-0.6377,-0.6377,-0.6618,-0.6722,-0.6628,-0.7814,-0.9086,-1.0312,-1.1727,-1.2654,-1.3059,-1.4019,-1.4789,-1.541,-1.5477,-1.5798,-1.6402,-1.6466,-1.65,-1.65,-1.65,-1.65,-1.65,-1.65,-1.65,-1.6488,-1.6423,-1.6073,-1.5494,-1.4551,-1.3925,-1.3275,-1.1185,-1.0381,-1.0303,-1.0303,0.0,0.0,0.0,0.0,0.0,0.0,0.0,0.0,0.0,0.0,0.0,0.0,0.0,0.0,0.0,0.0,0.0,0.0,0.0,0.0,0.0,0.0,0.0,0.0,-1.8367,-1.9798,-1.9798,-1.9798,-1.9798,-1.9798,-1.9798,-1.9899,-2.015,-1.7795,-1.6901,-1.8465,-2.1373,-2.3108,-2.3108,-2.3108,0.0,0.0,0.0,-1.8008,-1.8008,-1.8008,-1.8008,-1.8008,-1.8203,-1.8301,-1.8301,-1.8301,-1.8193,-1.8008,-1.8008,-1.8008,-1.8008,-1.8008,-1.8008,-1.8008,-1.8008,-1.8008,-1.8008,-1.8008,-1.8008,-1.8008,-0.0692,-0.1137,-0.1527,-0.1589,-0.1686,-0.1772,-0.1799,-0.2084,-0.2394,-0.2665,-0.3623,-0.4254,-0.4205,-0.5044,-0.5608,-0.5608,-0.5809,-0.6346,0.0,0.0,-0.9737,-1.0741,-1.1741,-1.2457,-1.2926,-1.3136,-1.3539,-1.4156,-1.4652,-1.5186,-1.5776,-1.6259,-1.65,-1.65,-1.65,-1.65,-1.65,-1.65,-1.65,-1.6457,-1.5974,-1.5698,-1.5484,-1.4498,-1.427,-1.4183,-1.2091,-1.089,-1.0303,-1.0303,-1.0303,-1.0185,-0.951,0.0,0.0,0.0,0.0,0.0,0.0,0.0,0.0,0.0,0.0,0.0,0.0,0.0,0.0,0.0,0.0,0.0,0.0,0.0,0.0,-1.6425,-1.8367,-1.9798,-1.9798,-1.9798,-1.9798,-1.9798,-1.9798,-2.0514,-2.2293,-2.196,-2.1759,-2.2077,-2.272,-2.3108,-2.3108,-2.3108,-2.3108,-2.3108,-1.977,-1.8008,-1.8008,-1.8008,-1.8008,-1.8027,-1.9451,0.0,-2.0106,-2.0106,-1.9316,-1.8008,-1.8008,-1.8008,-1.8008,-1.8008,-1.8008,-1.8008,-1.8008,-1.8008,-1.8008,-1.8008,-1.8008,-1.8008,-0.0769,-0.1234,-0.1624,-0.1682,-0.1755,-0.1803,-0.1803,-0.2029,-0.2259,-0.2426,-0.3123,-0.3591,-0.3555,-0.4088,-0.4451,-0.4451,-0.4936,0.0,0.0,-0.9044,-1.0122,-1.1499,-1.2197,-1.2656,-1.2895,-1.2905,-1.32,-1.3792,-1.4097,-1.456,-1.5175,-1.5466,-1.5611,-1.5611,-1.592,-1.6051,-1.6073,-1.638,-1.65,-1.6457,-1.5842,-1.541,-1.505,-1.4249,-1.3891,-1.3666,-1.2619,-1.1966,-1.1467,-1.0596,-1.0303,-1.0303,-1.0303,-0.9697,-0.8838,0.0,0.0,0.0,0.0,0.0,0.0,0.0,0.0,0.0,0.0,0.0,0.0,0.0,0.0,-1.5196,-1.63,0.0,-1.8154,-1.8154,-2.0024,-2.144,-2.144,-2.144,-2.144,-2.144,-2.144,-2.1879,-2.2995,-2.3108,-2.3108,-2.3108,-2.3108,-2.3108,-2.3108,-2.3108,-2.3108,-2.3108,-2.0617,-1.9287,-1.9287,-1.9287,-1.9287,-1.9297,-2.0194,-2.0605,-2.0605,-2.0605,-2.0136,-1.9287,-1.9287,-1.9287,-1.9287,-1.9287,-1.8779,-1.8008,-1.8008,-1.8008,-1.8008,-1.8008,-1.8008,-1.8008,-0.0745,-0.1162,-0.1533,-0.176,-0.1803,-0.1803,-0.1803,-0.1986,-0.2139,-0.2193,-0.2622,-0.2952,-0.3017,-0.3266,-0.351,0.0,0.0,0.0,0.0,-0.9334,-1.0374,-1.2128,-1.2646,-1.2905,-1.2905,-1.2905,-1.3152,-1.3624,-1.3745,-1.405,-1.4537,-1.4663,-1.4698,-1.4721,-1.5208,-1.5432,-1.5454,-1.5942,-1.6151,-1.6107,-1.5499,-1.496,-1.4468,-1.3849,-1.3324,-1.2905,-1.2905,-1.2905,-1.269,-1.1281,-1.0577,-1.0303,-1.0303,-1.0303,-1.0029,-0.8607,-0.7958,0.0,0.0,0.0,0.0,0.0,0.0,0.0,0.0,0.0,-1.65,-1.65,-1.6839,-1.714,-1.714,-1.8606,-1.9949,-2.0376,-2.1929,-2.3108,-2.3108,-2.3108,-2.3108,-2.3108,-2.3108,-2.3108,-2.3108,-2.3108,-2.3108,-2.3108,-2.2494,-2.2585,-2.3691,-2.3747,-2.3747,-2.3747,-2.1721,-2.0605,-2.0605,-2.0605,-2.0605,-2.0605,-2.0605,-2.0605,-2.0605,-2.0605,-2.0605,-2.0605,-2.0605,-2.0605,-2.0605,-2.0605,-1.9756,-1.8506,-1.8506,-1.8301,-1.8008,-1.8008,-1.8008,-1.8008,-0.045,-0.0742,-0.1156,-0.17,-0.1803,-0.1803,-0.1803,-0.1825,-0.1935,-0.2172,-0.2254,-0.2415,-0.2711,-0.298,-0.3546,-0.4568,0.0,0.0,-0.8742,-0.955,-1.0614,-1.2138,-1.2646,-1.2905,-1.2905,-1.2905,-1.292,-1.2992,-1.3552,-1.3815,-1.3909,-1.4445,-1.4698,-1.4698,-1.4766,-1.4789,-1.4812,-1.488,-1.4903,-1.4858,-1.4226,-1.3956,-1.3815,-1.3224,-1.2968,-1.2905,-1.2905,-1.2905,-1.2876,-1.268,-1.1584,-1.0303,-1.0303,-1.0303,-1.0263,-1.0068,0.0,-0.8041,-0.959,-1.1007,-1.2061,-1.2279,-1.4216,-1.6006,0.0,0.0,-1.65,-1.65,-1.8055,-1.9434,-1.9434,-1.9635,-2.0451,-2.2406,-2.2945,-2.3108,-2.3108,-2.3108,-2.3108,-2.3108,-2.3108,-2.3108,-2.3108,-2.3108,-2.3108,-2.3108,-2.029,-2.0783,-2.584,-2.6122,-2.6122,-2.6122,-2.2519,-2.0605,-2.0605,-2.0605,-2.0605,-2.0605,-2.0605,-2.0605,-2.0605,-2.0605,-2.0605,-2.0605,-2.0605,-2.0605,-2.0605,-2.0605,-2.0498,-2.0321,-2.0321,-1.9346,-1.8008,-1.8008,-1.8008,-1.8008,-0.0366,-0.0512,-0.0746,-0.1203,-0.128,-0.1327,-0.1485,-0.1507,-0.1615,-0.1924,-0.1968,-0.2022,-0.2165,-0.2276,-0.2807,-0.394,-0.4499,-0.5735,-0.7995,-0.9271,-1.0481,-1.1682,-1.2493,-1.2905,-1.2905,-1.2905,-1.2905,-1.2905,-1.3152,-1.3286,-1.3286,-1.3515,-1.3658,-1.3681,-1.4014,-1.4167,-1.419,-1.4537,-1.4698,-1.4663,-1.405,-1.3792,-1.3697,-1.2643,-1.2535,-1.2905,-1.2905,-1.2905,0.0,0.0,-0.8982,-0.8387,-0.8387,-0.9262,-1.0303,-1.0303,-0.9775,0.0,-1.1349,-1.1604,-1.1962,0.0,-1.5744,-1.6839,-1.8141,-1.843,-1.843,-1.843,-1.9158,-1.9798,-1.9798,-1.9222,-1.9696,0.0,-2.3108,-2.3108,-2.3108,-2.3108,-2.3108,-2.3108,-2.3108,-2.3108,-2.3108,-2.3108,-2.3647,-2.4971,-2.374,-2.3997,-2.6368,-2.6499,-2.6499,-2.6499,-2.2664,-2.0605,-2.0605,-2.0605,-2.0605,-2.0605,-2.0605,-2.0605,-2.0605,-2.0605,-2.0605,-2.0605,-2.0605,-2.0605,-2.0605,-2.0605,-2.0605,-2.0605,-2.0605,-2.0165,-1.9375,-1.8379,-1.8008,-1.8008,-0.0257,-0.029,-0.0368,-0.0615,-0.0648,-0.0771,-0.1139,-0.1252,-0.1385,-0.1626,-0.1748,-0.1803,-0.1803,-0.1803,-0.2196,-0.3198,-0.3904,-0.5167,-0.7217,-0.8773,-1.0164,-1.1351,-1.2249,0.0,-1.2905,-1.2905,-1.2905,-1.2905,-1.2905,-1.2905,-1.2905,-1.2905,-1.2905,-1.2929,-1.3348,-1.3552,-1.3576,-1.4014,-1.4201,-1.4177,-1.3742,-1.3423,-1.312,-1.2087,-1.1963,-1.2363,-1.2749,-1.2905,0.0,0.0,-0.7,-0.7,-0.7,-0.8529,-1.0303,-1.0303,-1.0645,-1.1301,-1.2563,0.0,0.0,-1.6495,-1.7403,-1.784,-1.9434,-1.9798,-1.9798,-1.9798,-2.03,-2.0405,-1.9487,-1.8595,-1.8811,-2.1279,-2.2494,-2.3108,-2.3108,-2.3108,-2.3108,-2.3108,-2.3108,-2.3108,-2.3108,-2.3108,-2.4054,-2.6323,-2.6499,-2.6499,-2.6499,-2.6499,-2.6499,-2.6499,-2.2664,-2.0605,-2.0605,-2.0605,-2.0605,-2.0605,-2.0605,-2.0605,-2.0605,-2.0605,-2.0605,-2.0605,-2.0605,-2.0605,-2.0605,-2.0605,-2.0605,-2.0605,-2.0605,-2.0605,-2.0458,-1.917,-1.8711,-1.8711,-0.0011,-0.0011,-0.0011,-0.0022,-0.0022,-0.0224,-0.0825,-0.1127,-0.1308,-0.131,-0.1596,-0.1803,-0.1803,-0.1803,-0.2046,-0.2669,-0.3507,-0.479,-0.6604,-0.8112,-0.967,-1.1323,-1.1915,-1.2428,-1.2895,-1.2905,-1.2905,-1.2905,-1.2905,-1.2905,-1.2905,-1.2905,-1.2905,-1.2905,-1.2929,-1.2929,-1.2929,-1.2954,-1.2954,-1.2954,-1.292,-1.2501,-1.1818,-1.1542,-1.1175,-1.1049,-1.2412,0.0,0.0,0.0,-0.7,-0.7,-0.7,-0.8529,0.0,-1.0303,-1.1496,0.0,0.0,0.0,-1.686,-1.9121,-1.9698,-1.9723,-1.9786,-1.9798,-1.9798,-1.9798,-2.1503,-2.1986,-1.8673,-1.8003,-1.8042,-1.8134,-2.093,-2.3108,-2.3108,-2.3108,-2.3108,-2.3108,-2.3108,-2.3108,-2.3108,-2.3108,-2.4054,-2.6323,-2.6499,-2.6499,-2.6499,-2.6499,-2.6499,-2.6499,-2.2664,-2.0605,-2.0605,-2.0605,-2.0605,-2.0605,-2.0605,-2.0605,-2.0605,-2.0605,-2.0605,-2.0605,-2.0605,-2.0605,-2.0605,-2.0605,-2.0605,-2.0605,-2.0605,-2.0605,-2.0595,-2.0546,-2.0527,-2.0527,0.0,0.0,0.0,0.0,0.0,-0.0067,-0.0269,-0.0715,-0.1094,-0.1274,-0.1596,0.0,0.0,0.0,0.0,0.0,-0.3131,-0.3979,-0.5349,-0.6896,-0.8193,-0.9165,-1.0786,-1.1743,-1.1907,-1.2546,-1.2905,-1.2905,-1.2905,-1.2905,-1.2905,-1.2905,-1.2905,-1.2905,-1.2905,-1.2905,-1.2905,-1.2905,-1.2608,-1.2163,-1.2163,-1.1749,-1.1099,-1.0731,-1.0466,-1.0273,0.0,0.0,0.0,0.0,-0.6506,-0.6005,-0.676,0.0,0.0,-1.1692,0.0,-1.2905,0.0,0.0,-1.8882,-1.961,-1.9798,-2.0188,-2.1641,-2.0838,-1.9578,-1.8768,-1.8287,-1.765,-1.6484,-1.6279,-1.666,-1.7822,-2.0855,-2.3622,-2.5134,-2.4067,-2.3108,-2.3108,-2.3108,-2.3108,-2.3108,-2.3108,-2.3409,-2.4205,-2.5657,-2.6499,-2.6499,-2.6499,-2.5311,-2.2664,-2.1308,-2.0605,-2.0605,-2.0605,-2.0605,-2.0605,-2.0605,-2.0605,-2.0605,-2.0605,-2.0605,-2.0605,-2.0605,-2.0605,-2.0605,-2.0605,-2.0605,-2.0605,-2.0605,-2.0605,-2.0605,-2.0605,-2.0605,-2.0605,0.0,0.0,0.0,0.0,0.0,0.0,0.0,0.0,0.0,0.0,0.0,0.0,0.0,0.0,0.0,0.0,0.0,-0.3306,-0.4132,-0.5743,-0.6944,-0.756,-0.9346,-1.0418,-1.0561,-1.1203,-1.1578,-1.1682,-1.1682,-1.1724,-1.1817,-1.1817,-1.1817,-1.1817,-1.1817,-1.1901,-1.2007,-1.1882,-1.1619,-1.1272,-1.0969,-1.0398,-0.969,-0.9445,-0.9124,0.0,0.0,0.0,0.0,0.0,0.0,0.0,0.0,0.0,0.0,0.0,-1.2905,-1.3267,-1.491,-1.7541,-1.9798,-1.9798,-2.0401,-2.134,-2.2782,-2.1992,-2.0237,-1.7611,-1.6191,-1.541,-1.541,-1.541,-1.5781,-1.6904,-2.0452,-2.3916,-2.6185,-2.4544,-2.3396,-2.423,-2.3597,-2.3421,0.0,-2.4318,-2.396,-2.3158,-2.3893,-2.5016,-2.6418,-2.6499,-2.4684,-2.0712,-2.0605,-2.0605,-2.0605,-2.0605,-2.0605,-2.0605,-2.0605,-2.0605,-2.0605,-2.0605,-2.0605,-2.0605,-2.0605,-2.0605,-2.0605,-2.0605,-2.0605,-2.0605,-2.0605,-2.0605,-2.0605,-2.0605,-2.0605,-2.0605,0.0,0.0,0.0,0.0,0.0,0.0,0.0,0.0,0.0,0.0,0.0,0.0,0.0,0.0,0.0,0.0,0.0,0.0,-0.3062,0.0,0.0,-0.6575,-0.7698,-0.8521,-0.8976,-0.905,-0.9182,-0.9457,-0.9457,-0.9592,-0.9863,-0.9863,-0.984,-0.9818,-0.9818,-0.9987,-1.0241,-0.9937,-0.9941,-1.0137,-0.9313,-0.8461,-0.7704,-0.7699,0.0,0.0,0.0,0.0,0.0,0.0,0.0,0.0,0.0,0.0,0.0,0.0,0.0,-1.4049,-1.8698,-1.9974,-1.9974,-1.9974,-2.154,-2.3108,-2.3108,-2.2887,-2.1308,-1.6401,-1.5342,-1.5283,-1.5283,0.0,-1.5312,-1.5446,-1.9748,-2.3916,-2.6185,-2.4632,-2.4092,0.0,0.0,0.0,0.0,0.0,0.0,-2.3434,-2.1816,-2.2553,-2.6314,-2.6499,-2.4684,-2.0712,-2.0605,-2.0605,-2.0605,-2.0605,-2.0605,-2.0605,-2.0605,-2.0605,-2.0605,-2.0605,-2.0605,-2.0605,-2.0605,-2.0605,-2.0605,-2.0605,-2.0605,-2.0605,-2.0605,-2.0605,-2.0605,-2.0605,-2.0605,-2.0605,0.0,0.0,0.0,0.0,0.0,0.0,0.0,0.0,0.0,0.0,0.0,0.0,0.0,0.0,0.0,0.0,0.0,0.0,0.0,0.0,0.0,0.0,0.0,0.0,-0.7523,-0.8214,0.0,0.0,0.0,-0.8894,-0.9302,-0.9302,-0.9119,0.0,-0.8781,-0.8667,-0.8468,-0.8374,-0.8101,-0.7687,0.0,-0.6918,-0.6227,0.0,0.0,0.0,0.0,0.0,0.0,0.0,0.0,0.0,0.0,0.0,-1.2328,0.0,0.0,-1.5871,-2.0904,-2.2255,-2.2255,-2.2255,-2.2681,-2.3108,-2.3108,-2.0115,-1.7007,-1.5663,-1.4404,-1.3551,-1.3551,-1.3551,0.0,-1.5938,-2.0091,0.0,-2.6185,-2.6009,0.0,-2.6424,0.0,-2.5871,-2.6436,-2.6499,0.0,-2.5695,-2.5218,-2.5429,-2.6465,-2.6499,-2.4684,-2.0712,-2.0605,-2.0605,-2.0605,-2.0605,-2.0605,-2.0605,-2.0605,-2.0605,-2.0605,-2.0605,-2.0605,-2.0605,-2.0605,-2.0605,-2.0605,-2.0605,-2.0605,-2.0605,-2.0605,-2.0605,-2.0605,-2.0605,-2.0605,-2.0605,0.0,0.0,0.0,0.0,0.0,0.0,0.0,0.0,0.0,0.0,0.0,0.0,0.0,0.0,0.0,0.0,0.0,0.0,0.0,0.0,0.0,0.0,0.0,0.0,-0.5467,-0.6065,0.0,0.0,0.0,0.0,0.0,-0.7694,-0.7582,-0.7131,-0.7131,-0.6959,-0.6699,0.0,0.0,0.0,0.0,0.0,0.0,0.0,0.0,0.0,0.0,0.0,0.0,0.0,0.0,-1.1614,-1.2602,-1.3389,-1.4238,-1.5535,0.0,-1.8188,-2.2056,-2.3108,-2.3108,-2.3108,-2.3108,-2.2844,-2.1866,-1.8406,-1.5195,-1.4453,-1.2603,0.0,-1.2676,-1.2279,0.0,0.0,0.0,0.0,-2.6185,-2.6499,-2.6499,0.0,-2.7802,0.0,-2.6658,-2.6499,-2.6499,-2.6499,-2.4909,-2.3916,-2.3916,-2.3916,-2.3231,-2.1742,-2.0997,-1.9668,-1.777,-1.773,-1.87,-2.0605,-2.0605,-2.0605,-2.0605,-2.0605,-2.0605,-2.0605,-2.0605,-2.0605,-2.0605,-2.0605,-2.0605,-2.0605,-2.0605,-2.0605,-2.0605,-2.0605,-2.0605,-2.0605,0.0,0.0,0.0,0.0,0.0,0.0,0.0,0.0,0.0,0.0,0.0,0.0,0.0,0.0,0.0,0.0,0.0,0.0,0.0,0.0,0.0,0.0,0.0,0.0,0.0,0.0,0.0,0.0,0.0,0.0,0.0,0.0,0.0,0.0,0.0,0.0,0.0,0.0,0.0,0.0,0.0,0.0,0.0,0.0,0.0,0.0,0.0,0.0,0.0,0.0,-1.5107,-1.3433,-1.373,-1.4812,-1.6479,-1.9059,-2.0012,-2.0665,-2.2581,-2.3108,-2.3108,-2.3108,-2.3108,-2.243,-1.9809,-1.7055,-1.4547,-1.2739,0.0,-0.939,-1.2058,-1.132,-1.1428,-1.4853,0.0,-2.328,-2.5716,-2.6311,-2.6499,-2.6499,-2.9066,-2.98,-2.7201,-2.6939,-2.6669,-2.6102,-2.2853,-2.0948,-2.0948,-2.0948,-2.1592,-2.3052,-2.1043,-1.8148,-1.4358,-1.4162,-1.6,-1.9756,-2.0323,-2.0605,-2.0605,-2.0605,-2.0605,-2.0605,-2.0605,-2.0605,-2.0605,-2.0605,-2.0605,-2.0605,-2.0605,-2.0605,-2.0605,-2.0605,-2.0605,-2.0605,0.0,0.0,0.0,0.0,0.0,0.0,0.0,0.0,0.0,0.0,0.0,0.0,0.0,0.0,0.0,0.0,0.0,0.0,0.0,0.0,0.0,0.0,0.0,0.0,0.0,0.0,0.0,0.0,0.0,0.0,0.0,0.0,0.0,0.0,0.0,0.0,0.0,0.0,0.0,0.0,0.0,0.0,0.0,0.0,0.0,0.0,0.0,0.0,0.0,0.0,-1.6216,-1.6191,-1.8043,-1.8794,-1.915,-1.9643,-2.1117,-2.2606,-2.2995,-2.3108,-2.3108,-2.3108,-2.3108,-2.189,-1.7216,-1.471,0.0,0.0,-0.8345,-0.8012,-1.0326,-1.0508,-1.1428,-1.4853,0.0,0.0,0.0,0.0,-2.6499,0.0,0.0,0.0,-2.9101,-2.9214,0.0,-2.396,-2.306,-2.2652,-2.2652,-2.2652,-2.2789,-2.3081,-1.888,-1.6285,-1.5524,-1.4569,-1.4496,-1.5262,-1.8859,-2.0605,-2.0605,-2.0605,-2.0605,-2.0605,-2.0605,-2.0605,-2.0605,-2.0605,-2.0605,-2.0605,-2.0605,-2.0605,-2.0605,-2.0605,-2.0605,-2.0605,0.0,0.0,0.0,0.0,0.0,0.0,0.0,0.0,0.0,0.0,-0.2067,0.0,0.0,0.0,0.0,0.0,0.0,0.0,0.0,0.0,0.0,0.0,0.0,0.0,0.0,0.0,0.0,0.0,0.0,0.0,0.0,0.0,0.0,0.0,0.0,0.0,0.0,0.0,0.0,0.0,0.0,0.0,0.0,0.0,0.0,0.0,0.0,0.0,0.0,0.0,-1.3961,-1.6889,-1.9108,-1.9798,-1.9798,-1.9798,-2.1352,-2.3108,-2.3108,-2.3108,-2.3108,-2.3108,-2.1081,-1.8228,-1.4854,0.0,0.0,0.0,-0.7399,-0.7328,-0.8387,0.0,0.0,0.0,0.0,0.0,0.0,0.0,0.0,0.0,0.0,0.0,0.0,-2.9792,-2.7959,-2.343,-2.3091,-2.3091,-2.3091,-2.0666,-1.9306,-1.9306,-1.7016,-1.5784,-1.5784,-1.5271,-1.4689,-1.4173,-1.9404,-2.1435,-2.0605,-2.0605,-2.0605,-2.0605,-2.0605,-2.0605,-2.0605,-2.0605,-2.0605,-2.0605,-2.0605,-2.0605,-2.0605,-2.0605,-2.0605,-2.0605,0.0,0.0,0.0,0.0,0.0,0.0,0.0,0.0,-0.2065,-0.2051,-0.2153,-0.2155,-0.1976,-0.1601,0.0,0.0,0.0,0.0,0.0,0.0,0.0,0.0,0.0,0.0,0.0,0.0,0.0,0.0,0.0,0.0,0.0,0.0,0.0,0.0,0.0,0.0,0.0,0.0,0.0,0.0,0.0,0.0,0.0,0.0,0.0,0.0,0.0,0.0,0.0,0.0,-1.1085,-1.5147,-1.8159,-1.9095,-1.9196,-1.966,-2.1041,-2.2493,-2.297,-2.3108,-2.3108,-2.3108,-1.9697,-1.5742,-1.3437,-1.2612,0.0,0.0,-0.7,-0.7,-0.7,0.0,0.0,0.0,0.0,0.0,0.0,0.0,0.0,0.0,0.0,0.0,-2.9792,-2.9792,0.0,-2.343,-2.2129,-2.1543,-2.1543,-1.7886,-1.5784,-1.5784,-1.5784,-1.5784,-1.5784,-1.5784,-1.5371,-1.4506,-1.9979,-2.1875,-2.0605,-2.0605,-2.0605,-2.0605,-2.0605,-2.0605,-2.0605,-2.0605,-2.0605,-2.0605,-2.0605,-2.0605,-2.0605,-2.0605,-2.0605,-2.0605,0.0,0.0,0.0,0.0,0.0,0.0,0.0,0.0,-0.1783,-0.213,-0.1882,-0.1708,-0.181,-0.1674,0.0,0.0,0.0,0.0,0.0,0.0,0.0,0.0,0.0,0.0,0.0,0.0,0.0,0.0,0.0,0.0,0.0,0.0,0.0,0.0,0.0,0.0,0.0,0.0,0.0,0.0,0.0,0.0,0.0,0.0,0.0,0.0,0.0,0.0,0.0,0.0,0.0,-0.9472,-1.5061,-1.6801,-1.7212,-1.9208,0.0,0.0,-2.2556,-2.3108,-2.3108,-2.3108,-2.1219,-1.8245,-1.3887,0.0,0.0,-0.7496,-0.7,-0.7,-0.7,-0.7093,0.0,0.0,0.0,-1.3475,0.0,0.0,0.0,0.0,0.0,0.0,-2.9792,-2.9792,-2.7959,-2.343,-1.8985,-1.6473,-1.6473,-1.6062,-1.5784,-1.5784,-1.5784,-1.5784,-1.5784,-1.5784,-1.5724,-1.5705,-1.9186,-2.0762,-2.0605,-2.0605,-2.0605,-2.0605,-2.0605,-2.0605,-2.0605,-2.0605,-2.0605,-2.0605,-2.0605,-2.0605,-2.0605,-2.0605,-2.0605,-2.0605,0.0,0.0,0.0,0.0,0.0,0.0,0.0,-0.1014,-0.1452,-0.1521,-0.1545,-0.1392,-0.1005,-0.1017,0.0,0.0,0.0,0.0,0.0,0.0,0.0,0.0,0.0,0.0,0.0,0.0,0.0,0.0,0.0,0.0,0.0,0.0,0.0,0.0,0.0,0.0,0.0,0.0,0.0,0.0,0.0,0.0,0.0,0.0,0.0,0.0,0.0,0.0,0.0,0.0,0.0,0.0,-1.2025,-1.2755,0.0,0.0,-1.6352,-1.8008,-2.2026,-2.3108,-2.2628,-2.0536,-1.857,-1.6407,-1.3551,0.0,-0.8059,-0.7189,-0.7,-0.7,-0.7,-0.7,-0.751,-0.9094,-1.1346,-1.3257,-1.4258,0.0,0.0,0.0,0.0,0.0,0.0,0.0,-2.6705,-1.9273,-1.6882,-1.5784,-1.5784,-1.5784,-1.5784,-1.5784,-1.8664,-2.0215,-2.0215,-2.0215,-2.0215,-2.0198,-2.0464,-2.0605,-2.0605,-2.0605,-2.0605,-2.0605,-2.0605,-2.0605,-2.0605,-2.0605,-2.0605,-2.0605,-2.0605,-2.0605,-2.0605,-2.0605,-2.0605,-2.0605,0.0,0.0,0.0,0.0,0.0,0.0,0.0012,-0.0493,-0.0856,-0.0833,-0.0924,-0.0794,-0.0278,-0.0309,-0.0415,-0.0503,0.0,0.0,0.0,0.0,0.0,0.0,0.0,0.0,0.0,0.0,0.0,0.0,0.0,0.0,0.0,0.0,0.0,0.0,0.0,0.0,0.0,0.0,0.0,0.0,0.0,0.0,0.0,0.0,0.0,0.0,0.0,0.0,0.0,0.0,0.0,0.0,0.0,0.0,0.0,0.0,-1.373,-1.5545,-1.969,-2.0825,-2.0243,-1.7821,-1.6318,-1.4971,0.0,-0.9835,-0.7,-0.7,-0.7,-0.7,-0.7,-0.7,-0.7,-0.7,-1.0326,-1.3301,-1.4492,0.0,0.0,0.0,0.0,-2.9063,-2.9729,-2.8581,-2.4482,-1.6412,-1.5784,-1.5784,-1.5784,-1.5784,-1.5784,-1.5784,-2.0531,-2.3091,-2.3091,-2.1676,-2.0944,-2.0926,-1.9407,-1.9344,-2.0605,-2.0605,-2.0605,-2.0605,-2.0605,-2.0605,-2.0605,-2.0605,-2.0605,-2.0605,-2.0605,-2.0605,-2.0605,-2.0605,-2.0605,-2.0605,0.0,0.0,0.0,0.0,0.0,0.0,0.0,0.0273,0.0087,-0.0174,0.0025,0.0187,0.0199,0.0315,0.039,0.039,0.0,0.0,0.0,0.0,0.0,0.0,0.0,0.0,0.0,0.0,0.0,0.0,0.0,0.0,0.0,0.0,0.0,0.0,0.0,0.0,0.0,0.0,0.0,0.0,0.0,0.0,0.0,0.0,0.0,0.0,0.0,0.0,0.0,0.0,0.0,0.0,0.0,0.0,0.0,0.0,-1.2915,-1.3297,-1.4999,-1.5498,-1.5469,-1.5439,-1.542,-1.4971,0.0,-0.9835,-0.7,-0.7,-0.7,-0.7,-0.7,-0.7,-0.7,-0.7,-1.0326,-1.2915,-1.2925,-1.5028,0.0,0.0,0.0,-2.7392,-2.9578,-2.5797,-2.1123,-1.615,-1.5784,-1.5784,-1.5784,-1.5784,-1.5784,-1.5784,-2.0531,-2.3091,-2.3091,-1.8303,-1.5872,-1.5859,-1.473,-1.6437,-2.0605,-2.0605,-2.0605,-2.0605,-2.0605,-2.0605,-2.0605,-2.0605,-2.0605,-2.0605,-2.0605,-2.0605,-2.0605,-2.0605,-2.0605,-2.0605,0.0,0.0,0.0,0.0,0.0,0.0,0.0,0.0,0.118,0.0862,0.0896,0.0886,0.0692,0.0712,0.0747,0.0747,0.0,0.0,0.0,0.0,0.0,0.0,0.0,0.0,0.0,0.0,0.0,0.0,0.0,0.0,0.0,0.0,0.0,0.0,0.0,0.0,0.0,0.0,0.0,0.0,0.0,0.0,0.0,0.0,0.0,0.0,0.0,0.0,0.0,0.0,0.0,0.0,0.0,0.0,0.0,-0.7699,-1.0176,-1.3023,-1.3535,-1.4531,-1.541,-1.541,-1.4541,-1.3063,-1.0637,-0.8495,-0.7,-0.7,-0.7,-0.7,-0.7,-0.7,-0.7,-0.7,-1.0326,0.0,0.0,0.0,0.0,0.0,-2.2397,-2.5661,-2.9428,-2.5755,-2.1078,-1.615,-1.5784,-1.5784,-1.5784,-1.5784,-1.5784,-1.5784,-2.0531,-2.3091,-2.3091,-1.8257,-1.5784,-1.5764,-1.4643,-1.6396,-2.0605,-2.0605,-2.0605,-2.0605,-2.0605,-2.0605,-2.0605,-2.0605,-2.0605,-2.0605,-2.0605,-2.0605,-2.0605,-2.0605,-2.0605,-2.0605,0.0,0.0,0.0,0.0,0.0,0.0,0.0,0.0,0.2065,0.1858,0.1822,0.177,0.1598,0.1463,0.1383,0.1383,0.0,0.0,0.0,0.0,0.0,0.0,0.0,0.0,0.0,0.0,0.0,0.0,0.0,0.0,0.0,0.0,0.0,0.0,0.0,0.0,0.0,0.0,0.0,0.0,0.0,0.0,-0.5293,0.0,0.0,0.0,0.0,0.0,0.0,0.0,0.0,0.0,0.0,0.0,0.0,0.0,-0.7546,-1.0218,0.0,-1.1789,-1.2218,-1.2218,-1.1449,-1.0351,-0.908,-0.7859,-0.7,-0.7,-0.7,-0.7,-0.7,-0.7,-0.7,-0.7,-1.0839,0.0,0.0,0.0,0.0,-2.2137,0.0,0.0,-2.9528,-2.5755,-2.1078,-1.615,-1.5784,-1.5784,-1.5784,-1.5784,-1.5578,-1.5184,-1.8109,-2.0512,-2.2126,-1.9142,-1.7617,-1.7609,-1.6886,-1.7971,-2.0605,-2.0605,-2.0605,-2.0605,-2.0605,-2.0605,0.0,-2.0605,-2.0605,-2.0605,-2.0605,-2.0605,-2.0605,-2.0605,-2.0605,-2.0605,0.0,0.0,0.0,0.0,0.0,0.0,0.0,0.0,0.0,0.0,0.0,0.2719,0.2697,0.2423,0.0,0.0,0.0,0.0,0.0,0.0,0.0,0.0,0.0,0.0,0.0,0.0,0.0,-0.7511,-0.7637,-0.7725,-0.7753,0.0,0.0,0.0,0.0,0.0,0.0,0.0,0.0,0.0,-0.2406,-0.3699,0.0,0.0,0.0,0.0,0.0,0.0,0.0,0.0,0.0,0.0,0.0,0.0,0.0,0.0,0.0,0.0,0.0,-0.7779,-0.7,-0.7,-0.7,-0.7293,-0.843,-0.7799,0.0,-0.7,-0.7,-0.7,-0.7,-0.7,-0.7042,-0.7203,-1.1744,0.0,0.0,0.0,0.0,0.0,-2.8322,-2.9464,-2.9181,-2.5069,-2.0597,-1.6143,-1.5704,-1.5658,-1.5658,-1.5658,-1.5211,-1.4122,-1.4088,-1.6198,-2.0566,-2.0605,-2.0605,-2.0605,-2.0605,-2.0605,-2.0605,-2.0605,-2.0605,-2.0605,-2.0605,-2.0605,-2.0605,-2.0605,-2.0605,-2.0605,-2.0605,-2.0605,-2.0605,-2.0605,-2.0605,-2.0605,0.0,0.0,0.0,0.0,0.0,0.0,0.0,0.0,0.0,0.0,0.0,0.2929,0.2719,0.2627,0.0,0.0,0.0,0.0,0.0,0.0,0.0,0.0,0.0,0.0,0.0,0.0,0.0,-0.571,-0.7044,-0.8051,-0.8675,-0.7621,0.0,0.0,0.0,0.0,0.0,0.0,0.0,0.0,-0.1949,-0.3326,0.0,0.0,0.0,0.0,-0.3929,-0.5302,0.0,0.0,0.0,0.0,0.0,0.0,0.0,0.0,-0.5293,-0.5414,-0.5976,0.0,-0.7,-0.7,-0.7,-0.7073,0.0,-0.72,-0.7,0.0,0.0,-0.7,-0.7,-0.7,-0.7551,-0.9242,0.0,0.0,0.0,0.0,0.0,-2.6361,-2.6964,-2.6106,-2.3075,-1.878,-1.6118,-1.5805,-1.5003,-1.4496,-1.4496,-1.4496,-1.4369,-1.4095,-1.4088,-1.6198,-2.0566,-2.0605,-2.0605,-2.0605,-2.0605,-2.0605,-2.0605,-2.0605,-2.0605,-2.0605,-2.0605,-2.0605,-2.0605,-2.0605,-2.0605,-2.0605,-2.0605,-2.0605,-2.0605,-2.0605,-2.0605,-2.0605,0.0,0.0,0.0,0.0,0.0,0.0,0.0,0.0,0.0,0.0,0.0,0.0,0.0,0.0,0.0,0.0,0.0,0.0,0.0,0.0,0.0,0.0,0.0,0.0,0.0,0.0,0.0,0.0,0.0,-0.8353,0.0,0.0,0.0,0.0,0.0,0.0,0.0,0.0,0.0,0.0,-0.1803,0.0,0.0,0.0,0.0,0.0,-0.4058,-0.5727,0.0,-0.7695,-0.7695,-0.7695,0.0,0.0,0.0,0.0,-0.5293,-0.5293,-0.5293,-0.5755,-0.6226,-0.6226,-0.6226,-0.6226,-0.6226,0.0,0.0,0.0,0.0,0.0,-0.7,0.0,0.0,0.0,-1.2289,0.0,0.0,0.0,0.0,-2.6499,-2.4909,-2.2962,-2.0828,-1.6642,-1.4349,-1.4983,-1.4442,-1.4088,-1.4088,-1.4088,-1.4088,-1.4088,-1.4088,-1.6198,-2.0566,-2.0605,-2.0605,-2.0605,-2.0605,-2.0605,-2.0605,-2.0605,-2.0605,-2.0605,-2.0605,-2.0605,-2.0605,-2.0605,-2.0605,-2.0605,-2.0605,-2.0605,-2.0605,-2.0605,-2.0605,-2.0605,0.0,0.0,0.0,0.0,0.0,0.0,0.0,0.0,0.0,0.0,0.0,0.0,0.0,0.0,0.0,0.0,0.0,0.0,0.0,0.0,0.0,0.0,0.0,0.0,0.0,0.0,0.0,0.0,0.0,0.0,0.0,0.0,-0.9031,0.0,0.0,0.0,0.0,0.0,0.0,0.0,-0.1803,0.0,0.0,0.0,0.0,0.0,0.0,0.0,0.0,-0.7608,-0.7695,-0.7695,-0.7695,0.0,0.0,0.0,0.0,0.0,-0.5293,-0.5293,-0.538,-0.5742,-0.5836,-0.5789,-0.5608,0.0,0.0,0.0,0.0,0.0,0.0,0.0,0.0,0.0,0.0,0.0,-2.2182,-2.5059,-2.628,-2.5687,-2.2627,-2.0605,-2.0605,-1.6642,-1.4088,-1.4088,-1.4088,-1.4088,-1.4088,-1.4088,-1.4088,-1.4088,-1.4088,-1.5869,-1.959,-2.0284,-2.0605,-2.0605,-2.0605,-2.0605,-2.0605,-2.0605,-2.0605,-2.0605,-2.0605,-2.0605,-2.0605,-2.0605,-2.0605,-2.0605,-2.0605,-2.0605,-2.0605,-2.0605,-2.0605,-2.0566,0.0,0.0,0.0,0.0,0.0,0.0,0.0,0.0,0.0,0.0,0.0,0.0,0.0,0.0,0.0,0.0,0.0,0.0,0.0,0.0,0.0,0.0,0.0,0.0,0.0,0.0,0.0,0.0,0.0,0.0,-0.8139,-0.96,-0.8601,0.0,0.0,0.0,0.0,0.0,0.0,-0.1803,-0.1803,0.0,0.0,0.0,0.0,0.0,0.0,0.0,0.0,-0.7199,-0.7695,-0.7695,-0.7695,0.0,0.0,0.0,0.0,0.0,-0.5293,-0.5293,-0.5775,-0.7769,-0.8263,-0.8003,-0.6966,0.0,0.0,0.0,0.0,0.0,0.0,0.0,0.0,0.0,0.0,-1.6901,0.0,0.0,-2.5276,-2.1886,-2.0972,-2.0605,-2.0605,-1.6642,-1.4088,-1.4088,-1.4088,-1.4088,-1.4088,-1.4088,-1.4088,-1.4088,-1.4088,-1.4412,-1.5103,-1.874,-2.0605,-2.0605,-2.0605,-2.0605,-2.0605,-2.0605,-2.0605,-2.0605,-2.0605,-2.0605,-2.0605,-2.0605,-2.0605,-2.0605,-2.0605,-2.0605,-2.0605,-2.0605,-2.0605,-2.04,0.0,0.0,0.0,0.0,0.0,0.0,0.0,0.0,0.0,0.0,0.0,0.0,0.0,0.0,0.0,0.0,0.0,0.0,0.0,0.0,0.0,0.0,0.0,0.0,0.0,0.0,0.0,0.0,0.0,-0.7262,-0.9084,-0.8079,-0.677,-0.5192,0.0,0.0,0.0,0.0,0.0,-0.1803,0.0,0.0,0.0,0.0,0.0,0.0,0.0,0.0,0.0,0.0,-0.6917,-0.7695,-0.7695,0.0,0.0,0.0,0.0,0.0,-0.5293,-0.6231,-0.7448,-0.8537,-0.8323,-0.7846,-0.7939,0.0,0.0,0.0,0.0,0.0,0.0,0.0,-1.2018,-1.5138,0.0,-1.7948,-2.1296,-2.2656,-2.2627,-2.0828,-1.8541,-1.709,-1.709,-1.5269,-1.4088,-1.4088,-1.4088,-1.4088,-1.4088,-1.4088,-1.4088,-1.4088,-1.4088,-1.4088,-1.4088,-1.6075,-1.8252,-2.0605,-2.0605,-2.0605,-2.0605,-2.0605,-2.0605,-2.0605,-2.0605,-2.0605,-2.0605,-2.0605,-2.0605,-2.0605,-2.0605,-2.0605,-2.0498,-1.9521,-1.7889,-1.6009,0.0,0.0,0.0,0.0,0.0,0.0,0.0,0.0,0.0,0.0,0.0,0.0,0.0,0.0,0.0,0.0,0.0,0.0,0.0,0.0,0.0,0.0,0.0,0.0,0.0,0.0,-0.5302,-0.571,-0.6119,-0.7282,-0.9078,-0.6511,-0.5087,0.0,0.0,0.0,0.0,0.0,-0.1803,-0.1825,0.0,0.0,0.0,0.0,0.0,0.0,0.0,0.0,0.0,0.0,0.0,0.0,0.0,0.0,0.0,-0.5773,-0.5293,-0.5293,-0.5293,-0.6607,-0.8049,-0.8317,-0.8367,-0.8633,-0.9546,0.0,0.0,0.0,0.0,0.0,0.0,-1.3228,0.0,-1.7519,-1.835,-1.8728,-1.9012,-1.9067,-1.9067,-1.9067,-1.6116,-1.4088,-1.4088,-1.4088,-1.4088,-1.4088,-1.4088,-1.4088,-1.4088,-1.4088,-1.4088,-1.4088,-1.4088,-1.4088,-1.4088,-1.4088,-1.6281,-2.0605,-2.0605,-2.0605,-2.0605,-2.0605,-2.0605,-2.0605,-2.0605,-2.0605,-2.0605,-2.0605,-2.0605,-2.0605,-2.0605,-2.0361,-1.973,-1.7498,-1.4799,-1.2305,0.0,0.0,0.0,0.0,0.0,0.0,0.0,0.0,0.0,0.0,0.0,0.0,0.0,0.0,0.0,0.0,0.0,0.0,0.0,0.0,0.0,0.0,0.0,0.0,0.0,-0.4567,-0.5896,-0.7511,-0.9131,-0.846,-0.5655,-0.5413,-0.4436,-0.2849,0.0,0.0,0.0,0.0,0.0,-0.1891,-0.2944,0.0,0.0,0.0,0.0,0.0,0.0,0.0,0.0,0.0,0.0,0.0,0.0,0.0,-0.7392,-0.5773,-0.5293,-0.5293,-0.5293,-0.542,-0.5816,-0.686,-0.9817,0.0,-1.2598,-1.2603,0.0,-1.2603,0.0,0.0,0.0,-1.417,-1.584,-1.7705,-1.9346,-1.9049,-1.5137,-1.458,-1.458,-1.458,-1.4292,-1.4088,-1.4088,-1.4088,-1.4088,-1.4088,-1.4088,-1.4088,-1.4088,-1.4088,-1.4088,-1.4088,-1.4088,-1.4088,-1.4088,-1.4088,-1.6281,-2.0605,-2.0605,-2.0605,-2.0605,-2.0605,-2.0605,-2.0605,-2.0605,-2.0605,-2.0605,-2.0605,-2.0605,-2.0605,-2.0605,-1.959,-1.7741,-1.4049,-1.2556,-1.2305,0.0,0.0,0.0,0.0,0.0,0.0,0.0,0.0,0.0,0.0,0.0,0.0,0.0,0.0,0.0,0.0,0.0,0.0,0.0,0.0,0.0,0.0,0.0,-0.2335,-0.3474,-0.5613,-0.7044,-0.7695,-0.737,-0.5993,-0.3707,-0.4794,0.0,0.0,0.0,0.0,0.0,0.0,0.0,-0.1902,-0.3046,-0.39,0.0,0.0,0.0,0.0,0.0,0.0,0.0,0.0,-0.5816,-0.6839,-0.7491,-0.7695,-0.7569,-0.6972,-0.6792,-0.6565,-0.5577,-0.5293,-0.5899,-0.8431,0.0,0.0,0.0,-1.292,-1.4453,-1.4453,-1.4453,0.0,0.0,0.0,-1.5986,-1.7725,-1.6569,-1.5142,-1.4226,-1.4088,-1.4088,-1.4088,-1.4088,-1.4088,-1.4088,-1.4088,-1.4088,-1.4088,-1.4088,-1.4088,-1.4088,-1.4088,-1.4088,-1.4088,-1.4088,-1.4088,-1.4088,-1.4088,-1.6281,-2.0605,-2.0605,-2.0605,-2.0605,-2.0605,-2.0018,-1.9033,-2.0136,-2.0605,-2.0605,-2.0605,-2.0605,-2.0498,-1.9394,-1.8584,-1.7545,-1.3694,-1.2305,-1.2622,0.0,0.0,0.0,0.0,0.0,0.0,0.0,0.0,0.0,0.0,0.0,0.0,0.0,0.0,0.0,0.0,0.0,0.0,0.0,0.0,0.0,0.0,0.0,-0.2708,-0.3485,-0.539,-0.6813,-0.7695,-0.5541,-0.387,-0.2729,0.0,0.0,0.0,0.0,0.0,0.0,0.0,0.0,0.0,-0.3185,-0.414,0.0,0.0,0.0,0.0,0.0,0.0,0.0,0.0,-0.5896,-0.6975,-0.753,-0.7326,-0.6985,-0.754,-0.7695,-0.7348,-0.5742,-0.5293,-0.6242,0.0,0.0,0.0,0.0,-1.334,-1.5566,-1.6113,-1.623,0.0,-1.623,0.0,0.0,-1.6109,-1.4019,-1.2719,-1.3921,-1.4088,-1.4088,-1.4088,-1.4088,-1.4088,-1.4088,-1.4088,-1.4088,-1.4088,-1.4088,-1.4088,-1.4088,-1.4088,-1.4088,-1.4088,-1.4088,-1.3908,-1.3527,-1.352,-1.563,-1.9793,-1.9793,-1.9793,-1.9793,-1.9793,-1.9121,-1.8076,-1.9248,-1.9793,-1.9793,-1.9793,-1.9793,-1.9639,-1.8467,-1.8008,-1.7681,-1.5048,-1.4083,-1.4478,0.0,0.0,0.0,0.0,0.0,0.0,0.0,0.0,0.0,0.0,0.0,0.0,0.0,0.0,0.0,0.0,0.0,0.0,0.0,0.0,0.0,0.0,0.0,-0.3485,-0.3485,-0.3487,-0.4866,-0.7652,-0.4327,-0.2696,-0.2696,-0.2692,0.0,0.0,0.0,0.0,0.0,0.0,0.0,0.0,-0.3495,-0.414,-0.5214,0.0,0.0,0.0,0.0,0.0,0.0,0.0,-0.5098,-0.5399,-0.7131,-0.6496,-0.5436,-0.7162,-0.7681,-0.7333,-0.5755,-0.5327,-0.6555,0.0,0.0,0.0,0.0,-1.4209,-1.5878,-1.7656,0.0,-1.8008,-1.7988,-1.6592,-1.4727,-1.264,-1.2305,-1.2719,-1.3901,-1.4068,-1.4068,-1.4068,-1.4068,-1.4068,-1.4068,-1.4068,-1.4068,-1.4068,-1.4082,-1.4082,-1.4068,-1.4068,-1.4068,-1.4068,-1.4068,-1.3541,-1.2385,-1.2342,-1.4263,-1.8008,-1.8008,-1.8008,-1.8008,-1.8008,-1.8008,-1.8008,-1.8008,-1.8008,-1.8008,-1.8008,-1.8008,-1.8008,-1.8008,-1.8008,-1.8008,-1.8008,-1.8008,-1.8008,0.0,0.0,0.0,0.0,0.0,0.0,0.0,0.0,0.0,0.0,0.0,0.0,0.0,0.0,0.0,0.0,0.0,0.0,0.0,0.0,0.0,0.0,0.0,0.0,0.0,0.0,-0.3347,-0.4189,-0.3192,-0.2696,0.0,0.0,0.0,-0.4271,0.0,0.0,0.0,0.0,0.0,0.0,-0.3495,-0.414,-0.5214,0.0,0.0,0.0,0.0,0.0,0.0,0.0,0.0,0.0,-0.57,-0.5574,-0.5339,-0.5869,-0.6014,-0.6268,-0.7439,-0.7762,0.0,0.0,0.0,0.0,0.0,-1.5049,0.0,0.0,-1.8008,-1.7637,-1.6406,-1.6758,-1.616,-1.2852,-1.2305,-1.2425,-1.2779,-1.2832,-1.2832,-1.2832,-1.2832,-1.2832,-1.2832,-1.2832,-1.2832,-1.2832,-1.3607,-1.3721,-1.2879,-1.2832,-1.2832,-1.2832,-1.2832,-1.3948,-1.6298,-1.6298,-1.6862,-1.8008,-1.8008,-1.8008,-1.8008,-1.8008,-1.8008,-1.8008,-1.8008,-1.8008,-1.8008,-1.8008,-1.8008,-1.8008,-1.8008,-1.8008,-1.8008,-1.8008,-1.8008,-1.8008,0.0,0.0,0.0,0.0,0.0,0.0,0.0,0.0,0.0,0.0,0.0,0.3068,0.0,0.0,0.0,0.0,0.0,0.0,0.0,0.0,0.0,0.0,0.0,0.0,0.0,-0.215,-0.2338,0.0,0.0,0.0,0.0,0.0,0.0,-0.5293,0.0,-0.5293,0.0,0.0,0.0,0.0,-0.414,-0.4517,-0.5166,0.0,0.0,0.0,0.0,0.0,0.0,0.0,0.0,0.0,-0.4456,0.0,0.0,-0.5838,-0.5662,-0.5708,-0.7582,0.0,0.0,0.0,0.0,0.0,0.0,0.0,0.0,0.0,-1.6793,-1.5411,-1.4358,-1.5036,-1.4977,-1.2659,-1.2305,-1.2305,-1.2305,-1.2305,-1.2305,-1.2305,-1.2305,-1.2305,-1.2305,-1.2305,-1.2305,-1.2305,-1.2966,-1.3066,-1.2345,-1.2305,-1.2305,-1.2305,-1.2305,-1.4119,-1.7974,-1.8008,-1.8008,-1.8008,-1.8008,-1.8008,-1.8008,-1.8008,-1.8008,-1.8008,-1.8008,-1.7148,-1.572,-1.572,-1.6611,-1.8008,-1.8008,-1.8008,-1.8008,-1.8008,-1.8008,-1.8008,0.0,0.0,0.0965,0.091,0.0,0.0,0.0,0.0,0.0,0.0,0.0,0.2944,0.0,0.0,0.0,0.0101,0.0,0.0,0.0,0.0,0.0,0.0,0.0,0.0,0.0,0.0,0.0,0.0,0.0,0.0,0.0,0.0,-0.4143,-0.5293,0.0,-0.5293,0.0,0.0,0.0,0.0,-0.5098,-0.5274,-0.5512,-0.5215,0.0,0.0,0.0,0.0,0.0,0.0,0.0,0.0,-0.3495,-0.4249,-0.5347,-0.6374,-0.6106,-0.5688,-0.6713,0.0,0.0,0.0,0.0,0.0,0.0,0.0,-1.7906,-1.7545,0.0,-1.2305,-1.2305,-1.2305,-1.2305,-1.2305,-1.2305,-1.2305,-1.2305,-1.2305,-1.2305,-1.2305,-1.2305,-1.2305,-1.2305,-1.2305,-1.2305,-1.2305,-1.2305,-1.2305,-1.2305,-1.2305,-1.2305,-1.2305,-1.2305,-1.4119,-1.7974,-1.8008,-1.8008,-1.8008,-1.8008,-1.8008,-1.8008,-1.8008,-1.8008,-1.7974,-1.7613,-1.5508,-1.2305,-1.2305,-1.4335,-1.751,-1.7862,-1.8008,-1.8008,-1.8008,-1.8008,-1.8008,0.0,0.0,0.1453,0.0982,0.0,0.0,0.0,0.0,0.2161,0.2161,0.2161,0.2077,0.1825,0.1803,0.0,0.0101,-0.1103,0.0,0.0,0.0,0.0,0.0,0.0,0.0,0.0,0.0,0.0,0.0,0.0,0.0,0.0,0.0,0.0,-0.5293,0.0,-0.5293,0.0,0.0,0.0,-0.5098,-0.5098,-0.6619,-0.8586,-0.6065,-0.5098,0.0,0.0,0.0,0.0,0.0,0.0,0.0,-0.3495,-0.3679,-0.3931,-0.4177,-0.5388,-0.668,0.0,-0.7686,0.0,0.0,0.0,0.0,0.0,0.0,-1.7148,-1.4155,-1.2872,-1.2305,-1.2305,-1.2305,-1.2305,-1.2305,-1.2305,-1.2305,-1.2305,-1.2305,-1.2305,-1.2305,-1.2305,-1.2305,-1.2305,-1.2305,-1.2305,-1.2305,-1.2305,-1.2305,-1.2305,-1.2305,-1.2305,-1.2305,-1.2305,-1.4119,-1.7974,-1.8008,-1.8008,-1.8008,-1.8008,-1.8008,-1.8008,-1.8008,-1.8008,-1.7828,-1.4835,-1.3055,-1.2305,-1.2305,-1.2769,-1.3839,-1.6828,-1.8008,-1.8008,-1.8008,-1.8008,-1.8008,0.0,0.0,0.0,0.0,0.0,0.0,0.0,0.0,0.1803,0.1803,0.1803,0.1803,0.1803,0.128,0.0,0.0,-0.1103,-0.1803,0.0,0.0,0.0,0.0,0.0,0.0,0.0,0.0,0.0,0.0,0.0,0.0,0.0,0.0,0.0,-0.5293,0.0,-0.4978,0.0,0.0,0.0,-0.5098,-0.5098,-0.6097,-0.7417,-0.5735,-0.5098,-0.5098,-0.5098,0.0,0.0,0.0,0.0,0.0,0.0,0.0,-0.2686,-0.2686,-0.3756,-0.5239,0.0,0.0,0.0,0.0,0.0,0.0,0.0,-1.9166,-1.6932,-1.3091,-1.2305,-1.2305,-1.2305,-1.2305,-1.2305,-1.2305,-1.2305,-1.2305,-1.2305,-1.2305,-1.2305,-1.2305,-1.2305,-1.2305,-1.2305,-1.2305,-1.2305,-1.2305,-1.2305,-1.2305,-1.2305,-1.2305,-1.2305,-1.2305,-1.4083,-1.5974,-1.7974,-1.8008,-1.8008,-1.8008,-1.8008,-1.8008,-1.8008,-1.8008,-1.8008,-1.7794,-1.3939,-1.2305,-1.2305,-1.2305,-1.2305,-1.2696,-1.6507,-1.8008,-1.8008,-1.8008,-1.8008,-1.8008,0.0,0.0,0.0,0.0,0.0,0.0,0.0,0.0,0.0,0.1491,0.1491,0.1491,0.1491,0.0604,0.0,0.0,0.0,0.0,-0.1803,0.0,0.0,0.0,0.0,0.0,0.0,0.0,0.0,0.0,0.0,0.0,0.0,0.0,0.0,-0.5601,0.0,0.0,0.0,0.0,-0.5098,-0.5098,-0.5098,-0.5098,-0.5098,-0.5098,-0.5098,-0.5098,-0.5098,-0.5098,-0.4942,-0.3859,0.0,0.0,0.0,0.0,-0.1803,-0.1803,-0.2222,-0.3324,0.0,0.0,0.0,0.0,0.0,0.0,0.0,-1.9592,-1.6557,-1.3041,-1.2305,-1.2305,-1.2305,-1.2305,-1.2305,-1.2305,-1.2305,-1.2305,-1.2305,-1.2305,-1.2305,-1.2305,-1.2305,-1.2305,-1.2305,-1.2305,-1.2305,-1.2305,-1.2305,-1.2305,-1.2305,-1.2305,-1.2305,-1.2305,-1.6009,-1.8008,-1.8008,-1.8008,-1.8008,-1.8008,-1.8008,-1.8008,-1.8008,-1.8008,-1.8008,-1.7794,-1.3939,-1.2305,-1.2305,-1.2305,-1.2305,-1.2622,-1.579,-1.701,-1.7113,-1.7759,-1.7579,-1.701,0.0,0.0,0.0,0.0,0.0,0.0,0.0,0.0,0.0,0.0,0.0235,0.0235,0.0235,0.0101,0.0,0.0,-0.1103,-0.1803,0.0,0.0,0.0,0.0,0.0,0.0,0.0,0.0,0.0,0.0,0.0,0.0,0.0,0.0,0.0,-0.6767,0.0,0.0,0.0,0.0,-0.5098,-0.5098,-0.5098,-0.5098,-0.5098,-0.5098,-0.5098,-0.5098,-0.5098,-0.5098,-0.4942,-0.3859,-0.3495,0.0,0.0,0.0,-0.1803,-0.1803,-0.2222,-0.3324,0.0,0.0,0.0,0.0,0.0,0.0,0.0,0.0,-1.5095,0.0,-1.2305,-1.2305,-1.2305,-1.2305,-1.2305,-1.2305,-1.2305,-1.2305,-1.2305,-1.2305,-1.2305,-1.2305,-1.2305,-1.2305,-1.2305,-1.2305,-1.2305,-1.2305,-1.2305,-1.2305,-1.2305,-1.2305,-1.2305,-1.2305,-1.6009,-1.8008,-1.8008,-1.8008,-1.8008,-1.8008,-1.8008,-1.8008,-1.8008,-1.8008,-1.8008,-1.7794,-1.3939,-1.2305,-1.2305,-1.2305,-1.2305,-1.2342,-1.2872,-1.3055,-1.3448,-1.6793,-1.5904,-1.3055,0.0,0.0,0.0,0.0,0.0,0.0,0.0,0.0,0.0,0.0,0.0,0.0,0.0,-0.0604,-0.1003,-0.1003,-0.1491,0.0,0.0,0.0,0.0,0.0,0.0,0.0,0.0,0.0,0.0,0.0,0.0,0.0,0.0,-0.6653,-0.736,0.0,0.0,0.0,0.0,0.0,0.0,-0.4262,-0.4863,-0.5098,-0.5098,-0.5098,-0.5098,-0.5098,-0.5098,-0.5098,-0.503,-0.4557,-0.4452,-0.4472,-0.4238,0.0,0.0,0.0,0.0,0.0,0.0,0.0,0.0,0.0,0.0,0.0,0.0,0.0,-1.2461,-1.1544,-1.1363,-1.1523,-1.2184,-1.2305,-1.2305,-1.2305,-1.2305,-1.2305,-1.2305,-1.2305,-1.2305,-1.2305,-1.2305,-1.2305,-1.2305,-1.2305,-1.2305,-1.2305,-1.2305,-1.2305,-1.2305,-1.2305,-1.2305,-1.2305,-1.3947,-1.5834,-1.7974,-1.8008,-1.8008,-1.7998,-1.7021,-1.7061,-1.794,-1.579,-1.4799,-1.4728,-1.3018,-1.2305,-1.2305,-1.2305,-1.2305,-1.2305,-1.2305,-1.2305,-1.2519,-1.4191,-1.373,-1.2305,0.0,0.0,0.0,0.0,0.0,0.0,0.0,0.0,0.0,0.0,0.0,-0.0458,-0.0458,0.0,0.0,0.0,-0.1803,0.0,0.0,0.0,0.0,0.0,0.0,0.0,0.0,0.0,0.0,0.0,0.0,0.0,-0.3994,-0.829,-0.9196,0.0,-0.6184,0.0,0.0,0.0,0.0,-0.3594,-0.4666,-0.5098,-0.5244,-0.6577,-0.6256,-0.5098,-0.5098,-0.5098,-0.5059,-0.4785,-0.4766,-0.4898,-0.5199,-0.3681,0.0,0.0,0.0,0.0,0.0,0.0,0.0,0.0,0.0,0.0,0.0,0.0,-1.181,-1.181,-1.117,-1.0861,-1.1697,-1.1857,-1.1857,-1.1857,-1.2111,-1.2305,-1.2305,-1.2305,-1.2305,-1.2305,-1.2305,-1.2305,-1.2305,-1.2305,-1.2305,-1.2305,-1.2305,-1.2305,-1.2305,-1.2305,-1.2171,-1.187,-1.1857,-1.3646,-1.7311,-1.7353,-1.7353,-1.7334,-1.6035,-1.5647,-1.6014,-1.3167,-1.2024,-1.2305,-1.2305,-1.2305,-1.2305,-1.2305,-1.2305,-1.2305,-1.2305,-1.2305,-1.2305,-1.2305,-1.2305,-1.2305,0.0,0.0,0.0,0.0,0.0,0.0,0.0,0.0,0.0,0.0,0.0,-0.1703,-0.1703,-0.1759,-0.1803,-0.1803,-0.1803,0.0,0.0,0.0,0.0,0.0,0.0,0.0,0.0,0.0,0.0,0.0,0.0,0.0,-0.5097,-0.8646,-1.1092,-1.2339,-0.858,-0.635,-0.5412,0.0,0.0,-0.3594,-0.4666,-0.5098,-0.5643,-1.0605,-0.9424,-0.5098,-0.5098,-0.5098,0.0,0.0,-0.3589,-0.3791,-0.4945,-0.3681,-0.1803,0.0,0.0,0.0,0.0,0.0,0.0,0.0,0.0,0.0,0.0,0.0,-1.5138,-1.5138,-1.2718,-1.0613,-1.0673,-1.068,-1.068,-1.068,-1.1618,-1.2305,-1.2305,-1.2305,-1.2305,-1.2305,-1.2305,-1.2305,-1.2305,-1.2305,-1.2305,-1.2305,-1.2305,-1.2305,-1.2305,-1.2305,-1.179,-1.072,-1.068,-1.2243,-1.5488,-1.5547,-1.5547,-1.5547,-1.5449,-1.3851,-1.0991,-1.0776,-1.129,-1.2305,-1.2305,-1.2305,-1.2305,-1.2305,-1.2305,-1.2305,-1.2305,-1.2305,-1.2305,-1.2305,-1.2305,-1.2305,0.0,0.0,0.0,0.0,0.0,0.0,0.0,0.0,0.0,0.0,0.0,0.0,0.0,-0.1803,-0.1803,-0.1803,-0.247,0.0,0.0,0.0,0.0,0.0,0.0,0.0,0.0,0.0,0.0,0.0,0.0,-0.4048,-0.5176,-0.8662,-1.0635,-1.1063,-0.7409,-0.601,-0.64,-0.64,0.0,-0.3538,-0.3921,-0.6506,-1.0303,-1.2191,-1.1751,-1.0107,-1.0107,0.0,0.0,0.0,-0.4649,-0.4465,-0.3387,-0.2479,-0.1803,-0.1803,0.0,0.0,0.0,0.0,0.0,0.0,0.0,-0.6631,-0.8933,-1.1695,-1.4092,-1.5186,-1.4471,-1.3053,-1.0989,-1.0593,-1.0593,-1.0593,-1.0948,-1.1216,-1.1216,-1.1216,-1.1216,-1.1216,-1.1216,-1.1216,-1.1216,-1.1216,-1.1216,-1.1216,-1.1216,-1.1216,-1.1216,-1.1216,-1.1022,-1.0606,-1.0593,-1.2143,-1.5381,-1.541,-1.541,-1.5381,-1.3317,-1.1717,-1.0593,-1.0593,-1.0821,-1.1216,-1.1216,-1.161,-1.2245,-1.149,-1.163,-1.2305,-1.2305,-1.2305,-1.2305,-1.2305,-1.2305,-1.2191,0.0,0.0,0.0,0.2923,0.0,0.1394,0.0179,-0.1025,-0.1935,-0.2328,0.0,0.0,0.0,0.0,-0.1957,-0.2335,-0.3068,0.0,0.0,0.0,0.0,0.0,0.0,0.0,0.0,0.0,0.0,0.0,0.0,0.0,0.0,-0.7301,-0.8867,-0.9309,-0.6439,-0.5633,0.0,0.0,0.0,-0.4103,0.0,-0.7646,-1.2905,-1.2905,-1.2905,-1.2905,-1.2905,0.0,0.0,0.0,-0.5364,-0.4428,-0.2661,-0.1967,-0.1803,-0.1803,-0.1803,0.0,-0.2041,0.0,0.0,0.0,0.0,-0.5014,-0.8095,-1.0922,-1.3228,-1.4326,-1.4561,-1.3752,-1.1093,-1.0593,-1.0593,-1.0593,-1.0593,-1.0593,-1.0593,-1.0593,-1.0593,-1.0593,-1.0593,-1.0593,-1.0593,-1.0593,-1.0593,-1.0593,-1.0593,-1.0593,-1.0593,-1.0593,-1.0593,-1.0593,-1.0593,-1.2143,-1.5381,-1.541,-1.4864,-1.3777,-1.1624,-1.0593,-1.0593,-1.0593,-1.0593,-1.0593,-1.0593,-1.1035,-1.1657,-1.0914,-1.1048,-1.1757,-1.2151,-1.2305,-1.2251,-1.1864,-1.1717,-1.1603,0.1803,0.1803,0.1803,0.1803,0.1803,0.138,0.0134,-0.1048,-0.2204,-0.3351,0.0,0.0,0.0,0.0,0.0,-0.3404,-0.3474,-0.2982,-0.1869,0.0,0.0,0.0,0.0,0.0,0.0,0.0,0.0,0.0,0.0,0.0,0.0,0.0,-0.5955,-0.7516,-0.5945,-0.5246,-0.532,0.0,-0.6333,-0.5363,0.0,-0.8442,-1.2905,0.0,-1.2905,-1.2905,-1.2905,-1.2905,0.0,-0.8458,-0.5647,-0.3626,-0.2929,-0.228,-0.1803,-0.1803,-0.177,0.0,0.0,0.0,0.0,0.0,0.0,0.0,-0.8012,0.0,-1.2905,-1.2905,-1.2832,-1.2328,-1.0803,-1.0539,-1.0553,-1.0586,-1.0593,-1.0593,-1.0593,-1.0593,-1.0593,-1.0593,-1.0593,-1.0593,-1.0593,-1.0593,-1.0593,-1.0593,-1.0593,-1.0593,-1.0593,-1.0593,-1.0593,-1.0593,-1.0593,-1.2112,-1.5225,-1.5264,-1.3687,-1.0593,-1.0593,-1.0593,-1.0593,-1.0593,-1.0593,-1.0593,-1.0593,-1.0593,-1.0593,-1.0593,-1.0593,-1.0707,-1.181,-1.2251,-1.2111,-1.1008,-1.0593,-1.0593,0.1803,0.1803,0.1803,0.1803,0.1803,0.1097,-0.0988,-0.1579,-0.2204,0.0,0.0,0.0,-0.3495,-0.3217,-0.3153,-0.3474,-0.2751,-0.2143,-0.1825,-0.1803,-0.1803,-0.1803,0.0,0.0,0.0,0.0,0.0,0.0,0.0,0.0,0.0,0.0,0.0,0.0,-0.42,-0.4003,-0.4076,-0.5264,0.0,-0.6677,-0.8263,-1.0516,0.0,0.0,0.0,0.0,0.0,-1.2905,-1.273,-1.1639,-0.9513,-0.6814,-0.3682,0.0,-0.1803,-0.1803,-0.1181,-0.054,-0.0708,0.0,0.0,0.0,0.0,0.0,-0.791,-1.0538,-1.2905,-1.2905,-1.1326,-0.981,-0.9363,-0.9292,-0.9573,-1.0452,-1.0593,-1.0593,-1.0593,-1.0593,-1.0593,-1.0593,-1.0593,-1.0593,-1.0593,-1.0593,-1.0593,-1.0593,-1.0593,-1.0593,-1.0593,-1.0593,-1.0593,-1.0593,-1.0593,-1.1021,-1.1934,-1.1927,-1.1476,-1.0593,-1.0593,-1.0593,-1.0593,-1.0593,-1.0593,-1.0593,-1.0593,-1.0593,-1.0593,-1.0593,-1.0593,-1.0626,-1.0948,-1.1075,-1.1035,-1.0713,-1.0593,-1.0593,0.1048,0.1048,0.1048,0.1048,0.1048,0.0411,-0.151,-0.2208,-0.2751,0.0,0.0,0.0,-0.3495,-0.3495,-0.3309,-0.2826,-0.2187,-0.1803,-0.1803,-0.1803,-0.1803,-0.1803,-0.1803,-0.1471,0.0,0.0,0.0,0.0,0.0,0.0,0.0,0.0,0.0,0.0,-0.3495,-0.3495,-0.3552,-0.4242,0.0,0.0,-0.8749,0.0,0.0,-1.2631,-1.2905,-1.2905,-1.2905,-1.2905,-1.2905,-1.2905,-1.1074,-0.8139,-0.4291,-0.2658,-0.217,-0.217,-0.1672,0.0,0.0,0.0,0.0,0.0,0.0,0.0,-0.6795,-0.9347,-1.1407,-1.002,-0.9226,-0.8804,-0.8804,-0.7824,-0.7637,-0.9538,-0.8824,-0.8149,-0.8388,-0.9684,-1.0593,-1.0593,-1.0593,-1.0593,-1.0593,-1.0593,-1.0593,-1.0593,-1.0593,-1.0593,-1.0593,-1.0593,-1.0593,-1.0593,-1.0593,-1.0593,-1.0593,-1.0593,-1.0593,-1.0593,-1.0593,-1.0593,-1.0593,-1.0593,-1.0593,-1.0593,-1.0593,-1.0593,-1.0593,-1.0593,-1.0593,-1.0593,-1.0593,-1.0593,-1.0593,-1.0593,-1.0593,-1.0593,0.0,0.0,0.0,0.0,-0.0112,-0.0644,-0.1981,-0.305,-0.3652,0.0,-0.3764,-0.3948,-0.3889,-0.36,-0.2999,-0.1987,-0.1844,-0.1803,-0.1803,-0.1803,-0.1803,-0.1803,-0.1803,-0.1803,-0.1803,0.0,0.0,0.0,0.0,0.0,0.0,0.0,0.0,0.0,-0.3495,-0.3495,-0.3495,-0.3495,-0.4048,-0.5124,-0.7461,-0.9113,0.0,0.0,-1.2905,-1.2905,-1.2905,-1.2905,-1.2905,-1.2905,-1.1074,-0.8248,-0.5157,-0.3545,-0.2812,-0.2877,-0.2849,0.0,-0.0838,-0.1573,0.0,-0.2798,-0.4164,0.0,-0.5327,-0.7708,-0.9092,-0.6101,-0.7148,-0.8651,-0.8784,-0.6443,-0.5332,-0.791,-0.6172,-0.4679,-0.5218,-0.826,-1.0445,-1.0579,-1.0593,-1.0593,-1.0593,-1.0593,-1.0593,-1.0593,-1.0593,-1.0533,-1.0405,-1.0526,-1.0593,-1.0593,-1.0593,-1.0593,-1.0593,-1.0593,-1.0593,-1.0593,-1.0593,-1.0593,-1.0593,-1.0593,-1.0593,-1.0593,-1.0593,-1.0593,-1.0593,-1.0593,-1.0593,-1.0593,-1.0593,-1.0593,-1.0593,-1.0593,-1.0593,-1.0593,0.0,0.0,0.0,0.0,-0.0803,-0.216,-0.4301,-0.4803,-0.4596,-0.3632,-0.547,-0.6734,-0.6363,-0.4246,-0.2766,-0.2553,-0.2075,-0.1803,-0.1803,-0.1803,-0.1803,-0.1803,-0.1803,-0.1803,-0.1803,-0.1803,0.0,0.0,0.0,0.0,0.0,0.0,0.0,0.0,-0.3495,-0.3495,-0.3495,-0.3495,-0.3615,-0.3944,-0.5399,-0.7231,-0.937,-1.1923,-1.2905,-1.2905,-1.2905,-1.2905,-1.2905,-1.2905,-1.1074,-0.8685,-0.8011,-0.5773,-0.3518,-0.3999,-0.3802,-0.3344,-0.2992,-0.3166,-0.3426,-0.3426,-0.5065,0.0,-0.5507,-0.6511,-0.7458,-0.6807,-0.7026,-0.7639,-0.8631,-0.6443,-0.468,-0.525,-0.4873,-0.4532,-0.4648,-0.7259,-0.9499,-1.0479,-1.0593,-1.0593,-1.0593,-1.0593,-1.0593,-1.0593,-1.0593,-1.0177,-0.9198,-1.0077,-1.0593,-1.0593,-1.0593,-1.0593,-1.0593,-1.0593,-1.0593,-1.0593,-1.0593,-1.0593,-1.0593,-1.0593,-1.0593,-1.0593,-1.0593,-1.0593,-1.0593,-1.0593,-1.0593,-1.0593,-1.0593,-1.0593,-1.0593,-1.0593,-1.0593,-1.0593,-0.0892,-0.0414,0.0,0.0,-0.1244,-0.2938,-0.4981,-0.5983,-0.6284,-0.5677,-0.7573,-0.8496,0.0,0.0,-0.3027,-0.2723,-0.2419,-0.2116,-0.1823,-0.1803,-0.1803,-0.1803,-0.2346,-0.2378,-0.1814,-0.1803,0.0,0.0,0.0,0.0,0.0,0.0,0.0,0.0,-0.3495,-0.3495,-0.3495,-0.3495,-0.4177,-0.5308,-0.5912,0.0,-0.9087,-1.1859,-1.2905,-1.2905,-1.2905,-1.2905,-1.2905,-1.2905,-1.1074,-0.8804,-0.8804,-0.6612,-0.4102,-0.4402,-0.4279,-0.4363,-0.5805,-0.5144,-0.4044,-0.4044,-0.4694,0.0,0.0,-0.658,-0.6152,-0.6152,-0.6152,-0.6339,-0.6941,-0.6338,-0.538,-0.4243,-0.4047,-0.415,-0.4447,-0.6988,-0.9025,-0.9641,-0.9715,-0.9715,-0.9715,-0.9715,-0.9715,-0.9715,-0.9715,-0.9426,-0.8838,-0.9365,-0.9715,-0.9715,-0.9715,-0.9715,-0.9715,-0.9715,-1.001,-1.0593,-1.0593,-1.0593,-1.0593,-1.0593,-1.0593,-1.0593,-1.0593,-1.0593,-1.0593,-1.0593,-1.0593,-1.0593,-1.0593,-1.0593,-1.0593,-1.0593,-1.0593,-1.0593,-0.1803,-0.0825,-0.0115,-0.0461,-0.2012,-0.3784,-0.55,-0.7151,-0.8324,0.0,0.0,0.0,0.0,0.0,0.0,0.0,0.0,-0.2491,-0.2012,-0.1871,-0.1803,-0.1803,-0.2891,-0.3068,-0.2154,-0.1913,0.0,0.0,0.0,0.0,0.0,-0.1803,-0.2411,-0.3515,0.0,0.0,0.0,0.0,0.0,-0.6687,0.0,-0.7719,-0.9087,-1.1859,-1.2905,-1.2905,-1.2905,-1.2905,-1.2832,-1.2289,-1.0643,-0.8804,-0.8804,-0.6821,-0.4491,-0.4491,-0.4491,-0.5007,-0.7337,-0.6686,-0.5195,-0.4653,-0.4129,-0.4593,0.0,0.0,0.0,-0.5628,-0.5816,-0.5842,-0.538,-0.6233,-0.6468,-0.4865,-0.4137,-0.3941,-0.4423,-0.6406,-0.8055,-0.8725,-0.8804,-0.8804,-0.8804,-0.8804,-0.8804,-0.8804,-0.8804,-0.8804,-0.8804,-0.8804,-0.8804,-0.8804,-0.8804,-0.8804,-0.8804,-0.8804,-0.9285,-1.0251,-1.0251,-1.0372,-1.0593,-1.0593,-1.0593,-1.0593,-1.0593,-1.0593,-1.0593,-1.0593,-1.0593,-1.0593,-1.0593,-1.0593,-1.0593,-1.0593,-1.0593,-1.0593,-0.1803,-0.0825,-0.0502,-0.2113,-0.3844,-0.5555,-0.7175,-0.8894,-1.0567,0.0,0.0,0.0,0.0,0.0,0.0,0.0,0.0,-0.2669,-0.26,-0.2092,-0.1803,-0.1803,-0.2891,-0.3442,-0.3309,0.0,0.0,0.0,0.0,0.0,0.0,0.0,-0.2411,-0.3599,-0.5681,0.0,0.0,0.0,-0.5253,0.0,-0.6587,-0.7719,-0.9087,-1.1859,-1.2905,-1.2905,-1.2905,-1.2905,-1.252,-1.0079,-0.9061,-0.8804,-0.8804,-0.6821,-0.4491,-0.4491,-0.4491,-0.457,-0.4897,-0.6605,-0.7691,-0.5144,-0.444,-0.4886,-0.6767,0.0,-0.68,-0.68,0.0,-0.7769,-0.5682,0.0,0.0,-0.8069,-0.6062,-0.4412,-0.4481,-0.4331,-0.5335,-0.8443,-0.8804,-0.8804,-0.8804,-0.8804,-0.8804,-0.8804,-0.8804,-0.8804,-0.8804,-0.8804,-0.8804,-0.8804,-0.8804,-0.8804,-0.8804,-0.8804,-0.8871,-0.9005,-0.9005,-0.9552,-1.0593,-1.0593,-1.0593,-1.0593,-1.0593,-1.0593,-1.0593,-1.0593,-1.0593,-1.0593,-1.0593,-1.0593,-1.0593,-1.0593,-1.0593,-1.0593,-0.1803,-0.1394,-0.1393,-0.251,-0.414,-0.5529,-0.6199,-0.7732,-0.9424,0.0,0.0,0.0,0.0,0.0,0.0,0.0,0.0,-0.359,-0.3245,-0.3598,0.0,-0.2815,-0.3918,-0.4209,-0.3509,-0.3036,0.0,0.0,-0.1803,0.0,0.0,0.0,-0.2411,-0.3579,-0.5271,0.0,-0.5568,0.0,-0.6446,0.0,-0.7672,-0.8357,-0.8855,-0.9314,-1.09,-1.2905,-1.2905,-1.2905,-1.2471,-0.9725,-0.8804,-0.8507,-0.6821,-0.5469,-0.4491,-0.4491,-0.4491,-0.4491,-0.4491,-0.6605,-0.8096,-0.5226,-0.4232,-0.4518,-0.6542,-0.7,-0.7,-0.7,0.0,0.0,0.0,0.0,0.0,0.0,-0.5341,-0.3573,-0.3924,-0.3761,-0.4264,-0.6078,-0.7158,-0.737,-0.6394,-0.7824,-0.8237,-0.6867,-0.8029,-0.8804,-0.8804,-0.8804,-0.8804,-0.8804,-0.8804,-0.8804,-0.8804,-0.8804,-0.8804,-0.8804,-0.8804,-0.9065,-0.9568,-0.9568,-0.9568,-0.9568,-0.9568,-0.9568,-0.9599,-1.0311,-1.0593,-1.0593,-1.0593,-1.0593,-1.0593,-1.0593,-1.0593,-1.0593,-0.1803,0.0,0.0,-0.3232,-0.4452,-0.5407,-0.5729,-0.7272,-0.9043,-1.0782,-0.9731,0.0,-0.8804,-0.8804,0.0,0.0,-0.6875,-0.5165,-0.3921,-0.5054,-0.5377,-0.4495,-0.5304,-0.521,-0.4023,-0.3672,-0.2944,0.0,-0.1803,0.0,0.0,0.0,-0.2708,-0.3559,-0.4756,-0.5932,-0.702,0.0,-0.751,-0.7534,-0.7745,-0.823,-0.8789,-0.866,-1.0398,-1.2905,-1.2905,-1.2421,-1.1476,-0.9472,-0.8804,-0.8289,-0.5414,-0.4491,-0.4491,-0.4491,-0.4491,-0.4491,-0.4491,-0.6036,-0.7122,-0.5034,-0.4044,-0.4206,-0.6486,-0.7,-0.7,-0.7,-0.7,0.0,0.0,0.0,-0.7756,-0.6092,0.0,-0.2853,-0.3293,-0.3355,-0.3515,-0.3948,-0.5229,-0.5646,-0.4593,-0.6389,-0.6978,-0.5425,-0.7468,-0.8804,-0.8804,-0.8804,-0.8804,-0.8804,-0.8804,-0.8804,-0.8804,-0.8804,-0.8804,-0.8804,-0.8804,-0.8804,-0.8804,-0.8804,-0.8804,-0.8804,-0.8804,-0.8804,-0.8871,-0.9755,-1.011,-1.011,-1.011,-1.0305,-1.0593,-1.0593,-1.0593,-1.0593,-0.1803,-0.1803,0.0,0.0,0.0,-0.5675,-0.6773,-0.8805,-1.0841,-1.2592,-1.0458,0.0,0.0,0.0,0.0,0.0,0.0,-0.746,-0.4652,-0.6028,-0.6926,-0.6893,-0.6926,-0.642,-0.5266,-0.4096,-0.2944,-0.1803,-0.1803,0.0,0.0,0.0,0.0,0.0,-0.4756,-0.5932,-0.708,-0.8257,-0.808,-0.6936,-0.5853,-0.6767,-0.908,-1.1697,-1.2783,-1.2905,-1.2905,-1.12,-0.891,-0.8831,-0.8804,-0.8289,-0.5414,-0.4491,-0.4491,-0.4491,-0.4491,-0.4491,-0.4491,-0.457,-0.4625,-0.4515,-0.4044,-0.4206,-0.6486,-0.7,-0.7,-0.7,-0.7,-0.7,-0.7,-0.7033,-0.6137,-0.3299,-0.276,0.0,0.0,-0.2727,-0.2733,-0.2754,-0.3316,-0.3926,-0.446,-0.457,-0.4812,-0.5271,-0.7468,-0.8804,-0.8804,-0.8804,-0.8804,-0.8804,-0.8804,-0.8804,-0.8804,-0.8804,-0.8804,-0.8804,-0.8804,-0.8804,-0.8804,-0.8804,-0.8804,-0.8804,-0.8804,-0.8804,-0.8811,-0.8844,-0.8864,-0.8864,-0.8864,-0.9559,-1.0593,-1.0593,-1.0593,-1.0593,0.0,0.0,0.0,0.0,0.0,-0.6188,-0.8789,-1.0813,-1.223,-1.2827,-1.2092,-1.1501,-1.1501,-1.2511,-1.2315,-1.0169,-0.9259,-0.8401,-0.7417,-0.7879,-0.7826,-0.7033,-0.7759,-0.7626,-0.646,-0.5284,-0.4108,-0.2923,-0.2172,0.0,0.0,0.0,0.0,0.0,0.0,-0.5182,0.0,0.0,0.0,0.0,-0.7776,-0.8096,-0.891,-0.9829,-1.0182,-1.0413,-1.224,-1.1124,-0.8804,-0.8804,-0.7524,-0.5792,-0.4818,-0.4491,-0.4491,-0.4491,-0.4491,-0.4491,-0.4491,-0.4491,-0.4491,-0.4491,-0.4044,-0.3796,-0.4574,-0.4744,-0.4871,-0.5268,-0.6859,-0.8203,-0.8203,-0.8203,-0.7876,-0.6899,-0.4461,-0.2696,0.0,-0.2696,-0.2258,-0.1054,-0.2506,-0.3682,-0.3883,-0.3901,-0.4301,-0.5235,-0.6734,-0.7606,-0.7606,-0.8377,-0.8804,-0.8804,-0.8804,-0.8804,-0.8804,-0.8804,-0.8804,-0.8804,-0.8804,-0.8804,-0.8804,-0.8804,-0.8804,-0.8804,-0.8804,-0.8804,-0.8804,-0.8804,-0.8804,-0.8804,-0.8804,-0.9051,-0.9492,-1.0305,-1.0593,-1.0593,-0.5602,0.0,0.0,0.0,0.0,-0.71,-1.0679,-1.2181,-1.2905,-1.2905,-1.3433,-1.3779,-1.3779,-1.4756,-1.4106,-1.087,-0.9896,-0.9432,-0.9432,-0.9038,-0.8464,-0.7666,-0.8397,-0.8444,-0.7652,-0.6506,-0.5324,-0.4136,-0.3403,-0.3043,0.0,0.0,0.0,0.0,0.0,-0.5208,-0.708,-0.8278,-0.8804,0.0,-0.8804,-0.8804,-0.8804,-0.8804,-0.9394,-1.0362,-1.115,-1.031,-0.8804,-0.8804,-0.6875,-0.4491,-0.4491,-0.4491,-0.4491,-0.4491,-0.4491,-0.4491,-0.4491,-0.4491,-0.4491,-0.4491,-0.4201,-0.3863,-0.3651,-0.3604,-0.3771,-0.4368,-0.5982,-0.7283,-0.7283,-0.8096,-0.8804,-0.8804,-0.6225,-0.3863,0.0,-0.2696,-0.2026,-0.0218,-0.1378,0.0,0.0,-0.3406,-0.4019,-0.5776,-0.658,-0.7186,-0.7612,-0.839,-0.8804,-0.8804,-0.8804,-0.8804,-0.8804,-0.8804,-0.8804,-0.8804,-0.8804,-0.8804,-0.8804,-0.8804,-0.8804,-0.8752,-0.7717,-0.7851,-0.8804,-0.8804,-0.8804,-0.8804,-0.8804,-0.8804,-0.8951,-1.0157,-1.0593,-1.0428,-0.6707,-0.696,0.0,-0.5574,-0.638,-0.8456,-1.2311,-1.2905,-1.2935,-1.3023,-1.4414,-1.541,-1.541,-1.541,-1.4106,-1.087,-1.0593,-1.0593,-1.0593,-0.9459,-0.8857,-0.8989,-0.8883,-0.8804,-0.8804,-0.7672,-0.6567,-0.5474,-0.5353,0.0,0.0,0.0,0.0,0.0,-0.4797,0.0,-0.708,-0.8278,-0.8804,-0.8804,-0.8804,-0.8804,-0.8804,-0.8804,-1.0413,-1.2338,-0.9725,-0.8804,-0.8785,-0.8639,-0.6767,-0.4491,-0.4491,-0.4491,-0.4491,-0.4491,-0.4491,-0.4491,-0.4491,-0.4491,-0.4491,-0.4491,-0.4491,-0.4344,-0.3774,-0.3648,-0.3805,-0.4371,-0.4491,-0.4491,-0.4491,-0.6848,-0.8791,-0.8724,-0.7623,-0.5823,-0.3081,-0.2696,-0.2067,-0.0374,0.0,0.0,0.0,-0.3064,-0.3877,-0.6631,-0.6933,-0.7493,-0.8657,-0.8778,-0.8804,-0.8804,-0.8804,-0.8804,-0.8804,-0.8804,-0.8725,-0.8586,-0.8586,-0.8672,-0.8804,-0.8804,-0.8804,-0.8646,-0.59,-0.6281,-0.8804,-0.8804,-0.8804,-0.8804,-0.8804,-0.8804,-0.8951,-1.0157,-1.0593,-1.0104,-0.5838,-0.6426,-0.6906,-0.6607,-0.8166,-1.022,-1.2536,-1.2905,-1.3365,-1.46,-1.5137,-1.541,-1.541,-1.541,-1.4106,-1.087,-1.0593,-1.0593,-1.0593,-0.9459,-0.9699,-1.176,-0.9899,-0.8804,-0.8804,-0.8504,-0.8203,-0.7903,-0.6157,0.0,-0.5293,0.0,0.0,0.0,0.0,0.0,-0.708,-0.8278,-0.8804,-0.8804,-0.8804,-0.8804,-0.8804,-0.8804,-0.9244,-0.9751,-0.9061,-0.8804,-0.848,-0.6335,-0.5117,-0.4491,-0.4491,-0.4491,-0.4491,-0.4491,-0.4491,-0.4491,-0.4491,-0.4491,-0.4491,-0.4491,-0.4491,-0.445,-0.4296,-0.4262,-0.4307,-0.4457,-0.4491,-0.4491,-0.4491,-0.6848,-0.8517,-0.7599,-0.5395,-0.3551,-0.28,0.0,0.0,-0.2675,0.0,-0.2242,-0.2878,-0.3198,-0.3653,-0.4352,-0.6021,-0.7133,-0.7439,-0.8323,-0.8804,-0.8804,-0.8804,-0.8804,-0.8804,-0.8804,-0.7717,-0.5605,-0.5605,-0.6713,-0.8804,-0.8804,-0.8804,-0.8752,-0.8017,-0.8123,-0.8804,-0.8804,-0.8804,-0.8804,-0.8804,-0.8804,-0.8951,-1.0157,-1.0593,-1.0104,-0.6172,-0.6994,-0.7779,-0.7779,-0.8822,-1.0124,-1.1544,-1.2416,-1.3486,-1.5186,-1.541,-1.541,-1.541,-1.541,-1.4106,-1.087,-1.0593,-1.0593,-1.0593,-0.997,-1.0905,-1.3869,-1.18,-1.0592,-1.0592,-0.942,-0.855,-0.8005,-0.6693,0.0,-0.5293,0.0,0.0,0.0,0.0,-0.5932,-0.708,-0.8278,-0.8804,-0.8804,-0.8804,-0.8804,0.0,-0.8804,-0.8804,-0.8639,-0.7364,-0.6929,-0.6659,-0.5034,-0.4491,-0.4267,-0.2954,-0.3428,-0.4491,-0.4491,-0.4491,-0.4491,-0.4491,-0.4491,-0.4491,-0.4491,-0.4491,-0.4491,-0.4491,-0.4491,-0.4491,-0.4491,-0.4491,-0.4491,-0.4491,-0.5819,-0.6602,-0.5671,-0.4152,-0.3092,0.0,0.0,0.0,0.0,-0.3529,-0.3785,-0.4515,-0.396,-0.396,-0.4955,-0.6254,-0.678,-0.6286,-0.7381,-0.8245,-0.8791,-0.8804,-0.8804,-0.8804,-0.8804,-0.7364,-0.4491,-0.4491,-0.5359,-0.6956,-0.8235,-0.8804,-0.8725,-0.7471,-0.7637,-0.8804,-0.8804,-0.8804,-0.8804,-0.8804,-0.8804,-0.8884,-0.9546,-1.0151,-1.0104,-0.7233,-0.8072,-0.8858,-0.9011,-0.8911,-0.9206,-1.0388,-1.1855,-1.3226,-1.4383,-1.484,-1.5166,-1.5391,-1.541,-1.4106,-1.087,-1.0593,-1.0593,-1.0593,-1.0593,-1.1841,-1.4649,-1.3782,-1.3028,-1.2616,-1.0093,-0.8297,-0.7233,-0.708,-0.6426,-0.5293,0.0,0.0,0.0,0.0,0.0,0.0,-0.8363,-0.8804,-0.8804,-0.8804,-0.8804,-0.8804,-0.8804,-0.856,-0.791,-0.5386,-0.4491,-0.4491,-0.4491,-0.4236,-0.3456,-0.0839,-0.2065,-0.4491,-0.4491,-0.4491,-0.4491,-0.4491,-0.4491,-0.4491,-0.4491,-0.4491,-0.4491,-0.4491,-0.4491,-0.4491,-0.4491,-0.4491,-0.4491,-0.4491,-0.4491,-0.432,-0.3802,-0.3655,-0.3604,-0.3604,0.0,0.0,0.0,0.0,0.0,-0.641,-0.4705,-0.4409,-0.6607,-0.6633,-0.6234,-0.5561,-0.6473,-0.7546,-0.8771,-0.8804,-0.8804,-0.8804,-0.8804,-0.7364,-0.4491,-0.4491,-0.4491,-0.457,-0.7095,-0.8454,-0.8646,-0.5737,-0.5928,-0.8235,-0.8235,-0.8454,-0.8804,-0.8804,-0.8804,-0.8752,-0.8368,-0.8893,-0.9369,-0.8497,-0.8664,0.0,-1.0117,-0.9452,-0.9526,-1.1633,-1.2191,-1.1807,-1.0179,-1.1921,-1.3857,-1.5254,-1.541,-1.4106,-1.087,-1.0593,-1.0593,-1.0593,-1.0593,-1.0839,-1.1413,-1.3699,-1.3731,-1.1057,-0.9542,-0.8704,-0.8497,-0.7486,-0.6426,-0.5293,0.0,0.0,0.0,0.0,0.0,-0.851,-0.8717,-0.8804,-0.8804,-0.8804,-0.8804,-0.8804,-0.8804,-0.731,-0.5195,-0.468,-0.4491,-0.4491,-0.4491,-0.2843,-0.0699,-0.0168,-0.2065,-0.4491,-0.4491,-0.4491,-0.4491,-0.4491,-0.4491,-0.4491,-0.4491,-0.4491,-0.4491,-0.4491,-0.4491,-0.4491,-0.4491,-0.4491,-0.4491,-0.4491,-0.4491,-0.4457,-0.4351,-0.3921,-0.3604,-0.3604,0.0,0.0,0.0,0.0,-0.3319,-0.4119,-0.3781,-0.4089,-0.5501,-0.4675,-0.4875,-0.6607,-0.6886,-0.7546,-0.8771,-0.8804,-0.8804,-0.8804,-0.8804,-0.7364,-0.4491,-0.4491,-0.4491,-0.4519,-0.5034,-0.6551,-0.8646,-0.5737,-0.4791,-0.525,-0.525,-0.6659,-0.8804,-0.8804,-0.8804,-0.8507,-0.6118,-0.5381,-0.549,-0.9628,0.0,0.0,0.0,-0.9185,-0.9599,-1.1944,-1.2305,-1.1897,-1.0768,-1.176,-1.29,-1.3695,-1.3801,-1.3176,-1.1628,-1.0941,-1.0593,-1.0593,-1.0593,-1.0593,-1.0593,-1.2081,-1.2205,-1.0618,-0.9412,-0.8804,-0.8804,-0.7586,-0.6426,-0.5293,-0.5293,-0.5293,-0.532,0.0,-0.7161,0.0,-0.8804,-0.8804,-0.8804,-0.8804,-0.8804,-0.8646,-0.7144,-0.571,-0.4491,-0.4491,-0.4491,-0.4491,-0.4491,-0.2482,0.0,0.0,-0.2065,-0.4491,-0.4491,-0.4491,-0.4491,-0.4491,-0.4491,-0.4491,-0.4491,-0.4491,-0.4491,-0.4491,-0.4491,-0.4491,-0.4491,-0.4491,-0.4491,-0.4491,-0.4491,-0.4491,-0.4491,-0.4249,-0.3955,-0.3645,-0.387,-0.4061,0.0,0.0,0.0,-0.3542,-0.4103,-0.4669,-0.5253,-0.4176,-0.4269,-0.6025,-0.6673,-0.7259,-0.7839,-0.8484,-0.8804,-0.8804,-0.8804,-0.8096,-0.6713,-0.5226,-0.4491,-0.4491,-0.4491,-0.5254,-0.6497,-0.5089,-0.4491,-0.4491,-0.4491,-0.6199,-0.8804,-0.8804,-0.7877,-0.6416,-0.5007,-0.4491,-0.4491,-1.0459,-0.9842,-0.9098,-0.8851,-0.9218,-1.0174,-1.2024,-1.2305,-1.2305,-1.2305,-1.2305,-1.2305,-1.2305,-1.2305,-1.2305,-1.2305,-1.1497,-1.0961,-1.0961,-1.0727,-1.0593,-1.0593,-1.0593,-1.0593,-1.0593,-0.9682,-0.9058,-0.8804,-0.7839,-0.6549,-0.4951,-0.518,-0.5427,-0.5715,-0.688,-0.7899,-0.8804,-0.8804,-0.8804,-0.8804,-0.8804,-0.8804,-0.848,-0.5605,-0.4491,-0.4491,-0.4491,-0.4491,-0.4508,-0.4638,-0.2598,0.0,0.0,-0.2161,-0.4658,-0.4528,-0.4491,-0.4518,-0.4648,-0.4586,-0.4491,-0.4491,-0.4491,-0.4491,-0.4491,-0.4491,-0.4491,-0.4491,-0.4491,-0.4491,-0.4491,-0.4491,-0.4491,-0.4491,-0.4491,-0.4327,-0.3856,-0.4194,-0.4491,0.0,0.0,0.0,-0.3556,-0.4632,-0.5293,-0.5293,-0.4083,-0.3689,-0.4505,-0.6115,-0.7,-0.7,-0.8159,-0.8804,-0.8804,-0.8804,-0.8804,-0.8778,-0.6497,-0.5089,-0.4491,-0.4491,-0.4491,-0.4491,-0.4491,-0.4491,-0.4491,-0.4491,-0.5846,-0.7877,-0.7877,-0.6497,-0.4491,-0.4491,-0.4491,-0.4491,-1.078,-1.0506,-1.009,-0.8991,-1.0561,-1.2051,-1.2271,-1.2305,-1.2305,-1.2305,-1.2305,-1.2305,-1.2305,-1.2305,-1.2305,-1.2305,-1.2198,-1.2138,-1.2138,-1.1182,-1.0593,-1.0593,-1.0593,-1.0593,-1.0593,-1.0486,-0.9903,-0.8804,-0.8697,-0.6969,-0.3781,-0.4822,-0.5845,-0.6886,-0.811,-0.8704,-0.8804,-0.8804,-0.8804,-0.8804,-0.8804,-0.8804,-0.848,-0.5605,-0.4491,-0.4491,-0.4491,-0.4491,-0.4573,-0.5126,-0.2948,0.0,0.0,-0.2449,-0.5201,-0.4651,-0.4491,-0.461,-0.516,-0.4907,-0.4491,-0.4491,-0.4491,-0.4491,-0.4491,-0.4491,-0.4491,-0.4491,-0.4491,-0.4491,-0.4491,-0.4491,-0.4491,-0.4491,-0.4491,-0.447,-0.4416,-0.4453,-0.4491,-0.4491,0.0,0.0,-0.3597,-0.4632,-0.5293,-0.5293,-0.3727,-0.2587,-0.2157,-0.5233,-0.7,-0.7,-0.8159,-0.8804,-0.8804,-0.8804,-0.8804,-0.8804,-0.8533,-0.7036,-0.4491,-0.4491,-0.4491,-0.4491,-0.4491,-0.4491,-0.4491,-0.4491,-0.4653,-0.4897,-0.4897,-0.4736,-0.4491,-0.4491,-0.4491,-0.4491,-1.1697,-1.1603,-1.1456,-1.0989,-1.1677,-1.2305,-1.2305,-1.2305,-1.2305,-1.2305,-1.2305,-1.2305,-1.2305,-1.2305,-1.2305,-1.2305,-1.2305,-1.2305,-1.2305,-1.1864,-1.133,-1.062,-1.0593,-1.0593,-1.0593,-1.0593,-1.0358,-0.9889,-0.9152,-0.8094,-0.6709,-0.6439,-0.6961,-0.8092,-0.8591,-0.8804,-0.8851,-0.9559,-0.9889,-0.9889,-0.9889,-0.8615,-0.6646,-0.5489,-0.5033,-0.5033,-0.5033,-0.5033,-0.5071,-0.5313,-0.299,0.0,0.0,-0.2498,-0.5347,-0.5105,-0.5033,-0.5085,-0.533,-0.5218,-0.4945,-0.458,-0.4491,-0.4491,-0.4491,-0.4491,-0.4491,-0.4491,-0.4491,-0.4491,-0.4491,-0.4491,-0.4491,-0.4491,-0.4191,-0.4081,-0.444,-0.4491,-0.4358,-0.3999,0.0,-0.3457,-0.3095,-0.3799,-0.3983,-0.3261,-0.2558,-0.2208,-0.2327,-0.4354,-0.5968,-0.6956,-0.7459,-0.8855,-1.1242,-1.125,-1.0438,-0.8804,-0.8804,-0.7283,-0.4491,-0.4491,-0.4491,-0.4491,-0.4491,-0.4491,-0.4491,-0.4491,-0.4491,-0.4491,-0.4491,-0.4491,-0.4491,-0.4491,-0.4491,-0.4491,-1.2826,-1.2826,-1.2826,-1.2826,-1.2538,-1.2305,-1.2305,-1.2305,-1.2305,-1.2305,-1.2305,-1.2305,-1.2305,-1.2305,-1.2305,-1.2305,-1.2305,-1.2305,-1.2305,-1.2305,-1.1937,-1.1142,-1.1102,-1.0948,-1.06,-1.0593,-1.0593,-1.0593,-0.9755,-0.9145,-0.8791,-0.7919,-0.7972,-0.8824,-0.9172,-0.9325,-0.9379,-1.0238,-1.0593,-1.0593,-1.0593,-0.8511,-0.5395,-0.5395,-0.5395,-0.5395,-0.5395,-0.5395,-0.5395,-0.5395,-0.2982,0.0,0.0,-0.1759,-0.402,-0.5093,-0.5395,-0.5395,-0.5395,-0.5395,-0.5293,-0.4863,-0.4621,-0.4491,-0.4491,-0.4491,-0.4491,-0.4491,-0.4491,-0.4491,-0.4491,-0.4491,-0.4491,-0.4491,-0.4136,-0.401,-0.4433,-0.4491,-0.4269,-0.3672,-0.3604,-0.3433,-0.3003,-0.3351,-0.3174,-0.2136,-0.2225,-0.2433,-0.2682,-0.3501,-0.5068,-0.7458,-0.718,-0.852,-1.1667,-1.2495,-1.1526,-0.8804,-0.8804,-0.7283,-0.4491,-0.4491,-0.4491,-0.4491,-0.4491,-0.4491,-0.4491,-0.4491,-0.4491,-0.4491,-0.4491,-0.4491,-0.4491,-0.4491,-0.4491,-0.4491,-1.4068,-1.4068,-1.4068,-1.4068,-1.3086,-1.2305,-1.2305,-1.2305,-1.2305,-1.2305,-1.2305,-1.2305,-1.2305,-1.2305,-1.2305,-1.2305,-1.2305,-1.2305,-1.2305,-1.2305,-1.2291,-1.2278,-1.2278,-1.1737,-1.062,-1.0593,-1.0593,-1.0593,-1.0579,-0.9976,-0.8804,-0.8791,-0.8791,-0.8858,-1.005,-1.0573,-1.0573,-1.0586,-1.0593,-1.0593,-1.0593,-0.8511,-0.5395,-0.5395,-0.5395,-0.5395,-0.5395,-0.5395,-0.5395,-0.5395,-0.2982,0.0,0.0,-0.0034,-0.0774,-0.4353,-0.5395,-0.5395,-0.5395,-0.5395,-0.5392,-0.5385,-0.4935,-0.4491,-0.4491,-0.4491,-0.4491,-0.4491,-0.4491,-0.4491,-0.4491,-0.4491,-0.4491,-0.4491,-0.4484,-0.4481,-0.4487,-0.4491,-0.4269,-0.3672,-0.3604,-0.36,-0.359,-0.36,-0.3348,-0.2733,-0.3242,-0.332,-0.273,-0.2713,-0.4577,-0.8659,-0.7612,-0.7595,-0.885,-1.1526,-1.1526,-0.8804,-0.8804,-0.7283,-0.4491,-0.4491,-0.4491,-0.4491,-0.4491,-0.4491,-0.4491,-0.4491,-0.4491,-0.4491,-0.4491,-0.4491,-0.4491,-0.4491,-0.4491,-0.4491,-1.4088,-1.4088,-1.4088,-1.4088,-1.1136,-0.9849,-1.3061,-1.352,-1.352,-1.352,-1.2806,-1.2305,-1.2305,-1.2305,-1.2305,-1.2305,-1.2305,-1.2305,-1.2305,-1.2305,-1.2305,-1.2305,-1.2305,-1.2131,-1.1757,-1.175,-1.139,-1.0593,-1.0593,-1.0399,-1.003,-1.003,-1.003,-1.005,-1.0425,-1.0593,-1.0593,-1.0593,-1.0593,-1.0593,-1.0593,-0.8511,-0.5395,-0.5395,-0.5395,-0.5395,-0.5395,-0.5395,-0.5395,-0.5395,-0.4622,-0.3251,-0.0774,0.0,-0.0706,-0.4353,-0.5395,-0.5395,-0.5395,-0.5395,-0.5395,-0.5395,-0.5248,-0.4999,-0.4583,-0.4491,-0.4491,-0.4491,-0.4491,-0.4491,-0.4491,-0.4491,-0.4491,-0.4491,-0.4491,-0.4491,-0.4491,-0.4491,-0.4269,-0.3672,-0.3604,-0.3604,-0.3604,-0.3604,-0.3522,-0.3331,-0.387,-0.3764,-0.2751,-0.3088,-0.5008,-0.8679,-0.8437,-0.8424,-0.8804,-1.1535,-1.1526,-0.8804,-0.8804,-0.7283,-0.4491,-0.4491,-0.4491,-0.4491,-0.4491,-0.4491,-0.4491,-0.4491,-0.4491,-0.4491,-0.4491,-0.4491,-0.4491,-0.4491,-0.4491,-0.4491,-1.4088,-1.4088,-1.4088,-1.4088,-1.0221,-0.8097,-1.0999,-1.2954,-1.4088,-1.4088,-1.3434,-1.2973,-1.2973,-1.2572,-1.2305,-1.2305,-1.2305,-1.2305,-1.2305,-1.2305,-1.2305,-1.2305,-1.2305,-1.2305,-1.2305,-1.2305,-1.1944,-1.1249,-1.0807,-1.0593,-1.0593,-1.0593,-1.0593,-1.0593,-1.0593,-1.0593,-1.0593,-1.0593,-1.0593,-1.0491,-0.916,-0.7344,-0.5395,-0.5395,-0.5395,-0.5395,-0.5395,-0.5395,-0.5395,-0.5395,-0.5395,-0.499,-0.275,-0.2013,-0.248,-0.4722,-0.5395,-0.5395,-0.5395,-0.5395,-0.5395,-0.5395,-0.5395,-0.5235,-0.4627,-0.4491,-0.4491,-0.4491,-0.4491,-0.4491,-0.4491,-0.4491,-0.4491,-0.4491,-0.4491,-0.4491,-0.4491,-0.43,-0.402,-0.3648,-0.3604,-0.3689,-0.3914,-0.3733,-0.3696,-0.3918,-0.3863,-0.3587,-0.3064,-0.3395,-0.5189,-0.8692,-0.8804,-0.929,-1.0336,-1.2042,-1.1526,-0.8778,-0.7691,-0.6253,-0.4491,-0.4491,-0.4491,-0.4491,-0.4491,-0.4491,-0.4491,-0.4491,-0.4491,-0.4491,-0.4491,-0.4491,-0.4491,-0.4491,-0.4491,-0.4491,-1.4088,-1.4088,-1.4088,-1.4088,-1.0221,-0.7228,-0.7533,-1.13,-1.4088,-1.4088,-1.4088,-1.4088,-1.4088,-1.3093,-1.2425,-1.2425,-1.2351,-1.2305,-1.2305,-1.2305,-1.2305,-1.2305,-1.2305,-1.2305,-1.2305,-1.2305,-1.2305,-1.2305,-1.1169,-1.0593,-1.0593,-1.0593,-1.0593,-1.0593,-1.0593,-1.0593,-1.0593,-1.0333,-1.0231,-0.997,-0.6695,-0.5395,-0.5428,-0.5657,-0.5624,-0.5395,-0.5395,-0.5395,-0.5395,-0.5395,-0.5395,-0.5395,-0.5395,-0.5395,-0.5395,-0.5395,-0.5395,-0.5395,-0.5395,-0.5395,-0.5395,-0.5395,-0.5361,-0.5184,-0.4621,-0.4491,-0.4491,-0.4491,-0.4491,-0.4491,-0.4491,-0.4491,-0.4491,-0.4491,-0.4491,-0.4491,-0.4491,-0.3976,-0.3604,-0.3604,-0.3638,-0.388,-0.4436,-0.3989,-0.3894,-0.445,-0.3453,-0.3068,-0.3634,-0.3665,-0.5244,-0.8692,-0.8804,-1.0131,-1.2881,-1.27,-1.1242,-0.848,-0.5792,-0.4491,-0.4491,-0.4491,-0.4491,-0.4491,-0.4491,-0.4491,-0.4491,-0.4491,-0.4491,-0.4491,-0.4491,-0.4491,-0.4491,-0.4491,-0.4491,-0.4491,-1.4088,-1.4088,-1.4088,-1.4088,-1.0221,-0.8313,-1.1912,-1.3385,-1.4088,-1.4088,-1.4088,-1.4088,-1.4088,-1.3834,-1.3667,-1.3667,-1.2832,-1.2305,-1.2305,-1.2305,-1.2305,-1.2305,-1.2305,-1.2305,-1.2305,-1.2305,-1.2305,-1.2305,-1.1169,-1.0593,-1.0593,-1.0593,-1.0593,-1.0593,-1.0593,-1.0593,-1.0428,-0.7767,-0.6634,-0.6568,-0.5719,-0.5395,-0.5686,-0.835,-0.7702,-0.5395,-0.5395,-0.5395,-0.5395,-0.5395,-0.5395,-0.5395,-0.5395,-0.5395,-0.5395,-0.5395,-0.5395,-0.5395,-0.5395,-0.5395,-0.5395,-0.5395,-0.5047,-0.4668,-0.4522,-0.4491,-0.4491,-0.4491,-0.4491,-0.4491,-0.4491,-0.4491,-0.4491,-0.4491,-0.4491,-0.4491,-0.4491,-0.3976,-0.3604,-0.3604,-0.4003,-0.4334,-0.4477,-0.4361,-0.4337,-0.4481,-0.4225,-0.4129,-0.4272,-0.4279,-0.5685,-0.8718,-0.8804,-1.0131,-1.2881,-1.0812,-0.833,-0.5523,-0.4818,-0.4491,-0.4491,-0.4491,-0.4491,-0.4491,-0.4491,-0.4491,-0.4491,-0.4491,-0.4491,-0.4491,-0.4491,-0.4491,-0.4491,-0.4491,-0.4491,-0.4491,-1.4088,-1.2388,-1.0913,-1.0913,-1.0567,-1.1176,-1.3695,-1.4088,-1.4088,-1.4088,-1.4088,-1.4088,-1.4088,-1.4088,-1.4088,-1.4088,-1.2993,-1.2305,-1.2305,-1.2305,-1.2305,-1.2305,-1.2305,-1.2305,-1.2305,-1.2305,-1.2305,-1.2305,-1.167,-1.139,-1.139,-1.139,-1.139,-1.1363,-1.0834,-0.9716,-0.8091,-0.621,-0.5395,-0.5395,-0.5395,-0.5395,-0.5624,-0.7507,-0.7055,-0.5395,-0.5395,-0.5395,-0.5395,-0.5395,-0.5395,-0.5395,-0.5395,-0.5395,-0.5395,-0.5395,-0.5395,-0.5395,-0.5395,-0.5395,-0.5395,-0.5395,-0.5146,-0.4832,-0.4552,-0.4491,-0.4491,-0.4491,-0.4491,-0.4491,-0.4491,-0.4491,-0.4491,-0.4491,-0.4491,-0.4491,-0.4491,-0.4211,-0.401,-0.401,-0.4293,-0.4491,-0.4491,-0.4491,-0.4491,-0.4491,-0.4491,-0.4491,-0.4491,-0.4491,-0.5819,-0.8699,-0.8804,-0.9524,-1.1023,-0.8238,-0.6036,-0.4491,-0.4491,-0.4491,-0.4491,-0.4491,-0.4491,-0.4491,-0.4491,-0.4491,-0.4491,-0.4491,-0.4491,-0.4491,-0.4491,-0.4491,-0.4491,-0.4491,-0.4491,-0.4491,-1.3173,-0.9831,-0.7095,-0.7095,-1.0999,-1.4088,-1.4088,-1.4088,-1.4088,-1.4088,-1.4088,-1.4088,-1.4088,-1.4088,-1.4088,-1.4088,-1.316,-1.2572,-1.2572,-1.2405,-1.2305,-1.2305,-1.2305,-1.2305,-1.2305,-1.2305,-1.2305,-1.2305,-1.2305,-1.2305,-1.2298,-1.17,-1.1397,-1.1354,-1.0368,-0.8297,-0.5532,-0.5532,-0.5477,-0.5402,-0.5494,-0.5532,-0.5521,-0.5429,-0.5395,-0.5395,-0.5395,-0.5395,-0.5395,-0.5395,-0.5395,-0.5395,-0.5395,-0.5395,-0.5395,-0.5395,-0.5395,-0.5395,-0.5395,-0.5395,-0.5395,-0.5395,-0.5395,-0.5235,-0.4627,-0.4491,-0.4491,-0.4491,-0.4491,-0.4491,-0.4491,-0.4491,-0.4491,-0.4491,-0.4491,-0.4491,-0.4491,-0.4491,-0.4491,-0.4491,-0.4491,-0.4491,-0.4491,-0.4098,-0.4015,-0.446,-0.4491,-0.4491,-0.4491,-0.4491,-0.5628,-0.807,-0.856,-0.8586,-0.815,-0.5714,-0.4491,-0.4491,-0.4491,-0.4491,-0.4491,-0.4491,-0.4491,-0.4491,-0.4491,-0.4491,-0.4491,-0.4491,-0.4491,-0.4491,-0.4491,-0.4491,-0.4491,-0.4491,-0.4491,-0.4491,-0.8965,-0.7617,-0.7095,-0.7095,-1.0999,-1.4088,-1.4088,-1.4088,-1.4088,-1.4088,-1.4088,-1.4088,-1.4088,-1.4088,-1.4088,-1.4088,-1.3915,-1.3808,-1.3808,-1.2866,-1.2305,-1.2305,-1.2305,-1.2305,-1.2305,-1.2305,-1.2305,-1.2305,-1.2305,-1.2305,-1.2224,-0.8836,-0.7249,-0.7242,-0.706,-0.6682,-0.616,-0.616,-0.5863,-0.544,-0.5955,-0.616,-0.6102,-0.559,-0.5395,-0.5395,-0.5395,-0.5395,-0.5395,-0.5395,-0.5395,-0.5395,-0.5395,-0.5395,-0.5395,-0.5395,-0.5395,-0.5395,-0.5395,-0.5395,-0.5395,-0.5395,-0.5395,-0.5235,-0.4627,-0.4491,-0.4491,-0.4491,-0.4491,-0.4491,-0.4491,-0.4491,-0.4491,-0.4491,-0.4491,-0.4491,-0.4491,-0.4491,-0.4491,-0.4491,-0.4491,-0.4491,-0.4491,-0.2202,-0.1758,-0.4294,-0.4491,-0.4491,-0.4491,-0.4491,-0.4708,-0.514,-0.7524,-0.7637,-0.5195,-0.4736,-0.4491,-0.4491,-0.4491,-0.4491,-0.4491,-0.4491,-0.4491,-0.4491,-0.4491,-0.4491,-0.4491,-0.4491,-0.4491,-0.4491,-0.4491,-0.4491,-0.4491,-0.4491,-0.4491,-0.4491,-0.7533,-0.7095,-0.7095,-0.7095,-0.8877,-1.1171,-1.3695,-1.4088,-1.4088,-1.4088,-1.4088,-1.4088,-1.4088,-1.4088,-1.4088,-1.4088,-1.4088,-1.3039,-1.0481,-1.1567,-1.1316,-0.9173,-1.113,-1.2305,-1.2305,-1.2305,-1.2305,-1.2305,-1.2305,-1.2305,-1.2224,-0.8194,-0.63,-0.63,-0.63,-0.63,-0.63,-0.63,-0.6139,-0.5907,-0.6187,-0.63,-0.6269,-0.5989,-0.5883,-0.5883,-0.5883,-0.5672,-0.5395,-0.5395,-0.5395,-0.5395,-0.5395,-0.5395,-0.5395,-0.5395,-0.5395,-0.5395,-0.5395,-0.5395,-0.5395,-0.5395,-0.5395,-0.5235,-0.4627,-0.4491,-0.4491,-0.4491,-0.4491,-0.4491,-0.4491,-0.4491,-0.4491,-0.4491,-0.4491,-0.4491,-0.4491,-0.4491,-0.4491,-0.4491,-0.4491,-0.4491,-0.4491,-0.1758,-0.0588,-0.1981,-0.3594,-0.4491,-0.4491,-0.4491,-0.4491,-0.4491,-0.5792,-0.585,-0.4519,-0.4491,-0.4491,-0.4491,-0.4491,-0.4491,-0.4491,-0.4491,-0.4491,-0.4491,-0.4491,-0.4491,-0.4491,-0.4491,-0.4491,-0.4491,-0.4491,-0.4491,-0.4491,-0.4491,-0.4491,-0.4491,-0.7095,-0.7095,-0.7095,-0.7095,-0.7095,-0.8703,-1.3385,-1.4088,-1.4088,-1.4088,-1.4088,-1.4088,-1.4088,-1.4088,-1.3652,-1.2559,-1.2473,-1.0956,-0.7356,-0.9598,-1.0072,-0.7783,-1.064,-1.2305,-1.2305,-1.2305,-1.2305,-1.2305,-1.2305,-1.2305,-1.2224,-0.8194,-0.63,-0.63,-0.63,-0.63,-0.63,-0.63,-0.63,-0.6377,-0.7322,-0.7134,-0.63,-0.63,-0.63,-0.618,-0.5198,-0.4543,-0.4139,-0.4139,-0.4719,-0.5395,-0.5395,-0.5395,-0.5395,-0.5395,-0.5395,-0.5395,-0.5395,-0.5395,-0.5395,-0.5395,-0.5395,-0.5272,-0.4805,-0.459,-0.4491,-0.4491,-0.4491,-0.4491,-0.4491,-0.4491,-0.4491,-0.4491,-0.4491,-0.4491,-0.4491,-0.4491,-0.4491,-0.4491,-0.4491,-0.4491,-0.4491,-0.1758,-0.028,-0.1006,-0.3178,-0.4491,-0.4491,-0.4491,-0.4181,-0.3483,-0.4125,-0.4153,-0.3456,-0.3456,-0.3818,-0.4491,-0.4491,-0.4491,-0.4491,-0.4491,-0.4491,-0.4491,-0.4491,-0.4491,-0.4491,-0.4491,-0.4491,-0.4491,-0.4491,-0.4491,-0.4491,-0.4491,-0.4491,-0.4491,-0.7095,-0.7095,-0.7095,-0.7095,-0.7095,-0.8703,-1.3385,-1.4088,-1.4088,-1.4088,-1.4088,-1.4088,-1.4088,-1.4088,-1.2345,-0.8009,-0.7617,-0.7489,-0.7139,-0.7358,-0.8772,-1.1738,-1.215,-1.2305,-1.2305,-1.2305,-1.2305,-1.2305,-1.2305,-1.2305,-1.2224,-0.8194,-0.63,-0.63,-0.63,-0.63,-0.63,-0.63,-0.63,-0.6641,-1.0378,-0.9626,-0.63,-0.63,-0.63,-0.5789,-0.1879,-0.043,-0.0388,-0.0388,-0.2619,-0.5395,-0.5395,-0.5395,-0.5395,-0.5395,-0.5395,-0.5395,-0.5395,-0.5395,-0.5395,-0.5395,-0.5395,-0.5382,-0.5337,-0.4894,-0.4491,-0.4491,-0.4491,-0.4491,-0.4491,-0.4491,-0.4491,-0.4491,-0.4491,-0.4491,-0.4491,-0.4491,-0.4491,-0.4491,-0.4491,-0.4491,-0.4491,-0.1758,-0.1146,-0.3959,-0.4377,-0.4491,-0.4491,-0.4491,-0.3231,-0.042,-0.3037,-0.3151,-0.0364,-0.0336,-0.173,-0.4491,-0.4491,-0.4491,-0.4491,-0.4491,-0.4491,-0.4491,-0.4491,-0.4491,-0.4491,-0.4491,-0.4491,-0.4491,-0.4491,-0.4491,-0.4491,-0.4491,-0.4491,-0.4491,-0.7095,-0.7095,-0.7095,-0.7095,-0.7095,-0.8703,-1.3385,-1.4088,-1.4088,-1.4088,-1.4088,-1.4088,-1.4088,-1.4088,-1.2217,-0.7529,-0.7095,-0.7095,-0.7095,-0.7095,-0.8665,-1.2166,-1.2305,-1.2305,-1.2305,-1.2305,-1.2305,-1.2305,-1.2305,-1.2305,-1.2224,-0.8194,-0.63,-0.63,-0.63,-0.63,-0.63,-0.63,-0.774,-1.0153,-1.1694,-1.1397,-0.9739,-0.7249,-0.63,-0.5747,-0.1528,0.0,0.0,0.0,-0.2671,-0.589,-0.5515,-0.5395,-0.5395,-0.5395,-0.5395,-0.5395,-0.5395,-0.5395,-0.5395,-0.5395,-0.5395,-0.5395,-0.5395,-0.4924,-0.4491,-0.4491,-0.5928,-0.6632,-0.4818,-0.4491,-0.4491,-0.4491,-0.4491,-0.4491,-0.4491,-0.4491,-0.4491,-0.4491,-0.4491,-0.4491,-0.4491,-0.3456,-0.3262,-0.4405,-0.4491,-0.4491,-0.4491,-0.2732,-0.1174,-0.0028,-0.1118,-0.1146,0.0,0.0,-0.1507,-0.4491,-0.4491,-0.4491,-0.4491,-0.4491,-0.4491,-0.4491,-0.4491,-0.4491,-0.4491,-0.4491,-0.34,-0.1703,-0.1703,-0.1703,-0.1703,-0.1703,-0.2899,-0.4491,-0.7095,-0.7095,-0.7095,-0.7095,-0.7095,-0.8181,-1.1391,-1.3167,-1.4088,-1.4088,-1.4088,-1.4088,-1.4088,-1.2778,-1.0611,-0.7401,-0.7095,-0.7095,-0.7095,-0.7095,-0.8815,-1.2699,-1.2505,-1.2305,-1.2305,-1.2305,-1.2305,-1.2305,-1.2305,-1.1657,-1.0378,-0.7587,-0.63,-0.63,-0.63,-0.63,-0.63,-0.63,-0.8609,-1.2305,-1.2305,-1.2305,-1.1848,-0.7817,-0.63,-0.5747,-0.1528,0.0,0.0,0.0,-0.1918,-0.4481,-0.5409,-0.5549,-0.5395,-0.5395,-0.5395,-0.5395,-0.5395,-0.5395,-0.5395,-0.5395,-0.5395,-0.5395,-0.5395,-0.5074,-0.4977,-0.5707,-0.7417,-0.8203,-0.6226,-0.5113,-0.4491,-0.4491,-0.4491,-0.4491,-0.4491,-0.4491,-0.4491,-0.4491,-0.4491,-0.4491,-0.4491,-0.4491,-0.4491,-0.4491,-0.3624,-0.3095,-0.3095,-0.1118,0.0,0.0,0.0,0.0,0.0,0.0,-0.1034,-0.3093,-0.4042,-0.4491,-0.4491,-0.4491,-0.4491,-0.4491,-0.4491,-0.4491,-0.4491,-0.4491,-0.2732,0.0,0.0,0.0,0.0,0.0,-0.1312,-0.3095,-0.7095,-0.7095,-0.7095,-0.7095,-0.7095,-0.7095,-0.7139,-1.1128,-1.4088,-1.4088,-1.4088,-1.4088,-1.4088,-0.9918,-0.7095,-0.7095,-0.7095,-0.7095,-0.7095,-0.7095,-0.9183,-1.3828,-1.29,-1.2305,-1.2305,-1.2305,-1.2305,-1.2305,-1.2268,-1.0228,-0.63,-0.63,-0.63,-0.63,-0.63,-0.63,-0.63,-0.63,-0.8609,-1.2305,-1.2305,-1.2305,-1.1848,-0.7817,-0.63,-0.5747,-0.1528,0.0,0.0,0.0,0.0,-0.0745,-0.496,-0.588,-0.5395,-0.5395,-0.5395,-0.5395,-0.5395,-0.5395,-0.5395,-0.5395,-0.5395,-0.5395,-0.5395,-0.5395,-0.6046,-0.8324,-0.8804,-0.8778,-0.8778,-0.6416,-0.4491,-0.4491,-0.4491,-0.4491,-0.4491,-0.4491,-0.4491,-0.4491,-0.4491,-0.4491,-0.4491,-0.4491,-0.4491,-0.4491,-0.1703,0.0,0.0,0.0,0.0,0.0,0.0,0.0,0.0,0.0,0.0,-0.0028,-0.3037,-0.4487,-0.4491,-0.4491,-0.4491,-0.4491,-0.4491,-0.4491,-0.4491,-0.4491,-0.2732,-0.0028,0.0,0.0,0.0,0.0,0.0,0.0,-0.7095,-0.7095,-0.7095,-0.7095,-0.7095,-0.8225,-1.152,-1.3215,-1.4088,-1.4088,-1.4088,-1.4088,-1.4088,-0.9918,-0.7095,-0.7095,-0.7095,-0.7095,-0.7095,-0.7095,-0.7705,-0.9139,-1.1178,-1.2305,-1.2305,-1.2305,-1.2305,-1.2305,-0.9475,-0.7476,-0.63,-0.63,-0.63,-0.63,-0.63,-0.63,-0.63,-0.63,-0.8609,-1.2305,-1.2305,-1.2305,-1.1848,-0.7817,-0.63,-0.5747,-0.1528,0.0,0.0,0.0,0.0,-0.0659,-0.4462,-0.5539,-0.5395,-0.5395,-0.5395,-0.5395,-0.5395,-0.5395,-0.5395,-0.5395,-0.5395,-0.5395,-0.5395,-0.5395,-0.6046,-0.8324,-0.8804,-0.8182,-0.6145,-0.5089,-0.4491,-0.4491,-0.4491,-0.4491,-0.4491,-0.4491,-0.4491,-0.4491,-0.4491,-0.4491,-0.4491,-0.4491,-0.4491,-0.4491,-0.1703,0.0,0.0,0.0,0.0,0.0,0.0,0.0,0.0,0.0,0.0,0.0,-0.0923,-0.2454,-0.4491,-0.4491,-0.4491,-0.4491,-0.4491,-0.4491,-0.4491,-0.4491,-0.3959,-0.2954,-0.0839,0.0,0.0,0.0,0.0,0.0,-0.7445,-0.7095,-0.7095,-0.7095,-0.7095,-0.8703,-1.3385,-1.4088,-1.4088,-1.4088,-1.4088,-1.3385,-1.152,-0.879,-0.7095,-0.7095,-0.7095,-0.7095,-0.7095,-0.7095,-0.7095,-0.7095,-0.9101,-1.089,-1.2274,-1.2305,-1.2305,-1.2305,-0.8266,-0.63,-0.63,-0.63,-0.63,-0.63,-0.63,-0.63,-0.6412,-0.8003,-1.0078,-1.2305,-1.2305,-1.2305,-1.1848,-0.7817,-0.63,-0.5747,-0.1528,0.0,0.0,0.0,-0.1097,-0.2865,-0.5062,-0.5754,-0.5706,-0.5467,-0.5395,-0.5395,-0.5395,-0.5395,-0.5395,-0.5395,-0.5395,-0.5395,-0.5395,-0.5395,-0.5805,-0.7185,-0.8171,-0.791,-0.5034,-0.4491,-0.4491,-0.4491,-0.4491,-0.4491,-0.4491,-0.4491,-0.4491,-0.4491,-0.4491,-0.4491,-0.4491,-0.3428,-0.2732,-0.2732,-0.1034,0.0,0.0,0.0,0.0,0.0,0.0,0.0,0.0,0.0,0.0,0.0,0.0,-0.1591,-0.4491,-0.4491,-0.4491,-0.4491,-0.4491,-0.4491,-0.4491,-0.4491,-0.4491,-0.4211,-0.1174,0.0,0.0,0.0,0.0,0.0,-0.8009,-0.7095,-0.7095,-0.7095,-0.7445,-0.9183,-1.3434,-1.4088,-1.4088,-1.4088,-1.4088,-1.2303,-0.7617,-0.7095,-0.7095,-0.7095,-0.7095,-0.7095,-0.7095,-0.7095,-0.7095,-0.7095,-0.7095,-0.8732,-1.2214,-1.2305,-1.2305,-1.2305,-0.8647,-0.6641,-0.63,-0.63,-0.63,-0.63,-0.63,-0.63,-0.6528,-1.0228,-1.1959,-1.2305,-1.2305,-1.2077,-1.136,-0.7702,-0.63,-0.5747,-0.1528,0.0,0.0,0.0,-0.2817,-0.63,-0.63,-0.63,-0.619,-0.5638,-0.5436,-0.5329,-0.499,-0.4924,-0.4924,-0.4924,-0.516,-0.5395,-0.5395,-0.5395,-0.5395,-0.5395,-0.7051,-0.7666,-0.4991,-0.4491,-0.4491,-0.4491,-0.4491,-0.4491,-0.4491,-0.4491,-0.4491,-0.4491,-0.4491,-0.4491,-0.4491,-0.1758,0.0,0.0,0.0,0.0,0.0,0.0,0.0,0.0,0.0,0.0,0.0,0.0,0.0,0.0,0.0,-0.1591,-0.4491,-0.4491,-0.4491,-0.4491,-0.4491,-0.4491,-0.4491,-0.4491,-0.4349,-0.3818,-0.1062,0.0,0.0,0.0,0.0,0.0,-0.8009,-0.7095,-0.7095,-0.7095,-1.0135,-1.2912,-1.3955,-1.4088,-1.4088,-1.4088,-1.4088,-1.2303,-0.7617,-0.7095,-0.7095,-0.7095,-0.7095,-0.7095,-0.7095,-0.7095,-0.7095,-0.7095,-0.7095,-0.8732,-1.2214,-1.2305,-1.2305,-1.2305,-1.1434,-0.9399,-0.63,-0.63,-0.63,-0.63,-0.63,-0.63,-0.6377,-0.7249,-0.9437,-1.2305,-1.2305,-1.0415,-0.7514,-0.6644,-0.63,-0.5747,-0.1528,0.0,0.0,0.0,-0.2817,-0.63,-0.63,-0.63,-0.6272,-0.6143,-0.5767,-0.4791,-0.1946,-0.1176,-0.1176,-0.1176,-0.3316,-0.5395,-0.5395,-0.5395,-0.5395,-0.5395,-0.5801,-0.579,-0.4717,-0.4491,-0.4491,-0.4491,-0.4491,-0.4491,-0.4491,-0.4491,-0.4491,-0.4491,-0.4491,-0.4491,-0.4491,-0.1758,0.0,0.0,0.0,0.0,0.0,0.0,0.0,0.0,0.0,0.0,0.0,0.0,0.0,0.0,0.0,-0.1591,-0.4491,-0.4491,-0.4491,-0.4491,-0.4491,-0.4491,-0.4491,-0.4491,-0.3121,-0.0923,-0.0252,0.0,0.0,0.0,0.0,0.0,-0.8009,-0.7095,-0.7793,-1.0048,-1.2473,-1.4088,-1.4088,-1.4088,-1.4088,-1.4088,-1.4088,-1.2303,-0.7617,-0.7095,-0.7095,-0.7095,-0.7095,-0.7095,-0.7095,-0.7095,-0.7095,-0.7095,-0.7095,-0.7971,-0.9797,-1.1467,-1.136,-0.9437,-0.9437,-0.8342,-0.63,-0.63,-0.63,-0.63,-0.63,-0.63,-0.63,-0.63,-0.7514,-0.9437,-0.9437,-0.8194,-0.63,-0.63,-0.63,-0.5747,-0.1528,0.0,0.0,0.0,-0.1449,-0.3636,-0.567,-0.63,-0.63,-0.63,-0.6074,-0.4974,-0.1057,0.0,0.0,0.0,-0.1411,-0.3284,-0.499,-0.5395,-0.5395,-0.5395,-0.5395,-0.5296,-0.4979,-0.4685,-0.4491,-0.4491,-0.4491,-0.4491,-0.4491,-0.4491,-0.4491,-0.4491,-0.4491,-0.3929,-0.2482,-0.0923,0.0,0.0,0.0,0.0,0.0,0.0,0.0,0.0,0.0,0.0,0.0,0.0,0.0,0.0,0.0,-0.1591,-0.4491,-0.4491,-0.4491,-0.4491,-0.4491,-0.4491,-0.4491,-0.4491,-0.2732,0.0,0.0,0.0,0.0,0.0,0.0,0.0,-0.8009,-0.7095,-0.8575,-1.33,-1.4088,-1.4088,-1.4088,-1.4088,-1.4088,-1.4088,-1.4088,-1.2303,-0.7617,-0.7095,-0.7095,-0.7095,-0.7095,-0.7095,-0.7095,-0.7095,-0.7095,-0.7095,-0.7095,-0.7048,-0.695,-0.9812,-0.9965,-0.7322,-0.7322,-0.6984,-0.63,-0.63,-0.63,-0.63,-0.63,-0.63,-0.63,-0.63,-0.63,-0.63,-0.63,-0.63,-0.63,-0.63,-0.63,-0.5828,-0.2347,-0.0628,0.0,0.0,0.0,-0.0745,-0.4965,-0.63,-0.63,-0.63,-0.5789,-0.4439,-0.0935,0.0,0.0,0.0,0.0,-0.0941,-0.4589,-0.5395,-0.5395,-0.5395,-0.5395,-0.5395,-0.5395,-0.49,-0.4491,-0.4491,-0.4491,-0.4491,-0.4491,-0.4491,-0.4491,-0.4491,-0.4491,-0.3317,-0.028,0.0,0.0,0.0,0.0,0.0,0.0,0.0,0.0,0.0,0.0,0.0,0.0,0.0,0.0,0.0,-0.0532,-0.2093,-0.4491,-0.4491,-0.4491,-0.4491,-0.4491,-0.4491,-0.446,-0.3932,-0.2259,0.0,0.0,0.0,0.0,0.0,0.0,0.0,-0.8009,-0.7095,-0.8575,-1.33,-1.4088,-1.4088,-1.4088,-1.4088,-1.4088,-1.4088,-1.4088,-1.2303,-0.7617,-0.7095,-0.7095,-0.7095,-0.7095,-0.7095,-0.7095,-0.7095,-0.7095,-0.7095,-0.7095,-0.6902,-0.6429,-0.6874,-0.8533,-1.1508,-1.1508,-0.9696,-0.63,-0.63,-0.63,-0.63,-0.63,-0.63,-0.63,-0.63,-0.63,-0.63,-0.63,-0.63,-0.63,-0.63,-0.63,-0.6222,-0.567,-0.3088,0.0,0.0,0.0,-0.0745,-0.4965,-0.63,-0.63,-0.63,-0.3713,-0.073,-0.0139,0.0,0.0,0.0,0.0,-0.0941,-0.4589,-0.5395,-0.5395,-0.5395,-0.5395,-0.5395,-0.5395,-0.49,-0.4491,-0.4491,-0.4491,-0.4491,-0.4491,-0.4491,-0.4491,-0.4491,-0.4491,-0.3317,-0.028,0.0,0.0,0.0,0.0,0.0,0.0,0.0,0.0,0.0,0.0,0.0,0.0,0.0,0.0,-0.0028,-0.2649,-0.4098,-0.4491,-0.4491,-0.4491,-0.4491,-0.4491,-0.4491,-0.4294,-0.1675,-0.0364,0.0,0.0,0.0,0.0,0.0,0.0,0.0,-0.8009,-0.7095,-0.8575,-1.33,-1.4088,-1.4088,-1.4088,-1.4088,-1.4088,-1.4088,-1.4088,-1.2303,-0.7617,-0.7095,-0.7095,-0.7095,-0.7095,-0.7095,-0.7095,-0.7095,-0.7095,-0.7095,-0.7095,-0.6865,-0.6313,-0.63,-0.8266,-1.2305,-1.2305,-1.0228,-0.63,-0.63,-0.63,-0.63,-0.63,-0.63,-0.63,-0.63,-0.63,-0.63,-0.63,-0.63,-0.63,-0.63,-0.63,-0.63,-0.63,-0.5082,-0.3519,-0.3519,-0.3519,-0.383,-0.5712,-0.63,-0.63,-0.63,-0.3324,0.0,0.0,0.0,0.0,0.0,0.0,-0.0941,-0.4589,-0.5395,-0.5395,-0.5395,-0.5395,-0.5395,-0.5395,-0.5177,-0.4883,-0.4545,-0.4491,-0.4491,-0.4491,-0.4491,-0.4491,-0.4491,-0.301,-0.1452,-0.014,0.0,0.0,0.0,0.0,0.0,0.0,0.0,0.0,0.0,0.0,0.0,0.0,0.0,0.0,-0.0028,-0.1341,-0.2871,-0.4491,-0.4491,-0.4491,-0.4491,-0.4491,-0.3541,-0.187,-0.056,0.0,0.0,0.0,0.0,0.0,0.0,0.0,0.0]}]]